
<gpx xmlns="http://www.topografix.com/GPX/1/1" xmlns:gpxx="http://www.garmin.com/xmlschemas/GpxExtensions/v3" xmlns:xsi="http://www.w3.org/2001/XMLSchema-instance" version="1.1" creator="Adze - http://kobotsw.com/apps/adze" xsi:schemaLocation="http://www.topografix.com/GPX/1/1 http://www.topografix.com/GPX/1/1/gpx.xsd http://www.garmin.com/xmlschemas/GpxExtensions/v3 http://www.garmin.com/xmlschemas/GpxExtensionsv3.xsd">
    <metadata>
        <name>Untitled Document</name>
        <link href="http://www.garmin.com"></link>
        <time>2018-01-04T15:20:57.754Z</time>
    </metadata>
    <wpt lon="101.338531" lat="13.734936">
        <ele>19.000000</ele>
        <time>2014-12-13T05:30:52Z</time>
        <name>LannaResort</name>
        <sym>Lodging</sym>
        <extensions>
            <gpxx:WaypointExtension xmlns:gpxx="http://www.garmin.com/xmlschemas/GpxExtensions/v3">
                <gpxx:DisplayMode>SymbolAndName</gpxx:DisplayMode>
            </gpxx:WaypointExtension>
        </extensions>
    </wpt>
    <wpt lon="101.337047" lat="13.641165">
        <ele>56.000000</ele>
        <time>2014-12-13T07:13:32Z</time>
        <name>Water Sat</name>
        <sym>Drinking Water</sym>
        <extensions>
            <gpxx:WaypointExtension xmlns:gpxx="http://www.garmin.com/xmlschemas/GpxExtensions/v3">
                <gpxx:DisplayMode>SymbolAndName</gpxx:DisplayMode>
            </gpxx:WaypointExtension>
        </extensions>
    </wpt>
    <trk>
        <name>Saturday</name>
        <extensions>
            <gpxx:TrackExtension xmlns:gpxx="http://www.garmin.com/xmlschemas/GpxExtensions/v3">
                <gpxx:DisplayColor>Red</gpxx:DisplayColor>
            </gpxx:TrackExtension>
        </extensions>
        <trkseg>
            <trkpt lon="101.338655" lat="13.735018">
                <ele>10.710000</ele>
                <time>2017-07-29T05:56:55Z</time>
            </trkpt>
            <trkpt lon="101.338646" lat="13.735047">
                <ele>11.190000</ele>
                <time>2017-07-29T05:57:00Z</time>
            </trkpt>
            <trkpt lon="101.338554" lat="13.735121">
                <ele>11.670000</ele>
                <time>2017-07-29T05:57:06Z</time>
            </trkpt>
            <trkpt lon="101.338445" lat="13.735163">
                <ele>10.230000</ele>
                <time>2017-07-29T05:57:11Z</time>
            </trkpt>
            <trkpt lon="101.338432" lat="13.735184">
                <ele>9.750000</ele>
                <time>2017-07-29T05:57:12Z</time>
            </trkpt>
            <trkpt lon="101.338427" lat="13.735207">
                <ele>9.750000</ele>
                <time>2017-07-29T05:57:13Z</time>
            </trkpt>
            <trkpt lon="101.338431" lat="13.735238">
                <ele>9.270000</ele>
                <time>2017-07-29T05:57:14Z</time>
            </trkpt>
            <trkpt lon="101.338440" lat="13.735269">
                <ele>9.270000</ele>
                <time>2017-07-29T05:57:15Z</time>
            </trkpt>
            <trkpt lon="101.338593" lat="13.735754">
                <ele>8.790000</ele>
                <time>2017-07-29T05:57:29Z</time>
            </trkpt>
            <trkpt lon="101.338615" lat="13.735769">
                <ele>8.790000</ele>
                <time>2017-07-29T05:57:30Z</time>
            </trkpt>
            <trkpt lon="101.338831" lat="13.735784">
                <ele>9.270000</ele>
                <time>2017-07-29T05:57:37Z</time>
            </trkpt>
            <trkpt lon="101.339105" lat="13.735855">
                <ele>9.750000</ele>
                <time>2017-07-29T05:57:45Z</time>
            </trkpt>
            <trkpt lon="101.339455" lat="13.735847">
                <ele>7.830000</ele>
                <time>2017-07-29T05:57:59Z</time>
            </trkpt>
            <trkpt lon="101.339537" lat="13.735855">
                <ele>6.870000</ele>
                <time>2017-07-29T05:58:05Z</time>
            </trkpt>
            <trkpt lon="101.339659" lat="13.735900">
                <ele>7.830000</ele>
                <time>2017-07-29T05:58:22Z</time>
            </trkpt>
            <trkpt lon="101.339724" lat="13.735916">
                <ele>8.310000</ele>
                <time>2017-07-29T05:58:39Z</time>
            </trkpt>
            <trkpt lon="101.339757" lat="13.735895">
                <ele>10.230000</ele>
                <time>2017-07-29T05:58:47Z</time>
            </trkpt>
            <trkpt lon="101.339808" lat="13.735859">
                <ele>10.710000</ele>
                <time>2017-07-29T05:58:52Z</time>
            </trkpt>
            <trkpt lon="101.339833" lat="13.735842">
                <ele>10.710000</ele>
                <time>2017-07-29T05:58:55Z</time>
            </trkpt>
            <trkpt lon="101.339904" lat="13.735843">
                <ele>8.310000</ele>
                <time>2017-07-29T05:59:12Z</time>
            </trkpt>
            <trkpt lon="101.339932" lat="13.735857">
                <ele>7.830000</ele>
                <time>2017-07-29T05:59:16Z</time>
            </trkpt>
            <trkpt lon="101.340009" lat="13.735863">
                <ele>7.350000</ele>
                <time>2017-07-29T05:59:25Z</time>
            </trkpt>
            <trkpt lon="101.339993" lat="13.735548">
                <ele>6.870000</ele>
                <time>2017-07-29T05:59:37Z</time>
            </trkpt>
            <trkpt lon="101.339937" lat="13.735075">
                <ele>5.420000</ele>
                <time>2017-07-29T05:59:52Z</time>
            </trkpt>
            <trkpt lon="101.339849" lat="13.734427">
                <ele>5.420000</ele>
                <time>2017-07-29T06:00:07Z</time>
            </trkpt>
            <trkpt lon="101.339806" lat="13.733518">
                <ele>4.940000</ele>
                <time>2017-07-29T06:00:28Z</time>
            </trkpt>
            <trkpt lon="101.339748" lat="13.733025">
                <ele>3.500000</ele>
                <time>2017-07-29T06:00:39Z</time>
            </trkpt>
            <trkpt lon="101.339676" lat="13.732185">
                <ele>3.020000</ele>
                <time>2017-07-29T06:00:56Z</time>
            </trkpt>
            <trkpt lon="101.339598" lat="13.731223">
                <ele>3.020000</ele>
                <time>2017-07-29T06:01:15Z</time>
            </trkpt>
            <trkpt lon="101.339500" lat="13.730172">
                <ele>3.500000</ele>
                <time>2017-07-29T06:01:36Z</time>
            </trkpt>
            <trkpt lon="101.339459" lat="13.729299">
                <ele>2.540000</ele>
                <time>2017-07-29T06:01:54Z</time>
            </trkpt>
            <trkpt lon="101.339339" lat="13.728442">
                <ele>3.020000</ele>
                <time>2017-07-29T06:02:11Z</time>
            </trkpt>
            <trkpt lon="101.339302" lat="13.727632">
                <ele>2.540000</ele>
                <time>2017-07-29T06:02:28Z</time>
            </trkpt>
            <trkpt lon="101.339243" lat="13.727167">
                <ele>3.020000</ele>
                <time>2017-07-29T06:02:40Z</time>
            </trkpt>
            <trkpt lon="101.339334" lat="13.727110">
                <ele>3.020000</ele>
                <time>2017-07-29T06:02:43Z</time>
            </trkpt>
            <trkpt lon="101.339557" lat="13.727103">
                <ele>3.020000</ele>
                <time>2017-07-29T06:02:48Z</time>
            </trkpt>
            <trkpt lon="101.340247" lat="13.727073">
                <ele>3.980000</ele>
                <time>2017-07-29T06:03:04Z</time>
            </trkpt>
            <trkpt lon="101.340298" lat="13.727065">
                <ele>3.980000</ele>
                <time>2017-07-29T06:03:05Z</time>
            </trkpt>
            <trkpt lon="101.340828" lat="13.726733">
                <ele>6.390000</ele>
                <time>2017-07-29T06:03:19Z</time>
            </trkpt>
            <trkpt lon="101.340859" lat="13.726708">
                <ele>6.390000</ele>
                <time>2017-07-29T06:03:20Z</time>
            </trkpt>
            <trkpt lon="101.340977" lat="13.726601">
                <ele>6.870000</ele>
                <time>2017-07-29T06:03:24Z</time>
            </trkpt>
            <trkpt lon="101.341501" lat="13.726126">
                <ele>8.310000</ele>
                <time>2017-07-29T06:03:40Z</time>
            </trkpt>
            <trkpt lon="101.341598" lat="13.726023">
                <ele>8.310000</ele>
                <time>2017-07-29T06:03:43Z</time>
            </trkpt>
            <trkpt lon="101.341704" lat="13.725920">
                <ele>8.790000</ele>
                <time>2017-07-29T06:03:46Z</time>
            </trkpt>
            <trkpt lon="101.342145" lat="13.725488">
                <ele>8.310000</ele>
                <time>2017-07-29T06:03:59Z</time>
            </trkpt>
            <trkpt lon="101.342241" lat="13.725380">
                <ele>8.310000</ele>
                <time>2017-07-29T06:04:02Z</time>
            </trkpt>
            <trkpt lon="101.342693" lat="13.724964">
                <ele>7.830000</ele>
                <time>2017-07-29T06:04:17Z</time>
            </trkpt>
            <trkpt lon="101.343209" lat="13.724481">
                <ele>7.830000</ele>
                <time>2017-07-29T06:04:33Z</time>
            </trkpt>
            <trkpt lon="101.343487" lat="13.724211">
                <ele>8.310000</ele>
                <time>2017-07-29T06:04:45Z</time>
            </trkpt>
            <trkpt lon="101.343754" lat="13.723950">
                <ele>8.790000</ele>
                <time>2017-07-29T06:04:57Z</time>
            </trkpt>
            <trkpt lon="101.344184" lat="13.723547">
                <ele>8.790000</ele>
                <time>2017-07-29T06:05:14Z</time>
            </trkpt>
            <trkpt lon="101.344373" lat="13.723374">
                <ele>8.310000</ele>
                <time>2017-07-29T06:05:20Z</time>
            </trkpt>
            <trkpt lon="101.344808" lat="13.722941">
                <ele>8.310000</ele>
                <time>2017-07-29T06:05:35Z</time>
            </trkpt>
            <trkpt lon="101.344997" lat="13.722739">
                <ele>8.790000</ele>
                <time>2017-07-29T06:05:42Z</time>
            </trkpt>
            <trkpt lon="101.344911" lat="13.722611">
                <ele>8.310000</ele>
                <time>2017-07-29T06:05:47Z</time>
            </trkpt>
            <trkpt lon="101.344803" lat="13.722451">
                <ele>7.830000</ele>
                <time>2017-07-29T06:05:52Z</time>
            </trkpt>
            <trkpt lon="101.344878" lat="13.722036">
                <ele>7.350000</ele>
                <time>2017-07-29T06:06:01Z</time>
            </trkpt>
            <trkpt lon="101.344866" lat="13.721757">
                <ele>6.870000</ele>
                <time>2017-07-29T06:06:07Z</time>
            </trkpt>
            <trkpt lon="101.344799" lat="13.721598">
                <ele>6.870000</ele>
                <time>2017-07-29T06:06:11Z</time>
            </trkpt>
            <trkpt lon="101.344715" lat="13.721487">
                <ele>6.870000</ele>
                <time>2017-07-29T06:06:14Z</time>
            </trkpt>
            <trkpt lon="101.344668" lat="13.721058">
                <ele>7.350000</ele>
                <time>2017-07-29T06:06:26Z</time>
            </trkpt>
            <trkpt lon="101.344674" lat="13.720729">
                <ele>6.390000</ele>
                <time>2017-07-29T06:06:39Z</time>
            </trkpt>
            <trkpt lon="101.344714" lat="13.720315">
                <ele>5.910000</ele>
                <time>2017-07-29T06:06:54Z</time>
            </trkpt>
            <trkpt lon="101.345038" lat="13.720166">
                <ele>6.390000</ele>
                <time>2017-07-29T06:07:06Z</time>
            </trkpt>
            <trkpt lon="101.345360" lat="13.720126">
                <ele>6.870000</ele>
                <time>2017-07-29T06:07:18Z</time>
            </trkpt>
            <trkpt lon="101.345870" lat="13.720024">
                <ele>8.310000</ele>
                <time>2017-07-29T06:07:34Z</time>
            </trkpt>
            <trkpt lon="101.346289" lat="13.719863">
                <ele>8.790000</ele>
                <time>2017-07-29T06:07:47Z</time>
            </trkpt>
            <trkpt lon="101.346759" lat="13.719672">
                <ele>9.750000</ele>
                <time>2017-07-29T06:08:01Z</time>
            </trkpt>
            <trkpt lon="101.347112" lat="13.719553">
                <ele>9.750000</ele>
                <time>2017-07-29T06:08:14Z</time>
            </trkpt>
            <trkpt lon="101.347311" lat="13.719469">
                <ele>10.710000</ele>
                <time>2017-07-29T06:08:27Z</time>
            </trkpt>
            <trkpt lon="101.347413" lat="13.719401">
                <ele>11.190000</ele>
                <time>2017-07-29T06:08:37Z</time>
            </trkpt>
            <trkpt lon="101.347724" lat="13.719290">
                <ele>11.190000</ele>
                <time>2017-07-29T06:08:50Z</time>
            </trkpt>
            <trkpt lon="101.348034" lat="13.719175">
                <ele>11.670000</ele>
                <time>2017-07-29T06:09:03Z</time>
            </trkpt>
            <trkpt lon="101.348110" lat="13.719112">
                <ele>11.670000</ele>
                <time>2017-07-29T06:09:13Z</time>
            </trkpt>
            <trkpt lon="101.348249" lat="13.718967">
                <ele>11.670000</ele>
                <time>2017-07-29T06:09:25Z</time>
            </trkpt>
            <trkpt lon="101.348341" lat="13.718852">
                <ele>11.670000</ele>
                <time>2017-07-29T06:09:31Z</time>
            </trkpt>
            <trkpt lon="101.348557" lat="13.718548">
                <ele>11.670000</ele>
                <time>2017-07-29T06:09:46Z</time>
            </trkpt>
            <trkpt lon="101.348766" lat="13.718245">
                <ele>13.120000</ele>
                <time>2017-07-29T06:09:59Z</time>
            </trkpt>
            <trkpt lon="101.349035" lat="13.717872">
                <ele>13.600000</ele>
                <time>2017-07-29T06:10:13Z</time>
            </trkpt>
            <trkpt lon="101.349101" lat="13.717747">
                <ele>13.120000</ele>
                <time>2017-07-29T06:10:25Z</time>
            </trkpt>
            <trkpt lon="101.349116" lat="13.717718">
                <ele>12.630000</ele>
                <time>2017-07-29T06:10:39Z</time>
            </trkpt>
            <trkpt lon="101.349148" lat="13.717661">
                <ele>12.150000</ele>
                <time>2017-07-29T06:10:52Z</time>
            </trkpt>
            <trkpt lon="101.349192" lat="13.717589">
                <ele>13.600000</ele>
                <time>2017-07-29T06:11:08Z</time>
            </trkpt>
            <trkpt lon="101.349238" lat="13.717531">
                <ele>13.120000</ele>
                <time>2017-07-29T06:11:19Z</time>
            </trkpt>
            <trkpt lon="101.349364" lat="13.717423">
                <ele>11.670000</ele>
                <time>2017-07-29T06:11:37Z</time>
            </trkpt>
            <trkpt lon="101.349455" lat="13.717370">
                <ele>11.190000</ele>
                <time>2017-07-29T06:11:51Z</time>
            </trkpt>
            <trkpt lon="101.349568" lat="13.717285">
                <ele>10.710000</ele>
                <time>2017-07-29T06:12:07Z</time>
            </trkpt>
            <trkpt lon="101.349632" lat="13.717239">
                <ele>10.710000</ele>
                <time>2017-07-29T06:12:14Z</time>
            </trkpt>
            <trkpt lon="101.349629" lat="13.717196">
                <ele>10.230000</ele>
                <time>2017-07-29T06:12:19Z</time>
            </trkpt>
            <trkpt lon="101.349470" lat="13.717123">
                <ele>9.270000</ele>
                <time>2017-07-29T06:12:37Z</time>
            </trkpt>
            <trkpt lon="101.349372" lat="13.717076">
                <ele>9.270000</ele>
                <time>2017-07-29T06:12:50Z</time>
            </trkpt>
            <trkpt lon="101.349315" lat="13.717044">
                <ele>9.750000</ele>
                <time>2017-07-29T06:13:00Z</time>
            </trkpt>
            <trkpt lon="101.349232" lat="13.716997">
                <ele>9.270000</ele>
                <time>2017-07-29T06:13:06Z</time>
            </trkpt>
            <trkpt lon="101.349227" lat="13.716983">
                <ele>9.750000</ele>
                <time>2017-07-29T06:13:07Z</time>
            </trkpt>
            <trkpt lon="101.349224" lat="13.716964">
                <ele>9.750000</ele>
                <time>2017-07-29T06:13:08Z</time>
            </trkpt>
            <trkpt lon="101.349218" lat="13.716945">
                <ele>9.750000</ele>
                <time>2017-07-29T06:13:09Z</time>
            </trkpt>
            <trkpt lon="101.349205" lat="13.716925">
                <ele>9.750000</ele>
                <time>2017-07-29T06:13:10Z</time>
            </trkpt>
            <trkpt lon="101.349188" lat="13.716912">
                <ele>9.750000</ele>
                <time>2017-07-29T06:13:11Z</time>
            </trkpt>
            <trkpt lon="101.349166" lat="13.716902">
                <ele>9.750000</ele>
                <time>2017-07-29T06:13:12Z</time>
            </trkpt>
            <trkpt lon="101.348768" lat="13.716711">
                <ele>10.230000</ele>
                <time>2017-07-29T06:13:26Z</time>
            </trkpt>
            <trkpt lon="101.348314" lat="13.716601">
                <ele>10.710000</ele>
                <time>2017-07-29T06:13:40Z</time>
            </trkpt>
            <trkpt lon="101.347893" lat="13.716583">
                <ele>9.750000</ele>
                <time>2017-07-29T06:13:54Z</time>
            </trkpt>
            <trkpt lon="101.347566" lat="13.716540">
                <ele>9.270000</ele>
                <time>2017-07-29T06:14:09Z</time>
            </trkpt>
            <trkpt lon="101.347460" lat="13.716530">
                <ele>10.230000</ele>
                <time>2017-07-29T06:14:17Z</time>
            </trkpt>
            <trkpt lon="101.347304" lat="13.716514">
                <ele>10.230000</ele>
                <time>2017-07-29T06:14:29Z</time>
            </trkpt>
            <trkpt lon="101.346763" lat="13.716480">
                <ele>10.710000</ele>
                <time>2017-07-29T06:14:48Z</time>
            </trkpt>
            <trkpt lon="101.346482" lat="13.716463">
                <ele>10.230000</ele>
                <time>2017-07-29T06:14:59Z</time>
            </trkpt>
            <trkpt lon="101.346466" lat="13.716454">
                <ele>10.230000</ele>
                <time>2017-07-29T06:15:00Z</time>
            </trkpt>
            <trkpt lon="101.346459" lat="13.716440">
                <ele>10.230000</ele>
                <time>2017-07-29T06:15:01Z</time>
            </trkpt>
            <trkpt lon="101.346455" lat="13.716425">
                <ele>10.230000</ele>
                <time>2017-07-29T06:15:02Z</time>
            </trkpt>
            <trkpt lon="101.346454" lat="13.716410">
                <ele>9.750000</ele>
                <time>2017-07-29T06:15:03Z</time>
            </trkpt>
            <trkpt lon="101.346454" lat="13.716389">
                <ele>9.750000</ele>
                <time>2017-07-29T06:15:04Z</time>
            </trkpt>
            <trkpt lon="101.346454" lat="13.716368">
                <ele>10.230000</ele>
                <time>2017-07-29T06:15:05Z</time>
            </trkpt>
            <trkpt lon="101.346456" lat="13.716345">
                <ele>10.230000</ele>
                <time>2017-07-29T06:15:06Z</time>
            </trkpt>
            <trkpt lon="101.346479" lat="13.716120">
                <ele>10.230000</ele>
                <time>2017-07-29T06:15:17Z</time>
            </trkpt>
            <trkpt lon="101.346552" lat="13.715891">
                <ele>9.750000</ele>
                <time>2017-07-29T06:15:30Z</time>
            </trkpt>
            <trkpt lon="101.346629" lat="13.715596">
                <ele>9.270000</ele>
                <time>2017-07-29T06:15:44Z</time>
            </trkpt>
            <trkpt lon="101.346632" lat="13.715321">
                <ele>8.790000</ele>
                <time>2017-07-29T06:15:57Z</time>
            </trkpt>
            <trkpt lon="101.346579" lat="13.715001">
                <ele>8.790000</ele>
                <time>2017-07-29T06:16:10Z</time>
            </trkpt>
            <trkpt lon="101.346554" lat="13.714585">
                <ele>9.270000</ele>
                <time>2017-07-29T06:16:25Z</time>
            </trkpt>
            <trkpt lon="101.346569" lat="13.714151">
                <ele>8.790000</ele>
                <time>2017-07-29T06:16:39Z</time>
            </trkpt>
            <trkpt lon="101.346657" lat="13.713831">
                <ele>8.790000</ele>
                <time>2017-07-29T06:16:48Z</time>
            </trkpt>
            <trkpt lon="101.346713" lat="13.713584">
                <ele>8.790000</ele>
                <time>2017-07-29T06:16:55Z</time>
            </trkpt>
            <trkpt lon="101.346741" lat="13.713562">
                <ele>8.790000</ele>
                <time>2017-07-29T06:16:56Z</time>
            </trkpt>
            <trkpt lon="101.346773" lat="13.713549">
                <ele>8.790000</ele>
                <time>2017-07-29T06:16:57Z</time>
            </trkpt>
            <trkpt lon="101.346807" lat="13.713541">
                <ele>8.790000</ele>
                <time>2017-07-29T06:16:58Z</time>
            </trkpt>
            <trkpt lon="101.346842" lat="13.713534">
                <ele>9.270000</ele>
                <time>2017-07-29T06:16:59Z</time>
            </trkpt>
            <trkpt lon="101.347081" lat="13.713476">
                <ele>9.270000</ele>
                <time>2017-07-29T06:17:06Z</time>
            </trkpt>
            <trkpt lon="101.347119" lat="13.713147">
                <ele>7.830000</ele>
                <time>2017-07-29T06:17:17Z</time>
            </trkpt>
            <trkpt lon="101.347141" lat="13.712557">
                <ele>7.350000</ele>
                <time>2017-07-29T06:17:33Z</time>
            </trkpt>
            <trkpt lon="101.347136" lat="13.712125">
                <ele>6.870000</ele>
                <time>2017-07-29T06:17:46Z</time>
            </trkpt>
            <trkpt lon="101.347141" lat="13.711757">
                <ele>7.350000</ele>
                <time>2017-07-29T06:17:58Z</time>
            </trkpt>
            <trkpt lon="101.347143" lat="13.711594">
                <ele>7.350000</ele>
                <time>2017-07-29T06:18:04Z</time>
            </trkpt>
            <trkpt lon="101.347155" lat="13.711568">
                <ele>7.350000</ele>
                <time>2017-07-29T06:18:05Z</time>
            </trkpt>
            <trkpt lon="101.347217" lat="13.711347">
                <ele>7.350000</ele>
                <time>2017-07-29T06:18:13Z</time>
            </trkpt>
            <trkpt lon="101.347386" lat="13.711338">
                <ele>7.350000</ele>
                <time>2017-07-29T06:18:19Z</time>
            </trkpt>
            <trkpt lon="101.347527" lat="13.711426">
                <ele>7.830000</ele>
                <time>2017-07-29T06:18:23Z</time>
            </trkpt>
            <trkpt lon="101.347643" lat="13.711491">
                <ele>7.830000</ele>
                <time>2017-07-29T06:18:26Z</time>
            </trkpt>
            <trkpt lon="101.348501" lat="13.711655">
                <ele>9.750000</ele>
                <time>2017-07-29T06:18:44Z</time>
            </trkpt>
            <trkpt lon="101.348658" lat="13.711671">
                <ele>10.230000</ele>
                <time>2017-07-29T06:18:47Z</time>
            </trkpt>
            <trkpt lon="101.348933" lat="13.711820">
                <ele>10.230000</ele>
                <time>2017-07-29T06:18:53Z</time>
            </trkpt>
            <trkpt lon="101.349653" lat="13.712481">
                <ele>10.230000</ele>
                <time>2017-07-29T06:19:12Z</time>
            </trkpt>
            <trkpt lon="101.349900" lat="13.712689">
                <ele>9.750000</ele>
                <time>2017-07-29T06:19:18Z</time>
            </trkpt>
            <trkpt lon="101.350482" lat="13.712855">
                <ele>9.750000</ele>
                <time>2017-07-29T06:19:29Z</time>
            </trkpt>
            <trkpt lon="101.350694" lat="13.712823">
                <ele>9.750000</ele>
                <time>2017-07-29T06:19:33Z</time>
            </trkpt>
            <trkpt lon="101.351175" lat="13.712573">
                <ele>9.750000</ele>
                <time>2017-07-29T06:19:43Z</time>
            </trkpt>
            <trkpt lon="101.351462" lat="13.712567">
                <ele>10.710000</ele>
                <time>2017-07-29T06:19:49Z</time>
            </trkpt>
            <trkpt lon="101.352237" lat="13.712843">
                <ele>8.790000</ele>
                <time>2017-07-29T06:20:04Z</time>
            </trkpt>
            <trkpt lon="101.352592" lat="13.712743">
                <ele>8.790000</ele>
                <time>2017-07-29T06:20:12Z</time>
            </trkpt>
            <trkpt lon="101.352675" lat="13.712619">
                <ele>8.790000</ele>
                <time>2017-07-29T06:20:15Z</time>
            </trkpt>
            <trkpt lon="101.353049" lat="13.712475">
                <ele>9.270000</ele>
                <time>2017-07-29T06:20:23Z</time>
            </trkpt>
            <trkpt lon="101.353243" lat="13.712486">
                <ele>9.270000</ele>
                <time>2017-07-29T06:20:27Z</time>
            </trkpt>
            <trkpt lon="101.353371" lat="13.712527">
                <ele>9.270000</ele>
                <time>2017-07-29T06:20:30Z</time>
            </trkpt>
            <trkpt lon="101.353393" lat="13.712555">
                <ele>9.270000</ele>
                <time>2017-07-29T06:20:31Z</time>
            </trkpt>
            <trkpt lon="101.353406" lat="13.712581">
                <ele>9.750000</ele>
                <time>2017-07-29T06:20:32Z</time>
            </trkpt>
            <trkpt lon="101.353423" lat="13.712617">
                <ele>9.750000</ele>
                <time>2017-07-29T06:20:34Z</time>
            </trkpt>
            <trkpt lon="101.353416" lat="13.712632">
                <ele>9.270000</ele>
                <time>2017-07-29T06:20:35Z</time>
            </trkpt>
            <trkpt lon="101.353404" lat="13.712635">
                <ele>9.270000</ele>
                <time>2017-07-29T06:20:36Z</time>
            </trkpt>
            <trkpt lon="101.353393" lat="13.712615">
                <ele>9.270000</ele>
                <time>2017-07-29T06:20:38Z</time>
            </trkpt>
            <trkpt lon="101.353403" lat="13.712592">
                <ele>8.790000</ele>
                <time>2017-07-29T06:20:39Z</time>
            </trkpt>
            <trkpt lon="101.353411" lat="13.712574">
                <ele>8.790000</ele>
                <time>2017-07-29T06:20:40Z</time>
            </trkpt>
            <trkpt lon="101.353419" lat="13.712552">
                <ele>8.790000</ele>
                <time>2017-07-29T06:20:41Z</time>
            </trkpt>
            <trkpt lon="101.353424" lat="13.712525">
                <ele>8.790000</ele>
                <time>2017-07-29T06:20:42Z</time>
            </trkpt>
            <trkpt lon="101.353424" lat="13.712493">
                <ele>8.790000</ele>
                <time>2017-07-29T06:20:43Z</time>
            </trkpt>
            <trkpt lon="101.353424" lat="13.712459">
                <ele>8.790000</ele>
                <time>2017-07-29T06:20:44Z</time>
            </trkpt>
            <trkpt lon="101.353423" lat="13.712420">
                <ele>8.790000</ele>
                <time>2017-07-29T06:20:45Z</time>
            </trkpt>
            <trkpt lon="101.353397" lat="13.711619">
                <ele>8.790000</ele>
                <time>2017-07-29T06:21:03Z</time>
            </trkpt>
            <trkpt lon="101.353389" lat="13.711275">
                <ele>8.790000</ele>
                <time>2017-07-29T06:21:10Z</time>
            </trkpt>
            <trkpt lon="101.353345" lat="13.710322">
                <ele>9.750000</ele>
                <time>2017-07-29T06:21:29Z</time>
            </trkpt>
            <trkpt lon="101.353306" lat="13.709858">
                <ele>8.310000</ele>
                <time>2017-07-29T06:21:39Z</time>
            </trkpt>
            <trkpt lon="101.353305" lat="13.709811">
                <ele>8.310000</ele>
                <time>2017-07-29T06:21:40Z</time>
            </trkpt>
            <trkpt lon="101.353242" lat="13.708999">
                <ele>8.310000</ele>
                <time>2017-07-29T06:21:57Z</time>
            </trkpt>
            <trkpt lon="101.353141" lat="13.707971">
                <ele>7.350000</ele>
                <time>2017-07-29T06:22:18Z</time>
            </trkpt>
            <trkpt lon="101.353055" lat="13.707116">
                <ele>8.310000</ele>
                <time>2017-07-29T06:22:37Z</time>
            </trkpt>
            <trkpt lon="101.352974" lat="13.706267">
                <ele>7.350000</ele>
                <time>2017-07-29T06:22:56Z</time>
            </trkpt>
            <trkpt lon="101.352908" lat="13.705579">
                <ele>6.870000</ele>
                <time>2017-07-29T06:23:14Z</time>
            </trkpt>
            <trkpt lon="101.352904" lat="13.705319">
                <ele>7.830000</ele>
                <time>2017-07-29T06:23:26Z</time>
            </trkpt>
            <trkpt lon="101.352948" lat="13.705034">
                <ele>8.310000</ele>
                <time>2017-07-29T06:23:34Z</time>
            </trkpt>
            <trkpt lon="101.352619" lat="13.704872">
                <ele>8.790000</ele>
                <time>2017-07-29T06:23:44Z</time>
            </trkpt>
            <trkpt lon="101.352547" lat="13.704828">
                <ele>8.790000</ele>
                <time>2017-07-29T06:23:46Z</time>
            </trkpt>
            <trkpt lon="101.352387" lat="13.704691">
                <ele>9.270000</ele>
                <time>2017-07-29T06:23:51Z</time>
            </trkpt>
            <trkpt lon="101.352052" lat="13.704295">
                <ele>8.790000</ele>
                <time>2017-07-29T06:24:03Z</time>
            </trkpt>
            <trkpt lon="101.351558" lat="13.703741">
                <ele>10.230000</ele>
                <time>2017-07-29T06:24:21Z</time>
            </trkpt>
            <trkpt lon="101.351523" lat="13.703687">
                <ele>10.230000</ele>
                <time>2017-07-29T06:24:23Z</time>
            </trkpt>
            <trkpt lon="101.351534" lat="13.703625">
                <ele>9.750000</ele>
                <time>2017-07-29T06:24:25Z</time>
            </trkpt>
            <trkpt lon="101.351555" lat="13.703592">
                <ele>9.750000</ele>
                <time>2017-07-29T06:24:26Z</time>
            </trkpt>
            <trkpt lon="101.351587" lat="13.703550">
                <ele>9.270000</ele>
                <time>2017-07-29T06:24:27Z</time>
            </trkpt>
            <trkpt lon="101.351613" lat="13.703513">
                <ele>9.270000</ele>
                <time>2017-07-29T06:24:28Z</time>
            </trkpt>
            <trkpt lon="101.352099" lat="13.702794">
                <ele>8.790000</ele>
                <time>2017-07-29T06:24:46Z</time>
            </trkpt>
            <trkpt lon="101.352373" lat="13.702320">
                <ele>8.310000</ele>
                <time>2017-07-29T06:24:57Z</time>
            </trkpt>
            <trkpt lon="101.352407" lat="13.702283">
                <ele>8.310000</ele>
                <time>2017-07-29T06:24:58Z</time>
            </trkpt>
            <trkpt lon="101.352475" lat="13.702208">
                <ele>8.310000</ele>
                <time>2017-07-29T06:25:00Z</time>
            </trkpt>
            <trkpt lon="101.352502" lat="13.702165">
                <ele>8.310000</ele>
                <time>2017-07-29T06:25:01Z</time>
            </trkpt>
            <trkpt lon="101.352518" lat="13.702123">
                <ele>8.310000</ele>
                <time>2017-07-29T06:25:02Z</time>
            </trkpt>
            <trkpt lon="101.352529" lat="13.702076">
                <ele>8.310000</ele>
                <time>2017-07-29T06:25:03Z</time>
            </trkpt>
            <trkpt lon="101.352536" lat="13.702029">
                <ele>7.830000</ele>
                <time>2017-07-29T06:25:04Z</time>
            </trkpt>
            <trkpt lon="101.352546" lat="13.701940">
                <ele>7.830000</ele>
                <time>2017-07-29T06:25:06Z</time>
            </trkpt>
            <trkpt lon="101.352556" lat="13.701898">
                <ele>7.830000</ele>
                <time>2017-07-29T06:25:07Z</time>
            </trkpt>
            <trkpt lon="101.352571" lat="13.701853">
                <ele>7.350000</ele>
                <time>2017-07-29T06:25:08Z</time>
            </trkpt>
            <trkpt lon="101.352591" lat="13.701808">
                <ele>7.350000</ele>
                <time>2017-07-29T06:25:09Z</time>
            </trkpt>
            <trkpt lon="101.352617" lat="13.701765">
                <ele>7.350000</ele>
                <time>2017-07-29T06:25:10Z</time>
            </trkpt>
            <trkpt lon="101.352647" lat="13.701724">
                <ele>7.350000</ele>
                <time>2017-07-29T06:25:11Z</time>
            </trkpt>
            <trkpt lon="101.352682" lat="13.701688">
                <ele>7.350000</ele>
                <time>2017-07-29T06:25:12Z</time>
            </trkpt>
            <trkpt lon="101.352721" lat="13.701653">
                <ele>7.350000</ele>
                <time>2017-07-29T06:25:13Z</time>
            </trkpt>
            <trkpt lon="101.352757" lat="13.701623">
                <ele>7.350000</ele>
                <time>2017-07-29T06:25:14Z</time>
            </trkpt>
            <trkpt lon="101.352999" lat="13.701441">
                <ele>6.870000</ele>
                <time>2017-07-29T06:25:20Z</time>
            </trkpt>
            <trkpt lon="101.353035" lat="13.701401">
                <ele>6.870000</ele>
                <time>2017-07-29T06:25:21Z</time>
            </trkpt>
            <trkpt lon="101.353068" lat="13.701358">
                <ele>6.870000</ele>
                <time>2017-07-29T06:25:22Z</time>
            </trkpt>
            <trkpt lon="101.353090" lat="13.701312">
                <ele>6.870000</ele>
                <time>2017-07-29T06:25:23Z</time>
            </trkpt>
            <trkpt lon="101.353103" lat="13.701260">
                <ele>6.870000</ele>
                <time>2017-07-29T06:25:24Z</time>
            </trkpt>
            <trkpt lon="101.353105" lat="13.701215">
                <ele>6.870000</ele>
                <time>2017-07-29T06:25:25Z</time>
            </trkpt>
            <trkpt lon="101.353095" lat="13.701168">
                <ele>6.870000</ele>
                <time>2017-07-29T06:25:26Z</time>
            </trkpt>
            <trkpt lon="101.353085" lat="13.701127">
                <ele>6.870000</ele>
                <time>2017-07-29T06:25:27Z</time>
            </trkpt>
            <trkpt lon="101.353075" lat="13.701078">
                <ele>6.870000</ele>
                <time>2017-07-29T06:25:28Z</time>
            </trkpt>
            <trkpt lon="101.353045" lat="13.700916">
                <ele>6.390000</ele>
                <time>2017-07-29T06:25:32Z</time>
            </trkpt>
            <trkpt lon="101.353046" lat="13.700881">
                <ele>6.390000</ele>
                <time>2017-07-29T06:25:33Z</time>
            </trkpt>
            <trkpt lon="101.353053" lat="13.700841">
                <ele>6.390000</ele>
                <time>2017-07-29T06:25:34Z</time>
            </trkpt>
            <trkpt lon="101.353069" lat="13.700802">
                <ele>6.390000</ele>
                <time>2017-07-29T06:25:35Z</time>
            </trkpt>
            <trkpt lon="101.353088" lat="13.700762">
                <ele>5.910000</ele>
                <time>2017-07-29T06:25:36Z</time>
            </trkpt>
            <trkpt lon="101.353297" lat="13.700338">
                <ele>6.390000</ele>
                <time>2017-07-29T06:25:46Z</time>
            </trkpt>
            <trkpt lon="101.353339" lat="13.700203">
                <ele>6.390000</ele>
                <time>2017-07-29T06:25:49Z</time>
            </trkpt>
            <trkpt lon="101.353404" lat="13.699562">
                <ele>7.350000</ele>
                <time>2017-07-29T06:26:04Z</time>
            </trkpt>
            <trkpt lon="101.353445" lat="13.698935">
                <ele>8.790000</ele>
                <time>2017-07-29T06:26:17Z</time>
            </trkpt>
            <trkpt lon="101.353463" lat="13.698895">
                <ele>8.790000</ele>
                <time>2017-07-29T06:26:18Z</time>
            </trkpt>
            <trkpt lon="101.353488" lat="13.698857">
                <ele>8.790000</ele>
                <time>2017-07-29T06:26:19Z</time>
            </trkpt>
            <trkpt lon="101.353519" lat="13.698818">
                <ele>8.790000</ele>
                <time>2017-07-29T06:26:20Z</time>
            </trkpt>
            <trkpt lon="101.353552" lat="13.698781">
                <ele>9.270000</ele>
                <time>2017-07-29T06:26:21Z</time>
            </trkpt>
            <trkpt lon="101.354217" lat="13.698209">
                <ele>10.230000</ele>
                <time>2017-07-29T06:26:39Z</time>
            </trkpt>
            <trkpt lon="101.354260" lat="13.698201">
                <ele>10.230000</ele>
                <time>2017-07-29T06:26:40Z</time>
            </trkpt>
            <trkpt lon="101.354307" lat="13.698203">
                <ele>10.230000</ele>
                <time>2017-07-29T06:26:41Z</time>
            </trkpt>
            <trkpt lon="101.354349" lat="13.698213">
                <ele>10.230000</ele>
                <time>2017-07-29T06:26:42Z</time>
            </trkpt>
            <trkpt lon="101.354394" lat="13.698232">
                <ele>10.230000</ele>
                <time>2017-07-29T06:26:43Z</time>
            </trkpt>
            <trkpt lon="101.354429" lat="13.698249">
                <ele>10.710000</ele>
                <time>2017-07-29T06:26:44Z</time>
            </trkpt>
            <trkpt lon="101.354609" lat="13.698333">
                <ele>10.710000</ele>
                <time>2017-07-29T06:26:48Z</time>
            </trkpt>
            <trkpt lon="101.354658" lat="13.698347">
                <ele>10.710000</ele>
                <time>2017-07-29T06:26:49Z</time>
            </trkpt>
            <trkpt lon="101.354709" lat="13.698355">
                <ele>10.710000</ele>
                <time>2017-07-29T06:26:50Z</time>
            </trkpt>
            <trkpt lon="101.354760" lat="13.698360">
                <ele>10.230000</ele>
                <time>2017-07-29T06:26:51Z</time>
            </trkpt>
            <trkpt lon="101.354809" lat="13.698363">
                <ele>10.230000</ele>
                <time>2017-07-29T06:26:52Z</time>
            </trkpt>
            <trkpt lon="101.355004" lat="13.698352">
                <ele>9.750000</ele>
                <time>2017-07-29T06:26:56Z</time>
            </trkpt>
            <trkpt lon="101.355053" lat="13.698343">
                <ele>9.270000</ele>
                <time>2017-07-29T06:26:57Z</time>
            </trkpt>
            <trkpt lon="101.355102" lat="13.698330">
                <ele>8.790000</ele>
                <time>2017-07-29T06:26:58Z</time>
            </trkpt>
            <trkpt lon="101.355149" lat="13.698307">
                <ele>8.790000</ele>
                <time>2017-07-29T06:26:59Z</time>
            </trkpt>
            <trkpt lon="101.355186" lat="13.698275">
                <ele>8.310000</ele>
                <time>2017-07-29T06:27:00Z</time>
            </trkpt>
            <trkpt lon="101.355216" lat="13.698240">
                <ele>8.310000</ele>
                <time>2017-07-29T06:27:01Z</time>
            </trkpt>
            <trkpt lon="101.355234" lat="13.698210">
                <ele>8.310000</ele>
                <time>2017-07-29T06:27:02Z</time>
            </trkpt>
            <trkpt lon="101.355247" lat="13.698179">
                <ele>8.310000</ele>
                <time>2017-07-29T06:27:03Z</time>
            </trkpt>
            <trkpt lon="101.355255" lat="13.698153">
                <ele>8.310000</ele>
                <time>2017-07-29T06:27:04Z</time>
            </trkpt>
            <trkpt lon="101.355219" lat="13.698084">
                <ele>8.310000</ele>
                <time>2017-07-29T06:27:07Z</time>
            </trkpt>
            <trkpt lon="101.355152" lat="13.698009">
                <ele>8.310000</ele>
                <time>2017-07-29T06:27:10Z</time>
            </trkpt>
            <trkpt lon="101.355051" lat="13.697559">
                <ele>6.870000</ele>
                <time>2017-07-29T06:27:22Z</time>
            </trkpt>
            <trkpt lon="101.354890" lat="13.697005">
                <ele>7.830000</ele>
                <time>2017-07-29T06:27:37Z</time>
            </trkpt>
            <trkpt lon="101.354869" lat="13.696664">
                <ele>11.670000</ele>
                <time>2017-07-29T06:27:49Z</time>
            </trkpt>
            <trkpt lon="101.354804" lat="13.696307">
                <ele>10.710000</ele>
                <time>2017-07-29T06:28:03Z</time>
            </trkpt>
            <trkpt lon="101.354800" lat="13.696291">
                <ele>10.710000</ele>
                <time>2017-07-29T06:28:04Z</time>
            </trkpt>
            <trkpt lon="101.354703" lat="13.696107">
                <ele>9.750000</ele>
                <time>2017-07-29T06:28:17Z</time>
            </trkpt>
            <trkpt lon="101.354671" lat="13.695990">
                <ele>9.750000</ele>
                <time>2017-07-29T06:28:29Z</time>
            </trkpt>
            <trkpt lon="101.354650" lat="13.695955">
                <ele>11.670000</ele>
                <time>2017-07-29T06:28:35Z</time>
            </trkpt>
            <trkpt lon="101.354585" lat="13.695934">
                <ele>12.630000</ele>
                <time>2017-07-29T06:28:40Z</time>
            </trkpt>
            <trkpt lon="101.354234" lat="13.695888">
                <ele>11.670000</ele>
                <time>2017-07-29T06:28:58Z</time>
            </trkpt>
            <trkpt lon="101.354039" lat="13.695773">
                <ele>9.750000</ele>
                <time>2017-07-29T06:29:10Z</time>
            </trkpt>
            <trkpt lon="101.353879" lat="13.695461">
                <ele>9.750000</ele>
                <time>2017-07-29T06:29:26Z</time>
            </trkpt>
            <trkpt lon="101.353832" lat="13.695395">
                <ele>9.270000</ele>
                <time>2017-07-29T06:29:30Z</time>
            </trkpt>
            <trkpt lon="101.353803" lat="13.695276">
                <ele>8.790000</ele>
                <time>2017-07-29T06:29:35Z</time>
            </trkpt>
            <trkpt lon="101.353613" lat="13.694874">
                <ele>8.790000</ele>
                <time>2017-07-29T06:29:52Z</time>
            </trkpt>
            <trkpt lon="101.353437" lat="13.694581">
                <ele>7.350000</ele>
                <time>2017-07-29T06:30:05Z</time>
            </trkpt>
            <trkpt lon="101.353284" lat="13.694255">
                <ele>5.420000</ele>
                <time>2017-07-29T06:30:21Z</time>
            </trkpt>
            <trkpt lon="101.353036" lat="13.693930">
                <ele>8.310000</ele>
                <time>2017-07-29T06:30:36Z</time>
            </trkpt>
            <trkpt lon="101.352784" lat="13.693559">
                <ele>10.710000</ele>
                <time>2017-07-29T06:30:52Z</time>
            </trkpt>
            <trkpt lon="101.352705" lat="13.693456">
                <ele>11.670000</ele>
                <time>2017-07-29T06:30:57Z</time>
            </trkpt>
            <trkpt lon="101.352619" lat="13.693443">
                <ele>12.150000</ele>
                <time>2017-07-29T06:31:01Z</time>
            </trkpt>
            <trkpt lon="101.352161" lat="13.693609">
                <ele>12.150000</ele>
                <time>2017-07-29T06:31:17Z</time>
            </trkpt>
            <trkpt lon="101.351944" lat="13.693597">
                <ele>12.630000</ele>
                <time>2017-07-29T06:31:26Z</time>
            </trkpt>
            <trkpt lon="101.351697" lat="13.693571">
                <ele>14.080000</ele>
                <time>2017-07-29T06:31:36Z</time>
            </trkpt>
            <trkpt lon="101.351584" lat="13.693433">
                <ele>13.600000</ele>
                <time>2017-07-29T06:31:44Z</time>
            </trkpt>
            <trkpt lon="101.351379" lat="13.693110">
                <ele>12.630000</ele>
                <time>2017-07-29T06:31:58Z</time>
            </trkpt>
            <trkpt lon="101.351009" lat="13.693100">
                <ele>12.630000</ele>
                <time>2017-07-29T06:32:10Z</time>
            </trkpt>
            <trkpt lon="101.350823" lat="13.693132">
                <ele>12.150000</ele>
                <time>2017-07-29T06:32:16Z</time>
            </trkpt>
            <trkpt lon="101.350526" lat="13.692866">
                <ele>13.120000</ele>
                <time>2017-07-29T06:32:29Z</time>
            </trkpt>
            <trkpt lon="101.350666" lat="13.692720">
                <ele>13.120000</ele>
                <time>2017-07-29T06:32:37Z</time>
            </trkpt>
            <trkpt lon="101.350691" lat="13.692645">
                <ele>13.600000</ele>
                <time>2017-07-29T06:32:40Z</time>
            </trkpt>
            <trkpt lon="101.350922" lat="13.692277">
                <ele>12.630000</ele>
                <time>2017-07-29T06:32:54Z</time>
            </trkpt>
            <trkpt lon="101.351245" lat="13.692037">
                <ele>13.600000</ele>
                <time>2017-07-29T06:33:06Z</time>
            </trkpt>
            <trkpt lon="101.351257" lat="13.691958">
                <ele>15.040000</ele>
                <time>2017-07-29T06:33:12Z</time>
            </trkpt>
            <trkpt lon="101.351291" lat="13.691711">
                <ele>14.080000</ele>
                <time>2017-07-29T06:33:25Z</time>
            </trkpt>
            <trkpt lon="101.351328" lat="13.691576">
                <ele>14.560000</ele>
                <time>2017-07-29T06:33:31Z</time>
            </trkpt>
            <trkpt lon="101.351372" lat="13.691460">
                <ele>15.520000</ele>
                <time>2017-07-29T06:33:40Z</time>
            </trkpt>
            <trkpt lon="101.351376" lat="13.691446">
                <ele>15.520000</ele>
                <time>2017-07-29T06:33:41Z</time>
            </trkpt>
            <trkpt lon="101.351377" lat="13.691430">
                <ele>16.000000</ele>
                <time>2017-07-29T06:33:42Z</time>
            </trkpt>
            <trkpt lon="101.351379" lat="13.691402">
                <ele>16.000000</ele>
                <time>2017-07-29T06:33:44Z</time>
            </trkpt>
            <trkpt lon="101.351392" lat="13.691388">
                <ele>16.000000</ele>
                <time>2017-07-29T06:33:45Z</time>
            </trkpt>
            <trkpt lon="101.351407" lat="13.691375">
                <ele>16.000000</ele>
                <time>2017-07-29T06:33:46Z</time>
            </trkpt>
            <trkpt lon="101.351421" lat="13.691360">
                <ele>16.480000</ele>
                <time>2017-07-29T06:33:47Z</time>
            </trkpt>
            <trkpt lon="101.351431" lat="13.691345">
                <ele>16.480000</ele>
                <time>2017-07-29T06:33:48Z</time>
            </trkpt>
            <trkpt lon="101.351440" lat="13.691329">
                <ele>16.480000</ele>
                <time>2017-07-29T06:33:49Z</time>
            </trkpt>
            <trkpt lon="101.351452" lat="13.691312">
                <ele>16.480000</ele>
                <time>2017-07-29T06:33:50Z</time>
            </trkpt>
            <trkpt lon="101.351462" lat="13.691293">
                <ele>16.480000</ele>
                <time>2017-07-29T06:33:51Z</time>
            </trkpt>
            <trkpt lon="101.351470" lat="13.691272">
                <ele>16.480000</ele>
                <time>2017-07-29T06:33:52Z</time>
            </trkpt>
            <trkpt lon="101.351477" lat="13.691250">
                <ele>16.480000</ele>
                <time>2017-07-29T06:33:53Z</time>
            </trkpt>
            <trkpt lon="101.351594" lat="13.690829">
                <ele>15.520000</ele>
                <time>2017-07-29T06:34:07Z</time>
            </trkpt>
            <trkpt lon="101.351661" lat="13.690335">
                <ele>16.000000</ele>
                <time>2017-07-29T06:34:21Z</time>
            </trkpt>
            <trkpt lon="101.352004" lat="13.689963">
                <ele>15.520000</ele>
                <time>2017-07-29T06:34:35Z</time>
            </trkpt>
            <trkpt lon="101.352486" lat="13.689963">
                <ele>16.000000</ele>
                <time>2017-07-29T06:34:47Z</time>
            </trkpt>
            <trkpt lon="101.352676" lat="13.689997">
                <ele>16.480000</ele>
                <time>2017-07-29T06:34:51Z</time>
            </trkpt>
            <trkpt lon="101.352723" lat="13.689997">
                <ele>16.480000</ele>
                <time>2017-07-29T06:34:52Z</time>
            </trkpt>
            <trkpt lon="101.352769" lat="13.689997">
                <ele>16.480000</ele>
                <time>2017-07-29T06:34:53Z</time>
            </trkpt>
            <trkpt lon="101.352814" lat="13.689999">
                <ele>16.960000</ele>
                <time>2017-07-29T06:34:54Z</time>
            </trkpt>
            <trkpt lon="101.352857" lat="13.690003">
                <ele>16.960000</ele>
                <time>2017-07-29T06:34:55Z</time>
            </trkpt>
            <trkpt lon="101.353194" lat="13.690062">
                <ele>16.960000</ele>
                <time>2017-07-29T06:35:03Z</time>
            </trkpt>
            <trkpt lon="101.353250" lat="13.690063">
                <ele>16.960000</ele>
                <time>2017-07-29T06:35:04Z</time>
            </trkpt>
            <trkpt lon="101.353544" lat="13.690032">
                <ele>16.960000</ele>
                <time>2017-07-29T06:35:10Z</time>
            </trkpt>
            <trkpt lon="101.353635" lat="13.690005">
                <ele>16.960000</ele>
                <time>2017-07-29T06:35:12Z</time>
            </trkpt>
            <trkpt lon="101.353672" lat="13.689983">
                <ele>16.960000</ele>
                <time>2017-07-29T06:35:13Z</time>
            </trkpt>
            <trkpt lon="101.353702" lat="13.689954">
                <ele>17.440000</ele>
                <time>2017-07-29T06:35:14Z</time>
            </trkpt>
            <trkpt lon="101.353724" lat="13.689921">
                <ele>17.440000</ele>
                <time>2017-07-29T06:35:15Z</time>
            </trkpt>
            <trkpt lon="101.353743" lat="13.689885">
                <ele>17.440000</ele>
                <time>2017-07-29T06:35:16Z</time>
            </trkpt>
            <trkpt lon="101.353755" lat="13.689847">
                <ele>17.440000</ele>
                <time>2017-07-29T06:35:17Z</time>
            </trkpt>
            <trkpt lon="101.353758" lat="13.689806">
                <ele>17.440000</ele>
                <time>2017-07-29T06:35:18Z</time>
            </trkpt>
            <trkpt lon="101.353756" lat="13.689762">
                <ele>17.440000</ele>
                <time>2017-07-29T06:35:19Z</time>
            </trkpt>
            <trkpt lon="101.353798" lat="13.689116">
                <ele>16.000000</ele>
                <time>2017-07-29T06:35:35Z</time>
            </trkpt>
            <trkpt lon="101.353840" lat="13.688617">
                <ele>15.040000</ele>
                <time>2017-07-29T06:35:48Z</time>
            </trkpt>
            <trkpt lon="101.353739" lat="13.688013">
                <ele>14.560000</ele>
                <time>2017-07-29T06:36:04Z</time>
            </trkpt>
            <trkpt lon="101.353567" lat="13.687505">
                <ele>16.000000</ele>
                <time>2017-07-29T06:36:21Z</time>
            </trkpt>
            <trkpt lon="101.353303" lat="13.687036">
                <ele>16.480000</ele>
                <time>2017-07-29T06:36:38Z</time>
            </trkpt>
            <trkpt lon="101.352997" lat="13.686493">
                <ele>17.440000</ele>
                <time>2017-07-29T06:36:56Z</time>
            </trkpt>
            <trkpt lon="101.352656" lat="13.686109">
                <ele>16.480000</ele>
                <time>2017-07-29T06:37:10Z</time>
            </trkpt>
            <trkpt lon="101.352475" lat="13.685721">
                <ele>17.440000</ele>
                <time>2017-07-29T06:37:25Z</time>
            </trkpt>
            <trkpt lon="101.352447" lat="13.685585">
                <ele>17.440000</ele>
                <time>2017-07-29T06:37:34Z</time>
            </trkpt>
            <trkpt lon="101.352438" lat="13.685578">
                <ele>17.440000</ele>
                <time>2017-07-29T06:37:35Z</time>
            </trkpt>
            <trkpt lon="101.352423" lat="13.685570">
                <ele>17.440000</ele>
                <time>2017-07-29T06:37:36Z</time>
            </trkpt>
            <trkpt lon="101.352080" lat="13.685471">
                <ele>19.360000</ele>
                <time>2017-07-29T06:37:48Z</time>
            </trkpt>
            <trkpt lon="101.351788" lat="13.685300">
                <ele>21.290000</ele>
                <time>2017-07-29T06:37:57Z</time>
            </trkpt>
            <trkpt lon="101.351749" lat="13.685202">
                <ele>20.810000</ele>
                <time>2017-07-29T06:38:00Z</time>
            </trkpt>
            <trkpt lon="101.351769" lat="13.685028">
                <ele>19.360000</ele>
                <time>2017-07-29T06:38:04Z</time>
            </trkpt>
            <trkpt lon="101.351799" lat="13.684938">
                <ele>18.400000</ele>
                <time>2017-07-29T06:38:06Z</time>
            </trkpt>
            <trkpt lon="101.351794" lat="13.684629">
                <ele>16.480000</ele>
                <time>2017-07-29T06:38:12Z</time>
            </trkpt>
            <trkpt lon="101.351738" lat="13.684485">
                <ele>16.000000</ele>
                <time>2017-07-29T06:38:15Z</time>
            </trkpt>
            <trkpt lon="101.351722" lat="13.684305">
                <ele>16.000000</ele>
                <time>2017-07-29T06:38:19Z</time>
            </trkpt>
            <trkpt lon="101.351752" lat="13.684149">
                <ele>15.520000</ele>
                <time>2017-07-29T06:38:23Z</time>
            </trkpt>
            <trkpt lon="101.351816" lat="13.683943">
                <ele>15.520000</ele>
                <time>2017-07-29T06:38:29Z</time>
            </trkpt>
            <trkpt lon="101.351977" lat="13.683677">
                <ele>17.440000</ele>
                <time>2017-07-29T06:38:42Z</time>
            </trkpt>
            <trkpt lon="101.352068" lat="13.683572">
                <ele>16.960000</ele>
                <time>2017-07-29T06:38:46Z</time>
            </trkpt>
            <trkpt lon="101.352061" lat="13.683275">
                <ele>15.040000</ele>
                <time>2017-07-29T06:38:55Z</time>
            </trkpt>
            <trkpt lon="101.351997" lat="13.683064">
                <ele>15.040000</ele>
                <time>2017-07-29T06:39:05Z</time>
            </trkpt>
            <trkpt lon="101.351990" lat="13.682958">
                <ele>14.560000</ele>
                <time>2017-07-29T06:39:12Z</time>
            </trkpt>
            <trkpt lon="101.352026" lat="13.682692">
                <ele>14.080000</ele>
                <time>2017-07-29T06:39:27Z</time>
            </trkpt>
            <trkpt lon="101.352091" lat="13.682302">
                <ele>12.630000</ele>
                <time>2017-07-29T06:39:41Z</time>
            </trkpt>
            <trkpt lon="101.352105" lat="13.682122">
                <ele>11.670000</ele>
                <time>2017-07-29T06:39:53Z</time>
            </trkpt>
            <trkpt lon="101.352105" lat="13.682091">
                <ele>13.120000</ele>
                <time>2017-07-29T06:40:11Z</time>
            </trkpt>
            <trkpt lon="101.352139" lat="13.682040">
                <ele>13.120000</ele>
                <time>2017-07-29T06:40:28Z</time>
            </trkpt>
            <trkpt lon="101.352148" lat="13.681957">
                <ele>13.600000</ele>
                <time>2017-07-29T06:40:42Z</time>
            </trkpt>
            <trkpt lon="101.352156" lat="13.681907">
                <ele>12.630000</ele>
                <time>2017-07-29T06:40:57Z</time>
            </trkpt>
            <trkpt lon="101.352162" lat="13.681893">
                <ele>12.630000</ele>
                <time>2017-07-29T06:41:11Z</time>
            </trkpt>
            <trkpt lon="101.352175" lat="13.681850">
                <ele>11.670000</ele>
                <time>2017-07-29T06:41:25Z</time>
            </trkpt>
            <trkpt lon="101.352162" lat="13.681813">
                <ele>12.630000</ele>
                <time>2017-07-29T06:41:36Z</time>
            </trkpt>
            <trkpt lon="101.352176" lat="13.681701">
                <ele>12.630000</ele>
                <time>2017-07-29T06:41:50Z</time>
            </trkpt>
            <trkpt lon="101.352204" lat="13.681674">
                <ele>12.630000</ele>
                <time>2017-07-29T06:41:59Z</time>
            </trkpt>
            <trkpt lon="101.352352" lat="13.681539">
                <ele>15.040000</ele>
                <time>2017-07-29T06:42:17Z</time>
            </trkpt>
            <trkpt lon="101.352354" lat="13.681457">
                <ele>15.520000</ele>
                <time>2017-07-29T06:42:26Z</time>
            </trkpt>
            <trkpt lon="101.352280" lat="13.681379">
                <ele>17.440000</ele>
                <time>2017-07-29T06:42:40Z</time>
            </trkpt>
            <trkpt lon="101.352183" lat="13.681302">
                <ele>19.360000</ele>
                <time>2017-07-29T06:42:52Z</time>
            </trkpt>
            <trkpt lon="101.352186" lat="13.681180">
                <ele>18.400000</ele>
                <time>2017-07-29T06:43:09Z</time>
            </trkpt>
            <trkpt lon="101.352171" lat="13.681128">
                <ele>18.880000</ele>
                <time>2017-07-29T06:43:30Z</time>
            </trkpt>
            <trkpt lon="101.352162" lat="13.681092">
                <ele>19.840000</ele>
                <time>2017-07-29T06:43:46Z</time>
            </trkpt>
            <trkpt lon="101.352155" lat="13.681064">
                <ele>20.320000</ele>
                <time>2017-07-29T06:44:01Z</time>
            </trkpt>
            <trkpt lon="101.352157" lat="13.681060">
                <ele>20.320000</ele>
                <time>2017-07-29T06:44:20Z</time>
            </trkpt>
            <trkpt lon="101.352128" lat="13.681049">
                <ele>22.250000</ele>
                <time>2017-07-29T06:44:32Z</time>
            </trkpt>
            <trkpt lon="101.352113" lat="13.680999">
                <ele>22.250000</ele>
                <time>2017-07-29T06:44:46Z</time>
            </trkpt>
            <trkpt lon="101.352110" lat="13.680981">
                <ele>22.250000</ele>
                <time>2017-07-29T06:44:51Z</time>
            </trkpt>
            <trkpt lon="101.352130" lat="13.680819">
                <ele>23.210000</ele>
                <time>2017-07-29T06:45:10Z</time>
            </trkpt>
            <trkpt lon="101.352116" lat="13.680782">
                <ele>24.650000</ele>
                <time>2017-07-29T06:45:23Z</time>
            </trkpt>
            <trkpt lon="101.352115" lat="13.680779">
                <ele>25.130000</ele>
                <time>2017-07-29T06:45:32Z</time>
            </trkpt>
            <trkpt lon="101.351911" lat="13.680601">
                <ele>24.650000</ele>
                <time>2017-07-29T06:45:46Z</time>
            </trkpt>
            <trkpt lon="101.352086" lat="13.680241">
                <ele>22.730000</ele>
                <time>2017-07-29T06:45:58Z</time>
            </trkpt>
            <trkpt lon="101.352415" lat="13.679696">
                <ele>22.730000</ele>
                <time>2017-07-29T06:46:15Z</time>
            </trkpt>
            <trkpt lon="101.352911" lat="13.679044">
                <ele>22.250000</ele>
                <time>2017-07-29T06:46:34Z</time>
            </trkpt>
            <trkpt lon="101.353453" lat="13.678339">
                <ele>21.770000</ele>
                <time>2017-07-29T06:46:52Z</time>
            </trkpt>
            <trkpt lon="101.353718" lat="13.677974">
                <ele>20.810000</ele>
                <time>2017-07-29T06:47:01Z</time>
            </trkpt>
            <trkpt lon="101.353986" lat="13.677369">
                <ele>19.840000</ele>
                <time>2017-07-29T06:47:14Z</time>
            </trkpt>
            <trkpt lon="101.353992" lat="13.677323">
                <ele>19.840000</ele>
                <time>2017-07-29T06:47:15Z</time>
            </trkpt>
            <trkpt lon="101.353993" lat="13.677277">
                <ele>19.840000</ele>
                <time>2017-07-29T06:47:16Z</time>
            </trkpt>
            <trkpt lon="101.353991" lat="13.677231">
                <ele>19.840000</ele>
                <time>2017-07-29T06:47:17Z</time>
            </trkpt>
            <trkpt lon="101.353986" lat="13.677185">
                <ele>19.840000</ele>
                <time>2017-07-29T06:47:18Z</time>
            </trkpt>
            <trkpt lon="101.353978" lat="13.677140">
                <ele>19.840000</ele>
                <time>2017-07-29T06:47:19Z</time>
            </trkpt>
            <trkpt lon="101.353966" lat="13.677095">
                <ele>19.840000</ele>
                <time>2017-07-29T06:47:20Z</time>
            </trkpt>
            <trkpt lon="101.353922" lat="13.676859">
                <ele>20.320000</ele>
                <time>2017-07-29T06:47:26Z</time>
            </trkpt>
            <trkpt lon="101.353964" lat="13.676563">
                <ele>19.840000</ele>
                <time>2017-07-29T06:47:33Z</time>
            </trkpt>
            <trkpt lon="101.353979" lat="13.676526">
                <ele>19.840000</ele>
                <time>2017-07-29T06:47:34Z</time>
            </trkpt>
            <trkpt lon="101.354000" lat="13.676484">
                <ele>19.840000</ele>
                <time>2017-07-29T06:47:35Z</time>
            </trkpt>
            <trkpt lon="101.354062" lat="13.676372">
                <ele>19.360000</ele>
                <time>2017-07-29T06:47:38Z</time>
            </trkpt>
            <trkpt lon="101.354064" lat="13.676326">
                <ele>19.360000</ele>
                <time>2017-07-29T06:47:39Z</time>
            </trkpt>
            <trkpt lon="101.354052" lat="13.676294">
                <ele>19.360000</ele>
                <time>2017-07-29T06:47:40Z</time>
            </trkpt>
            <trkpt lon="101.353866" lat="13.676153">
                <ele>18.400000</ele>
                <time>2017-07-29T06:47:46Z</time>
            </trkpt>
            <trkpt lon="101.353377" lat="13.675866">
                <ele>15.040000</ele>
                <time>2017-07-29T06:48:00Z</time>
            </trkpt>
            <trkpt lon="101.353188" lat="13.675757">
                <ele>14.080000</ele>
                <time>2017-07-29T06:48:05Z</time>
            </trkpt>
            <trkpt lon="101.353125" lat="13.675702">
                <ele>13.600000</ele>
                <time>2017-07-29T06:48:07Z</time>
            </trkpt>
            <trkpt lon="101.352923" lat="13.675163">
                <ele>7.350000</ele>
                <time>2017-07-29T06:48:21Z</time>
            </trkpt>
            <trkpt lon="101.352883" lat="13.675049">
                <ele>6.390000</ele>
                <time>2017-07-29T06:48:24Z</time>
            </trkpt>
            <trkpt lon="101.352670" lat="13.674450">
                <ele>1.100000</ele>
                <time>2017-07-29T06:48:40Z</time>
            </trkpt>
            <trkpt lon="101.352385" lat="13.674261">
                <ele>6.390000</ele>
                <time>2017-07-29T06:48:50Z</time>
            </trkpt>
            <trkpt lon="101.351751" lat="13.674238">
                <ele>12.630000</ele>
                <time>2017-07-29T06:49:06Z</time>
            </trkpt>
            <trkpt lon="101.351217" lat="13.674283">
                <ele>14.080000</ele>
                <time>2017-07-29T06:49:19Z</time>
            </trkpt>
            <trkpt lon="101.350585" lat="13.674345">
                <ele>16.480000</ele>
                <time>2017-07-29T06:49:35Z</time>
            </trkpt>
            <trkpt lon="101.350574" lat="13.674333">
                <ele>16.480000</ele>
                <time>2017-07-29T06:49:39Z</time>
            </trkpt>
            <trkpt lon="101.350491" lat="13.674279">
                <ele>16.480000</ele>
                <time>2017-07-29T06:49:47Z</time>
            </trkpt>
            <trkpt lon="101.350410" lat="13.674293">
                <ele>16.480000</ele>
                <time>2017-07-29T06:49:52Z</time>
            </trkpt>
            <trkpt lon="101.350118" lat="13.674292">
                <ele>17.920000</ele>
                <time>2017-07-29T06:50:09Z</time>
            </trkpt>
            <trkpt lon="101.350099" lat="13.674262">
                <ele>17.920000</ele>
                <time>2017-07-29T06:50:20Z</time>
            </trkpt>
            <trkpt lon="101.350072" lat="13.674270">
                <ele>17.920000</ele>
                <time>2017-07-29T06:50:38Z</time>
            </trkpt>
            <trkpt lon="101.350183" lat="13.674204">
                <ele>20.320000</ele>
                <time>2017-07-29T06:50:47Z</time>
            </trkpt>
            <trkpt lon="101.350131" lat="13.673866">
                <ele>22.730000</ele>
                <time>2017-07-29T06:51:02Z</time>
            </trkpt>
            <trkpt lon="101.350051" lat="13.673590">
                <ele>21.770000</ele>
                <time>2017-07-29T06:51:14Z</time>
            </trkpt>
            <trkpt lon="101.350063" lat="13.673502">
                <ele>22.250000</ele>
                <time>2017-07-29T06:51:20Z</time>
            </trkpt>
            <trkpt lon="101.350015" lat="13.673229">
                <ele>20.810000</ele>
                <time>2017-07-29T06:51:33Z</time>
            </trkpt>
            <trkpt lon="101.349962" lat="13.672995">
                <ele>19.360000</ele>
                <time>2017-07-29T06:51:44Z</time>
            </trkpt>
            <trkpt lon="101.349843" lat="13.672854">
                <ele>18.880000</ele>
                <time>2017-07-29T06:51:53Z</time>
            </trkpt>
            <trkpt lon="101.349799" lat="13.672730">
                <ele>19.360000</ele>
                <time>2017-07-29T06:52:01Z</time>
            </trkpt>
            <trkpt lon="101.349731" lat="13.672510">
                <ele>19.840000</ele>
                <time>2017-07-29T06:52:16Z</time>
            </trkpt>
            <trkpt lon="101.349725" lat="13.672494">
                <ele>19.840000</ele>
                <time>2017-07-29T06:52:17Z</time>
            </trkpt>
            <trkpt lon="101.349631" lat="13.672467">
                <ele>19.840000</ele>
                <time>2017-07-29T06:52:22Z</time>
            </trkpt>
            <trkpt lon="101.349211" lat="13.672469">
                <ele>19.840000</ele>
                <time>2017-07-29T06:52:35Z</time>
            </trkpt>
            <trkpt lon="101.348628" lat="13.672431">
                <ele>17.920000</ele>
                <time>2017-07-29T06:52:50Z</time>
            </trkpt>
            <trkpt lon="101.348596" lat="13.672444">
                <ele>17.920000</ele>
                <time>2017-07-29T06:52:51Z</time>
            </trkpt>
            <trkpt lon="101.348572" lat="13.672615">
                <ele>18.400000</ele>
                <time>2017-07-29T06:52:56Z</time>
            </trkpt>
            <trkpt lon="101.348572" lat="13.672766">
                <ele>18.400000</ele>
                <time>2017-07-29T06:53:00Z</time>
            </trkpt>
            <trkpt lon="101.348440" lat="13.672893">
                <ele>18.880000</ele>
                <time>2017-07-29T06:53:05Z</time>
            </trkpt>
            <trkpt lon="101.347776" lat="13.673058">
                <ele>20.810000</ele>
                <time>2017-07-29T06:53:19Z</time>
            </trkpt>
            <trkpt lon="101.347314" lat="13.673172">
                <ele>21.290000</ele>
                <time>2017-07-29T06:53:29Z</time>
            </trkpt>
            <trkpt lon="101.346526" lat="13.673384">
                <ele>20.810000</ele>
                <time>2017-07-29T06:53:46Z</time>
            </trkpt>
            <trkpt lon="101.346229" lat="13.673461">
                <ele>19.840000</ele>
                <time>2017-07-29T06:53:53Z</time>
            </trkpt>
            <trkpt lon="101.346180" lat="13.673358">
                <ele>18.880000</ele>
                <time>2017-07-29T06:53:58Z</time>
            </trkpt>
            <trkpt lon="101.346409" lat="13.672753">
                <ele>16.960000</ele>
                <time>2017-07-29T06:54:14Z</time>
            </trkpt>
            <trkpt lon="101.346398" lat="13.672523">
                <ele>16.480000</ele>
                <time>2017-07-29T06:54:19Z</time>
            </trkpt>
            <trkpt lon="101.346262" lat="13.672029">
                <ele>17.440000</ele>
                <time>2017-07-29T06:54:30Z</time>
            </trkpt>
            <trkpt lon="101.346205" lat="13.671337">
                <ele>17.440000</ele>
                <time>2017-07-29T06:54:47Z</time>
            </trkpt>
            <trkpt lon="101.346085" lat="13.670752">
                <ele>17.920000</ele>
                <time>2017-07-29T06:55:02Z</time>
            </trkpt>
            <trkpt lon="101.346110" lat="13.670105">
                <ele>18.880000</ele>
                <time>2017-07-29T06:55:19Z</time>
            </trkpt>
            <trkpt lon="101.346323" lat="13.669583">
                <ele>19.840000</ele>
                <time>2017-07-29T06:55:35Z</time>
            </trkpt>
            <trkpt lon="101.346713" lat="13.669102">
                <ele>18.400000</ele>
                <time>2017-07-29T06:55:52Z</time>
            </trkpt>
            <trkpt lon="101.347187" lat="13.668686">
                <ele>17.920000</ele>
                <time>2017-07-29T06:56:09Z</time>
            </trkpt>
            <trkpt lon="101.347643" lat="13.668252">
                <ele>17.920000</ele>
                <time>2017-07-29T06:56:26Z</time>
            </trkpt>
            <trkpt lon="101.347975" lat="13.667819">
                <ele>17.440000</ele>
                <time>2017-07-29T06:56:42Z</time>
            </trkpt>
            <trkpt lon="101.348132" lat="13.667367">
                <ele>16.960000</ele>
                <time>2017-07-29T06:56:57Z</time>
            </trkpt>
            <trkpt lon="101.348017" lat="13.666966">
                <ele>16.960000</ele>
                <time>2017-07-29T06:57:08Z</time>
            </trkpt>
            <trkpt lon="101.347577" lat="13.666579">
                <ele>18.400000</ele>
                <time>2017-07-29T06:57:24Z</time>
            </trkpt>
            <trkpt lon="101.347516" lat="13.666524">
                <ele>18.400000</ele>
                <time>2017-07-29T06:57:26Z</time>
            </trkpt>
            <trkpt lon="101.347174" lat="13.666128">
                <ele>18.400000</ele>
                <time>2017-07-29T06:57:39Z</time>
            </trkpt>
            <trkpt lon="101.346841" lat="13.665679">
                <ele>18.880000</ele>
                <time>2017-07-29T06:57:53Z</time>
            </trkpt>
            <trkpt lon="101.346477" lat="13.665123">
                <ele>17.440000</ele>
                <time>2017-07-29T06:58:10Z</time>
            </trkpt>
            <trkpt lon="101.346162" lat="13.664588">
                <ele>17.440000</ele>
                <time>2017-07-29T06:58:26Z</time>
            </trkpt>
            <trkpt lon="101.345938" lat="13.664090">
                <ele>17.440000</ele>
                <time>2017-07-29T06:58:41Z</time>
            </trkpt>
            <trkpt lon="101.345636" lat="13.663642">
                <ele>18.400000</ele>
                <time>2017-07-29T06:58:56Z</time>
            </trkpt>
            <trkpt lon="101.345382" lat="13.663289">
                <ele>19.360000</ele>
                <time>2017-07-29T06:59:09Z</time>
            </trkpt>
            <trkpt lon="101.344972" lat="13.662855">
                <ele>20.810000</ele>
                <time>2017-07-29T06:59:26Z</time>
            </trkpt>
            <trkpt lon="101.344582" lat="13.662512">
                <ele>21.290000</ele>
                <time>2017-07-29T06:59:42Z</time>
            </trkpt>
            <trkpt lon="101.344260" lat="13.662197">
                <ele>20.810000</ele>
                <time>2017-07-29T06:59:58Z</time>
            </trkpt>
            <trkpt lon="101.344266" lat="13.662185">
                <ele>20.810000</ele>
                <time>2017-07-29T06:59:59Z</time>
            </trkpt>
            <trkpt lon="101.344271" lat="13.662176">
                <ele>20.810000</ele>
                <time>2017-07-29T07:00:00Z</time>
            </trkpt>
            <trkpt lon="101.344273" lat="13.662166">
                <ele>20.810000</ele>
                <time>2017-07-29T07:00:01Z</time>
            </trkpt>
            <trkpt lon="101.344276" lat="13.662154">
                <ele>20.810000</ele>
                <time>2017-07-29T07:00:02Z</time>
            </trkpt>
            <trkpt lon="101.344290" lat="13.662138">
                <ele>20.810000</ele>
                <time>2017-07-29T07:00:04Z</time>
            </trkpt>
            <trkpt lon="101.344306" lat="13.662136">
                <ele>20.320000</ele>
                <time>2017-07-29T07:00:05Z</time>
            </trkpt>
            <trkpt lon="101.344321" lat="13.662137">
                <ele>20.810000</ele>
                <time>2017-07-29T07:00:06Z</time>
            </trkpt>
            <trkpt lon="101.344337" lat="13.662141">
                <ele>20.810000</ele>
                <time>2017-07-29T07:00:07Z</time>
            </trkpt>
            <trkpt lon="101.344341" lat="13.662155">
                <ele>21.290000</ele>
                <time>2017-07-29T07:00:10Z</time>
            </trkpt>
            <trkpt lon="101.344330" lat="13.662160">
                <ele>21.290000</ele>
                <time>2017-07-29T07:00:11Z</time>
            </trkpt>
            <trkpt lon="101.344316" lat="13.662164">
                <ele>21.770000</ele>
                <time>2017-07-29T07:00:12Z</time>
            </trkpt>
            <trkpt lon="101.344302" lat="13.662166">
                <ele>21.770000</ele>
                <time>2017-07-29T07:00:13Z</time>
            </trkpt>
            <trkpt lon="101.344282" lat="13.662168">
                <ele>21.770000</ele>
                <time>2017-07-29T07:00:14Z</time>
            </trkpt>
            <trkpt lon="101.344260" lat="13.662168">
                <ele>21.770000</ele>
                <time>2017-07-29T07:00:15Z</time>
            </trkpt>
            <trkpt lon="101.344239" lat="13.662171">
                <ele>21.770000</ele>
                <time>2017-07-29T07:00:16Z</time>
            </trkpt>
            <trkpt lon="101.344220" lat="13.662179">
                <ele>21.770000</ele>
                <time>2017-07-29T07:00:17Z</time>
            </trkpt>
            <trkpt lon="101.344202" lat="13.662187">
                <ele>21.770000</ele>
                <time>2017-07-29T07:00:18Z</time>
            </trkpt>
            <trkpt lon="101.344183" lat="13.662188">
                <ele>21.770000</ele>
                <time>2017-07-29T07:00:19Z</time>
            </trkpt>
            <trkpt lon="101.344166" lat="13.662175">
                <ele>22.250000</ele>
                <time>2017-07-29T07:00:20Z</time>
            </trkpt>
            <trkpt lon="101.344161" lat="13.662166">
                <ele>21.770000</ele>
                <time>2017-07-29T07:00:21Z</time>
            </trkpt>
            <trkpt lon="101.344152" lat="13.662147">
                <ele>21.770000</ele>
                <time>2017-07-29T07:00:22Z</time>
            </trkpt>
            <trkpt lon="101.343882" lat="13.661749">
                <ele>21.770000</ele>
                <time>2017-07-29T07:00:35Z</time>
            </trkpt>
            <trkpt lon="101.343859" lat="13.661714">
                <ele>21.770000</ele>
                <time>2017-07-29T07:00:36Z</time>
            </trkpt>
            <trkpt lon="101.343509" lat="13.661188">
                <ele>21.770000</ele>
                <time>2017-07-29T07:00:52Z</time>
            </trkpt>
            <trkpt lon="101.343423" lat="13.660848">
                <ele>22.250000</ele>
                <time>2017-07-29T07:01:03Z</time>
            </trkpt>
            <trkpt lon="101.343621" lat="13.660288">
                <ele>23.210000</ele>
                <time>2017-07-29T07:01:21Z</time>
            </trkpt>
            <trkpt lon="101.343755" lat="13.659798">
                <ele>23.210000</ele>
                <time>2017-07-29T07:01:34Z</time>
            </trkpt>
            <trkpt lon="101.343793" lat="13.659267">
                <ele>22.730000</ele>
                <time>2017-07-29T07:01:49Z</time>
            </trkpt>
            <trkpt lon="101.343758" lat="13.658775">
                <ele>23.690000</ele>
                <time>2017-07-29T07:02:04Z</time>
            </trkpt>
            <trkpt lon="101.343797" lat="13.658222">
                <ele>24.650000</ele>
                <time>2017-07-29T07:02:19Z</time>
            </trkpt>
            <trkpt lon="101.343892" lat="13.657795">
                <ele>26.570000</ele>
                <time>2017-07-29T07:02:32Z</time>
            </trkpt>
            <trkpt lon="101.343738" lat="13.657283">
                <ele>24.650000</ele>
                <time>2017-07-29T07:02:47Z</time>
            </trkpt>
            <trkpt lon="101.343896" lat="13.657064">
                <ele>22.730000</ele>
                <time>2017-07-29T07:02:57Z</time>
            </trkpt>
            <trkpt lon="101.344187" lat="13.656883">
                <ele>18.880000</ele>
                <time>2017-07-29T07:03:07Z</time>
            </trkpt>
            <trkpt lon="101.344578" lat="13.656718">
                <ele>15.520000</ele>
                <time>2017-07-29T07:03:18Z</time>
            </trkpt>
            <trkpt lon="101.344981" lat="13.656531">
                <ele>13.120000</ele>
                <time>2017-07-29T07:03:30Z</time>
            </trkpt>
            <trkpt lon="101.345043" lat="13.656512">
                <ele>12.630000</ele>
                <time>2017-07-29T07:03:33Z</time>
            </trkpt>
            <trkpt lon="101.345143" lat="13.656473">
                <ele>12.150000</ele>
                <time>2017-07-29T07:03:38Z</time>
            </trkpt>
            <trkpt lon="101.345410" lat="13.656346">
                <ele>15.040000</ele>
                <time>2017-07-29T07:03:52Z</time>
            </trkpt>
            <trkpt lon="101.345581" lat="13.656273">
                <ele>16.000000</ele>
                <time>2017-07-29T07:04:01Z</time>
            </trkpt>
            <trkpt lon="101.345685" lat="13.656201">
                <ele>18.880000</ele>
                <time>2017-07-29T07:04:14Z</time>
            </trkpt>
            <trkpt lon="101.345689" lat="13.656201">
                <ele>18.880000</ele>
                <time>2017-07-29T07:04:16Z</time>
            </trkpt>
            <trkpt lon="101.345439" lat="13.656339">
                <ele>20.810000</ele>
                <time>2017-07-29T07:04:28Z</time>
            </trkpt>
            <trkpt lon="101.345160" lat="13.656450">
                <ele>27.530000</ele>
                <time>2017-07-29T07:04:38Z</time>
            </trkpt>
            <trkpt lon="101.345147" lat="13.656453">
                <ele>28.020000</ele>
                <time>2017-07-29T07:04:39Z</time>
            </trkpt>
            <trkpt lon="101.345127" lat="13.656449">
                <ele>28.980000</ele>
                <time>2017-07-29T07:04:41Z</time>
            </trkpt>
            <trkpt lon="101.345098" lat="13.656398">
                <ele>28.500000</ele>
                <time>2017-07-29T07:04:45Z</time>
            </trkpt>
            <trkpt lon="101.345009" lat="13.656283">
                <ele>25.610000</ele>
                <time>2017-07-29T07:04:58Z</time>
            </trkpt>
            <trkpt lon="101.345015" lat="13.656287">
                <ele>25.130000</ele>
                <time>2017-07-29T07:05:04Z</time>
            </trkpt>
            <trkpt lon="101.345062" lat="13.656384">
                <ele>25.130000</ele>
                <time>2017-07-29T07:05:09Z</time>
            </trkpt>
            <trkpt lon="101.345078" lat="13.656433">
                <ele>25.130000</ele>
                <time>2017-07-29T07:05:11Z</time>
            </trkpt>
            <trkpt lon="101.344986" lat="13.656516">
                <ele>27.050000</ele>
                <time>2017-07-29T07:05:16Z</time>
            </trkpt>
            <trkpt lon="101.344561" lat="13.656715">
                <ele>33.300000</ele>
                <time>2017-07-29T07:05:30Z</time>
            </trkpt>
            <trkpt lon="101.344204" lat="13.656868">
                <ele>39.070000</ele>
                <time>2017-07-29T07:05:42Z</time>
            </trkpt>
            <trkpt lon="101.343925" lat="13.657072">
                <ele>42.440000</ele>
                <time>2017-07-29T07:05:53Z</time>
            </trkpt>
            <trkpt lon="101.343813" lat="13.657334">
                <ele>43.880000</ele>
                <time>2017-07-29T07:06:02Z</time>
            </trkpt>
            <trkpt lon="101.343878" lat="13.657663">
                <ele>43.880000</ele>
                <time>2017-07-29T07:06:13Z</time>
            </trkpt>
            <trkpt lon="101.343833" lat="13.658098">
                <ele>40.030000</ele>
                <time>2017-07-29T07:06:26Z</time>
            </trkpt>
            <trkpt lon="101.343768" lat="13.658330">
                <ele>37.150000</ele>
                <time>2017-07-29T07:06:33Z</time>
            </trkpt>
            <trkpt lon="101.343460" lat="13.658337">
                <ele>32.340000</ele>
                <time>2017-07-29T07:06:44Z</time>
            </trkpt>
            <trkpt lon="101.343238" lat="13.658323">
                <ele>31.380000</ele>
                <time>2017-07-29T07:06:54Z</time>
            </trkpt>
            <trkpt lon="101.343205" lat="13.658320">
                <ele>31.380000</ele>
                <time>2017-07-29T07:06:59Z</time>
            </trkpt>
            <trkpt lon="101.343180" lat="13.658325">
                <ele>31.380000</ele>
                <time>2017-07-29T07:07:01Z</time>
            </trkpt>
            <trkpt lon="101.342969" lat="13.658325">
                <ele>34.260000</ele>
                <time>2017-07-29T07:07:15Z</time>
            </trkpt>
            <trkpt lon="101.342770" lat="13.658304">
                <ele>38.110000</ele>
                <time>2017-07-29T07:07:28Z</time>
            </trkpt>
            <trkpt lon="101.342633" lat="13.658292">
                <ele>40.510000</ele>
                <time>2017-07-29T07:07:43Z</time>
            </trkpt>
            <trkpt lon="101.342528" lat="13.658285">
                <ele>42.440000</ele>
                <time>2017-07-29T07:07:55Z</time>
            </trkpt>
            <trkpt lon="101.342354" lat="13.658263">
                <ele>45.320000</ele>
                <time>2017-07-29T07:08:13Z</time>
            </trkpt>
            <trkpt lon="101.342317" lat="13.658253">
                <ele>44.840000</ele>
                <time>2017-07-29T07:08:46Z</time>
            </trkpt>
            <trkpt lon="101.342159" lat="13.658250">
                <ele>44.840000</ele>
                <time>2017-07-29T07:08:58Z</time>
            </trkpt>
            <trkpt lon="101.342074" lat="13.658255">
                <ele>44.840000</ele>
                <time>2017-07-29T07:09:03Z</time>
            </trkpt>
            <trkpt lon="101.341964" lat="13.658234">
                <ele>45.320000</ele>
                <time>2017-07-29T07:09:13Z</time>
            </trkpt>
            <trkpt lon="101.341928" lat="13.658222">
                <ele>45.320000</ele>
                <time>2017-07-29T07:09:16Z</time>
            </trkpt>
            <trkpt lon="101.341808" lat="13.658231">
                <ele>43.400000</ele>
                <time>2017-07-29T07:09:26Z</time>
            </trkpt>
            <trkpt lon="101.341769" lat="13.658229">
                <ele>40.990000</ele>
                <time>2017-07-29T07:09:29Z</time>
            </trkpt>
            <trkpt lon="101.341698" lat="13.658225">
                <ele>36.670000</ele>
                <time>2017-07-29T07:09:35Z</time>
            </trkpt>
            <trkpt lon="101.341608" lat="13.658202">
                <ele>32.820000</ele>
                <time>2017-07-29T07:09:51Z</time>
            </trkpt>
            <trkpt lon="101.341567" lat="13.658194">
                <ele>29.460000</ele>
                <time>2017-07-29T07:10:05Z</time>
            </trkpt>
            <trkpt lon="101.341550" lat="13.658166">
                <ele>29.940000</ele>
                <time>2017-07-29T07:10:22Z</time>
            </trkpt>
            <trkpt lon="101.341536" lat="13.658189">
                <ele>26.090000</ele>
                <time>2017-07-29T07:11:02Z</time>
            </trkpt>
            <trkpt lon="101.341509" lat="13.658197">
                <ele>25.610000</ele>
                <time>2017-07-29T07:11:07Z</time>
            </trkpt>
            <trkpt lon="101.341435" lat="13.658206">
                <ele>25.130000</ele>
                <time>2017-07-29T07:11:12Z</time>
            </trkpt>
            <trkpt lon="101.341093" lat="13.658238">
                <ele>21.770000</ele>
                <time>2017-07-29T07:11:29Z</time>
            </trkpt>
            <trkpt lon="101.340761" lat="13.658262">
                <ele>22.250000</ele>
                <time>2017-07-29T07:11:44Z</time>
            </trkpt>
            <trkpt lon="101.340462" lat="13.658292">
                <ele>16.960000</ele>
                <time>2017-07-29T07:11:57Z</time>
            </trkpt>
            <trkpt lon="101.340355" lat="13.658294">
                <ele>16.000000</ele>
                <time>2017-07-29T07:12:02Z</time>
            </trkpt>
            <trkpt lon="101.340148" lat="13.658295">
                <ele>16.960000</ele>
                <time>2017-07-29T07:12:10Z</time>
            </trkpt>
            <trkpt lon="101.339909" lat="13.658308">
                <ele>19.840000</ele>
                <time>2017-07-29T07:12:23Z</time>
            </trkpt>
            <trkpt lon="101.339808" lat="13.658326">
                <ele>22.250000</ele>
                <time>2017-07-29T07:12:28Z</time>
            </trkpt>
            <trkpt lon="101.339720" lat="13.658320">
                <ele>26.090000</ele>
                <time>2017-07-29T07:12:35Z</time>
            </trkpt>
            <trkpt lon="101.339672" lat="13.658219">
                <ele>26.090000</ele>
                <time>2017-07-29T07:12:42Z</time>
            </trkpt>
            <trkpt lon="101.339565" lat="13.657709">
                <ele>25.130000</ele>
                <time>2017-07-29T07:12:58Z</time>
            </trkpt>
            <trkpt lon="101.339559" lat="13.657107">
                <ele>23.690000</ele>
                <time>2017-07-29T07:13:15Z</time>
            </trkpt>
            <trkpt lon="101.339721" lat="13.656482">
                <ele>24.170000</ele>
                <time>2017-07-29T07:13:33Z</time>
            </trkpt>
            <trkpt lon="101.339781" lat="13.655792">
                <ele>25.130000</ele>
                <time>2017-07-29T07:13:50Z</time>
            </trkpt>
            <trkpt lon="101.339854" lat="13.655171">
                <ele>25.610000</ele>
                <time>2017-07-29T07:14:05Z</time>
            </trkpt>
            <trkpt lon="101.339854" lat="13.655091">
                <ele>25.610000</ele>
                <time>2017-07-29T07:14:07Z</time>
            </trkpt>
            <trkpt lon="101.339846" lat="13.655053">
                <ele>25.130000</ele>
                <time>2017-07-29T07:14:08Z</time>
            </trkpt>
            <trkpt lon="101.339834" lat="13.655017">
                <ele>25.130000</ele>
                <time>2017-07-29T07:14:09Z</time>
            </trkpt>
            <trkpt lon="101.339724" lat="13.654838">
                <ele>25.610000</ele>
                <time>2017-07-29T07:14:14Z</time>
            </trkpt>
            <trkpt lon="101.339700" lat="13.654823">
                <ele>25.610000</ele>
                <time>2017-07-29T07:14:15Z</time>
            </trkpt>
            <trkpt lon="101.339661" lat="13.654804">
                <ele>26.090000</ele>
                <time>2017-07-29T07:14:16Z</time>
            </trkpt>
            <trkpt lon="101.339355" lat="13.654697">
                <ele>27.050000</ele>
                <time>2017-07-29T07:14:23Z</time>
            </trkpt>
            <trkpt lon="101.339310" lat="13.654685">
                <ele>27.050000</ele>
                <time>2017-07-29T07:14:24Z</time>
            </trkpt>
            <trkpt lon="101.339269" lat="13.654671">
                <ele>27.050000</ele>
                <time>2017-07-29T07:14:25Z</time>
            </trkpt>
            <trkpt lon="101.339229" lat="13.654656">
                <ele>26.570000</ele>
                <time>2017-07-29T07:14:26Z</time>
            </trkpt>
            <trkpt lon="101.339188" lat="13.654645">
                <ele>26.570000</ele>
                <time>2017-07-29T07:14:27Z</time>
            </trkpt>
            <trkpt lon="101.339149" lat="13.654637">
                <ele>26.090000</ele>
                <time>2017-07-29T07:14:28Z</time>
            </trkpt>
            <trkpt lon="101.338648" lat="13.654571">
                <ele>23.690000</ele>
                <time>2017-07-29T07:14:41Z</time>
            </trkpt>
            <trkpt lon="101.338406" lat="13.654877">
                <ele>22.250000</ele>
                <time>2017-07-29T07:14:50Z</time>
            </trkpt>
            <trkpt lon="101.338370" lat="13.654898">
                <ele>22.250000</ele>
                <time>2017-07-29T07:14:51Z</time>
            </trkpt>
            <trkpt lon="101.338322" lat="13.654908">
                <ele>21.770000</ele>
                <time>2017-07-29T07:14:52Z</time>
            </trkpt>
            <trkpt lon="101.338278" lat="13.654907">
                <ele>21.770000</ele>
                <time>2017-07-29T07:14:53Z</time>
            </trkpt>
            <trkpt lon="101.338228" lat="13.654904">
                <ele>21.770000</ele>
                <time>2017-07-29T07:14:54Z</time>
            </trkpt>
            <trkpt lon="101.338025" lat="13.654818">
                <ele>22.250000</ele>
                <time>2017-07-29T07:15:01Z</time>
            </trkpt>
            <trkpt lon="101.338030" lat="13.654805">
                <ele>22.730000</ele>
                <time>2017-07-29T07:15:02Z</time>
            </trkpt>
            <trkpt lon="101.338050" lat="13.654780">
                <ele>23.210000</ele>
                <time>2017-07-29T07:15:04Z</time>
            </trkpt>
            <trkpt lon="101.338058" lat="13.654748">
                <ele>23.690000</ele>
                <time>2017-07-29T07:15:05Z</time>
            </trkpt>
            <trkpt lon="101.338061" lat="13.654723">
                <ele>23.690000</ele>
                <time>2017-07-29T07:15:06Z</time>
            </trkpt>
            <trkpt lon="101.338062" lat="13.654222">
                <ele>23.210000</ele>
                <time>2017-07-29T07:15:21Z</time>
            </trkpt>
            <trkpt lon="101.338024" lat="13.653668">
                <ele>24.170000</ele>
                <time>2017-07-29T07:15:36Z</time>
            </trkpt>
            <trkpt lon="101.337986" lat="13.653058">
                <ele>23.210000</ele>
                <time>2017-07-29T07:15:52Z</time>
            </trkpt>
            <trkpt lon="101.337992" lat="13.652440">
                <ele>23.690000</ele>
                <time>2017-07-29T07:16:08Z</time>
            </trkpt>
            <trkpt lon="101.338022" lat="13.651828">
                <ele>23.690000</ele>
                <time>2017-07-29T07:16:24Z</time>
            </trkpt>
            <trkpt lon="101.338100" lat="13.651039">
                <ele>26.570000</ele>
                <time>2017-07-29T07:16:44Z</time>
            </trkpt>
            <trkpt lon="101.338192" lat="13.650310">
                <ele>28.500000</ele>
                <time>2017-07-29T07:17:03Z</time>
            </trkpt>
            <trkpt lon="101.338312" lat="13.649712">
                <ele>28.500000</ele>
                <time>2017-07-29T07:17:21Z</time>
            </trkpt>
            <trkpt lon="101.338455" lat="13.649107">
                <ele>28.980000</ele>
                <time>2017-07-29T07:17:37Z</time>
            </trkpt>
            <trkpt lon="101.338509" lat="13.648593">
                <ele>28.020000</ele>
                <time>2017-07-29T07:17:53Z</time>
            </trkpt>
            <trkpt lon="101.338508" lat="13.648225">
                <ele>30.900000</ele>
                <time>2017-07-29T07:18:08Z</time>
            </trkpt>
            <trkpt lon="101.338433" lat="13.647663">
                <ele>29.940000</ele>
                <time>2017-07-29T07:18:24Z</time>
            </trkpt>
            <trkpt lon="101.338346" lat="13.647146">
                <ele>31.380000</ele>
                <time>2017-07-29T07:18:39Z</time>
            </trkpt>
            <trkpt lon="101.338256" lat="13.646587">
                <ele>30.900000</ele>
                <time>2017-07-29T07:18:55Z</time>
            </trkpt>
            <trkpt lon="101.338233" lat="13.646423">
                <ele>28.980000</ele>
                <time>2017-07-29T07:19:06Z</time>
            </trkpt>
            <trkpt lon="101.338244" lat="13.646409">
                <ele>26.090000</ele>
                <time>2017-07-29T07:19:45Z</time>
            </trkpt>
            <trkpt lon="101.338215" lat="13.646381">
                <ele>27.050000</ele>
                <time>2017-07-29T07:19:52Z</time>
            </trkpt>
            <trkpt lon="101.338207" lat="13.646368">
                <ele>27.530000</ele>
                <time>2017-07-29T07:19:53Z</time>
            </trkpt>
            <trkpt lon="101.338201" lat="13.646351">
                <ele>28.020000</ele>
                <time>2017-07-29T07:19:54Z</time>
            </trkpt>
            <trkpt lon="101.338121" lat="13.645964">
                <ele>29.460000</ele>
                <time>2017-07-29T07:20:09Z</time>
            </trkpt>
            <trkpt lon="101.338093" lat="13.645863">
                <ele>29.940000</ele>
                <time>2017-07-29T07:20:13Z</time>
            </trkpt>
            <trkpt lon="101.338094" lat="13.645843">
                <ele>29.940000</ele>
                <time>2017-07-29T07:20:14Z</time>
            </trkpt>
            <trkpt lon="101.338090" lat="13.645822">
                <ele>29.940000</ele>
                <time>2017-07-29T07:20:15Z</time>
            </trkpt>
            <trkpt lon="101.338085" lat="13.645800">
                <ele>29.940000</ele>
                <time>2017-07-29T07:20:16Z</time>
            </trkpt>
            <trkpt lon="101.338079" lat="13.645773">
                <ele>29.940000</ele>
                <time>2017-07-29T07:20:17Z</time>
            </trkpt>
            <trkpt lon="101.337961" lat="13.645239">
                <ele>31.380000</ele>
                <time>2017-07-29T07:20:33Z</time>
            </trkpt>
            <trkpt lon="101.337842" lat="13.644768">
                <ele>31.860000</ele>
                <time>2017-07-29T07:20:48Z</time>
            </trkpt>
            <trkpt lon="101.337753" lat="13.644418">
                <ele>35.230000</ele>
                <time>2017-07-29T07:21:00Z</time>
            </trkpt>
            <trkpt lon="101.337671" lat="13.644074">
                <ele>41.470000</ele>
                <time>2017-07-29T07:21:11Z</time>
            </trkpt>
            <trkpt lon="101.337561" lat="13.643522">
                <ele>41.950000</ele>
                <time>2017-07-29T07:21:27Z</time>
            </trkpt>
            <trkpt lon="101.337456" lat="13.642992">
                <ele>40.990000</ele>
                <time>2017-07-29T07:21:42Z</time>
            </trkpt>
            <trkpt lon="101.337336" lat="13.642475">
                <ele>43.400000</ele>
                <time>2017-07-29T07:21:55Z</time>
            </trkpt>
            <trkpt lon="101.337242" lat="13.641988">
                <ele>47.720000</ele>
                <time>2017-07-29T07:22:12Z</time>
            </trkpt>
            <trkpt lon="101.337226" lat="13.641782">
                <ele>49.160000</ele>
                <time>2017-07-29T07:22:26Z</time>
            </trkpt>
            <trkpt lon="101.337200" lat="13.641601">
                <ele>46.760000</ele>
                <time>2017-07-29T07:22:39Z</time>
            </trkpt>
            <trkpt lon="101.337202" lat="13.641591">
                <ele>46.760000</ele>
                <time>2017-07-29T07:22:40Z</time>
            </trkpt>
            <trkpt lon="101.337220" lat="13.641523">
                <ele>46.760000</ele>
                <time>2017-07-29T07:22:45Z</time>
            </trkpt>
            <trkpt lon="101.337215" lat="13.641485">
                <ele>46.760000</ele>
                <time>2017-07-29T07:22:47Z</time>
            </trkpt>
            <trkpt lon="101.337112" lat="13.641236">
                <ele>47.720000</ele>
                <time>2017-07-29T07:22:58Z</time>
            </trkpt>
            <trkpt lon="101.337097" lat="13.641227">
                <ele>47.720000</ele>
                <time>2017-07-29T07:22:59Z</time>
            </trkpt>
            <trkpt lon="101.336817" lat="13.641058">
                <ele>67.430000</ele>
                <time>2016-07-30T08:00:33Z</time>
            </trkpt>
            <trkpt lon="101.337148" lat="13.641138">
                <ele>61.180000</ele>
                <time>2016-07-30T08:04:01Z</time>
            </trkpt>
            <trkpt lon="101.337153" lat="13.639951">
                <ele>62.800000</ele>
                <time>2016-07-30T08:03:49Z</time>
            </trkpt>
            <trkpt lon="101.337513" lat="13.639946">
                <ele>63.600000</ele>
                <time>2016-07-30T08:04:02Z</time>
            </trkpt>
            <trkpt lon="101.338136" lat="13.639827">
                <ele>65.200000</ele>
                <time>2016-07-30T08:04:22Z</time>
            </trkpt>
            <trkpt lon="101.338588" lat="13.639600">
                <ele>66.000000</ele>
                <time>2016-07-30T08:04:40Z</time>
            </trkpt>
            <trkpt lon="101.338768" lat="13.639463">
                <ele>67.000000</ele>
                <time>2016-07-30T08:04:48Z</time>
            </trkpt>
            <trkpt lon="101.338795" lat="13.639016">
                <ele>70.000000</ele>
                <time>2016-07-30T08:05:07Z</time>
            </trkpt>
            <trkpt lon="101.338806" lat="13.638843">
                <ele>71.600000</ele>
                <time>2016-07-30T08:05:17Z</time>
            </trkpt>
            <trkpt lon="101.338822" lat="13.638775">
                <ele>71.800000</ele>
                <time>2016-07-30T08:05:21Z</time>
            </trkpt>
            <trkpt lon="101.338866" lat="13.638702">
                <ele>72.800000</ele>
                <time>2016-07-30T08:05:28Z</time>
            </trkpt>
            <trkpt lon="101.338900" lat="13.638669">
                <ele>73.200000</ele>
                <time>2016-07-30T08:05:43Z</time>
            </trkpt>
            <trkpt lon="101.339020" lat="13.638577">
                <ele>74.000000</ele>
                <time>2016-07-30T08:06:02Z</time>
            </trkpt>
            <trkpt lon="101.338880" lat="13.638624">
                <ele>73.400000</ele>
                <time>2016-07-30T08:06:23Z</time>
            </trkpt>
            <trkpt lon="101.338865" lat="13.638490">
                <ele>75.200000</ele>
                <time>2016-07-30T08:06:37Z</time>
            </trkpt>
            <trkpt lon="101.338863" lat="13.638469">
                <ele>75.200000</ele>
                <time>2016-07-30T08:06:39Z</time>
            </trkpt>
            <trkpt lon="101.338987" lat="13.638219">
                <ele>77.000000</ele>
                <time>2016-07-30T08:06:54Z</time>
            </trkpt>
            <trkpt lon="101.339108" lat="13.638235">
                <ele>76.600000</ele>
                <time>2016-07-30T08:07:02Z</time>
            </trkpt>
            <trkpt lon="101.339157" lat="13.637990">
                <ele>78.800000</ele>
                <time>2016-07-30T08:07:21Z</time>
            </trkpt>
            <trkpt lon="101.339198" lat="13.637975">
                <ele>79.000000</ele>
                <time>2016-07-30T08:07:24Z</time>
            </trkpt>
            <trkpt lon="101.339565" lat="13.638083">
                <ele>77.000000</ele>
                <time>2016-07-30T08:08:04Z</time>
            </trkpt>
            <trkpt lon="101.339870" lat="13.638043">
                <ele>77.800000</ele>
                <time>2016-07-30T08:08:20Z</time>
            </trkpt>
            <trkpt lon="101.339978" lat="13.638027">
                <ele>78.200000</ele>
                <time>2016-07-30T08:08:25Z</time>
            </trkpt>
            <trkpt lon="101.340023" lat="13.638046">
                <ele>78.000000</ele>
                <time>2016-07-30T08:08:27Z</time>
            </trkpt>
            <trkpt lon="101.340176" lat="13.638042">
                <ele>77.800000</ele>
                <time>2016-07-30T08:08:34Z</time>
            </trkpt>
            <trkpt lon="101.340510" lat="13.637823">
                <ele>78.600000</ele>
                <time>2016-07-30T08:08:54Z</time>
            </trkpt>
            <trkpt lon="101.340557" lat="13.637503">
                <ele>81.400000</ele>
                <time>2016-07-30T08:09:20Z</time>
            </trkpt>
            <trkpt lon="101.340559" lat="13.637499">
                <ele>81.400000</ele>
                <time>2016-07-30T08:09:21Z</time>
            </trkpt>
            <trkpt lon="101.340829" lat="13.637468">
                <ele>85.400000</ele>
                <time>2016-07-30T08:10:50Z</time>
            </trkpt>
            <trkpt lon="101.340961" lat="13.637708">
                <ele>79.200000</ele>
                <time>2016-07-30T08:11:18Z</time>
            </trkpt>
            <trkpt lon="101.341471" lat="13.637801">
                <ele>79.600000</ele>
                <time>2016-07-30T08:11:49Z</time>
            </trkpt>
            <trkpt lon="101.341635" lat="13.637811">
                <ele>77.800000</ele>
                <time>2016-07-30T08:11:56Z</time>
            </trkpt>
            <trkpt lon="101.341750" lat="13.637931">
                <ele>75.600000</ele>
                <time>2016-07-30T08:12:03Z</time>
            </trkpt>
            <trkpt lon="101.341879" lat="13.637936">
                <ele>75.600000</ele>
                <time>2016-07-30T08:12:09Z</time>
            </trkpt>
            <trkpt lon="101.341875" lat="13.638081">
                <ele>74.600000</ele>
                <time>2016-07-30T08:12:16Z</time>
            </trkpt>
            <trkpt lon="101.341938" lat="13.638133">
                <ele>74.200000</ele>
                <time>2016-07-30T08:12:19Z</time>
            </trkpt>
            <trkpt lon="101.342244" lat="13.638015">
                <ele>75.200000</ele>
                <time>2016-07-30T08:12:39Z</time>
            </trkpt>
            <trkpt lon="101.342438" lat="13.638069">
                <ele>73.400000</ele>
                <time>2016-07-30T08:12:51Z</time>
            </trkpt>
            <trkpt lon="101.342675" lat="13.638018">
                <ele>72.600000</ele>
                <time>2016-07-30T08:12:57Z</time>
            </trkpt>
            <trkpt lon="101.342940" lat="13.637928">
                <ele>72.800000</ele>
                <time>2016-07-30T08:13:03Z</time>
            </trkpt>
            <trkpt lon="101.343344" lat="13.637690">
                <ele>72.800000</ele>
                <time>2016-07-30T08:13:13Z</time>
            </trkpt>
            <trkpt lon="101.344638" lat="13.636996">
                <ele>71.800000</ele>
                <time>2016-07-30T08:13:44Z</time>
            </trkpt>
            <trkpt lon="101.345100" lat="13.636873">
                <ele>70.400000</ele>
                <time>2016-07-30T08:13:53Z</time>
            </trkpt>
            <trkpt lon="101.345294" lat="13.636782">
                <ele>70.600000</ele>
                <time>2016-07-30T08:13:57Z</time>
            </trkpt>
            <trkpt lon="101.345504" lat="13.636480">
                <ele>70.400000</ele>
                <time>2016-07-30T08:14:04Z</time>
            </trkpt>
            <trkpt lon="101.345749" lat="13.635804">
                <ele>69.600000</ele>
                <time>2016-07-30T08:14:16Z</time>
            </trkpt>
            <trkpt lon="101.345958" lat="13.635401">
                <ele>69.800000</ele>
                <time>2016-07-30T08:14:23Z</time>
            </trkpt>
            <trkpt lon="101.346244" lat="13.635116">
                <ele>68.200000</ele>
                <time>2016-07-30T08:14:29Z</time>
            </trkpt>
            <trkpt lon="101.346985" lat="13.634440">
                <ele>68.400000</ele>
                <time>2016-07-30T08:14:44Z</time>
            </trkpt>
            <trkpt lon="101.347470" lat="13.634187">
                <ele>69.600000</ele>
                <time>2016-07-30T08:14:53Z</time>
            </trkpt>
            <trkpt lon="101.348035" lat="13.633994">
                <ele>69.600000</ele>
                <time>2016-07-30T08:15:03Z</time>
            </trkpt>
            <trkpt lon="101.348793" lat="13.633605">
                <ele>68.000000</ele>
                <time>2016-07-30T08:15:18Z</time>
            </trkpt>
            <trkpt lon="101.348888" lat="13.633592">
                <ele>67.800000</ele>
                <time>2016-07-30T08:15:26Z</time>
            </trkpt>
            <trkpt lon="101.348880" lat="13.633687">
                <ele>67.800000</ele>
                <time>2016-07-30T08:15:32Z</time>
            </trkpt>
            <trkpt lon="101.349021" lat="13.634068">
                <ele>66.800000</ele>
                <time>2016-07-30T08:15:59Z</time>
            </trkpt>
            <trkpt lon="101.349112" lat="13.634075">
                <ele>66.400000</ele>
                <time>2016-07-30T08:16:08Z</time>
            </trkpt>
            <trkpt lon="101.348905" lat="13.633793">
                <ele>68.000000</ele>
                <time>2016-07-30T08:16:36Z</time>
            </trkpt>
            <trkpt lon="101.348936" lat="13.633543">
                <ele>68.400000</ele>
                <time>2016-07-30T08:16:51Z</time>
            </trkpt>
            <trkpt lon="101.350113" lat="13.632569">
                <ele>69.400000</ele>
                <time>2016-07-30T08:17:37Z</time>
            </trkpt>
            <trkpt lon="101.351334" lat="13.632126">
                <ele>71.000000</ele>
                <time>2016-07-30T08:18:13Z</time>
            </trkpt>
            <trkpt lon="101.352087" lat="13.631359">
                <ele>72.200000</ele>
                <time>2016-07-30T08:18:43Z</time>
            </trkpt>
            <trkpt lon="101.353483" lat="13.631367">
                <ele>73.200000</ele>
                <time>2016-07-30T08:19:16Z</time>
            </trkpt>
            <trkpt lon="101.353743" lat="13.631235">
                <ele>73.200000</ele>
                <time>2016-07-30T08:19:24Z</time>
            </trkpt>
            <trkpt lon="101.353967" lat="13.630994">
                <ele>74.400000</ele>
                <time>2016-07-30T08:19:34Z</time>
            </trkpt>
            <trkpt lon="101.354122" lat="13.630705">
                <ele>76.400000</ele>
                <time>2016-07-30T08:19:47Z</time>
            </trkpt>
            <trkpt lon="101.354206" lat="13.630540">
                <ele>78.000000</ele>
                <time>2016-07-30T08:19:55Z</time>
            </trkpt>
            <trkpt lon="101.354369" lat="13.630318">
                <ele>81.000000</ele>
                <time>2016-07-30T08:20:10Z</time>
            </trkpt>
            <trkpt lon="101.354434" lat="13.630338">
                <ele>80.600000</ele>
                <time>2016-07-30T08:20:13Z</time>
            </trkpt>
            <trkpt lon="101.354934" lat="13.630281">
                <ele>82.400000</ele>
                <time>2016-07-30T08:20:35Z</time>
            </trkpt>
            <trkpt lon="101.355154" lat="13.630090">
                <ele>83.600000</ele>
                <time>2016-07-30T08:20:47Z</time>
            </trkpt>
            <trkpt lon="101.355381" lat="13.629821">
                <ele>84.200000</ele>
                <time>2016-07-30T08:21:00Z</time>
            </trkpt>
            <trkpt lon="101.354941" lat="13.628427">
                <ele>97.600000</ele>
                <time>2016-07-30T08:22:25Z</time>
            </trkpt>
            <trkpt lon="101.354480" lat="13.628529">
                <ele>104.200000</ele>
                <time>2016-07-30T08:23:10Z</time>
            </trkpt>
            <trkpt lon="101.354328" lat="13.628285">
                <ele>105.400000</ele>
                <time>2016-07-30T08:23:31Z</time>
            </trkpt>
            <trkpt lon="101.354303" lat="13.628237">
                <ele>105.600000</ele>
                <time>2016-07-30T08:23:34Z</time>
            </trkpt>
            <trkpt lon="101.353940" lat="13.627847">
                <ele>111.600000</ele>
                <time>2016-07-30T08:24:06Z</time>
            </trkpt>
            <trkpt lon="101.353864" lat="13.627834">
                <ele>113.000000</ele>
                <time>2016-07-30T08:24:14Z</time>
            </trkpt>
            <trkpt lon="101.353588" lat="13.627746">
                <ele>118.000000</ele>
                <time>2016-07-30T08:24:46Z</time>
            </trkpt>
            <trkpt lon="101.353551" lat="13.627431">
                <ele>124.000000</ele>
                <time>2016-07-30T08:25:29Z</time>
            </trkpt>
            <trkpt lon="101.353566" lat="13.627217">
                <ele>125.800000</ele>
                <time>2016-07-30T08:25:57Z</time>
            </trkpt>
            <trkpt lon="101.353374" lat="13.626966">
                <ele>129.000000</ele>
                <time>2016-07-30T08:26:37Z</time>
            </trkpt>
            <trkpt lon="101.352893" lat="13.626780">
                <ele>136.200000</ele>
                <time>2016-07-30T08:27:33Z</time>
            </trkpt>
            <trkpt lon="101.352743" lat="13.626788">
                <ele>137.800000</ele>
                <time>2016-07-30T08:27:57Z</time>
            </trkpt>
            <trkpt lon="101.352233" lat="13.626710">
                <ele>150.000000</ele>
                <time>2016-07-30T08:29:29Z</time>
            </trkpt>
            <trkpt lon="101.351798" lat="13.626260">
                <ele>163.600000</ele>
                <time>2016-07-30T08:31:27Z</time>
            </trkpt>
            <trkpt lon="101.351743" lat="13.626246">
                <ele>164.400000</ele>
                <time>2016-07-30T08:31:31Z</time>
            </trkpt>
            <trkpt lon="101.351516" lat="13.626132">
                <ele>166.600000</ele>
                <time>2016-07-30T08:31:47Z</time>
            </trkpt>
            <trkpt lon="101.351293" lat="13.625624">
                <ele>172.000000</ele>
                <time>2016-07-30T08:32:54Z</time>
            </trkpt>
            <trkpt lon="101.351424" lat="13.625318">
                <ele>177.400000</ele>
                <time>2016-07-30T08:33:36Z</time>
            </trkpt>
            <trkpt lon="101.351591" lat="13.625221">
                <ele>178.200000</ele>
                <time>2016-07-30T08:37:11Z</time>
            </trkpt>
            <trkpt lon="101.351289" lat="13.624856">
                <ele>175.200000</ele>
                <time>2016-07-30T08:37:34Z</time>
            </trkpt>
            <trkpt lon="101.351038" lat="13.624695">
                <ele>172.600000</ele>
                <time>2016-07-30T08:37:39Z</time>
            </trkpt>
            <trkpt lon="101.350420" lat="13.624297">
                <ele>170.600000</ele>
                <time>2016-07-30T08:37:54Z</time>
            </trkpt>
            <trkpt lon="101.350249" lat="13.623938">
                <ele>166.400000</ele>
                <time>2016-07-30T08:39:59Z</time>
            </trkpt>
            <trkpt lon="101.350407" lat="13.624268">
                <ele>170.000000</ele>
                <time>2016-07-30T08:40:34Z</time>
            </trkpt>
            <trkpt lon="101.350661" lat="13.624430">
                <ele>171.600000</ele>
                <time>2016-07-30T08:40:56Z</time>
            </trkpt>
            <trkpt lon="101.350843" lat="13.624596">
                <ele>171.400000</ele>
                <time>2016-07-30T08:41:17Z</time>
            </trkpt>
            <trkpt lon="101.350745" lat="13.625038">
                <ele>174.200000</ele>
                <time>2016-07-30T08:42:07Z</time>
            </trkpt>
            <trkpt lon="101.350954" lat="13.625113">
                <ele>175.600000</ele>
                <time>2016-07-30T08:42:30Z</time>
            </trkpt>
            <trkpt lon="101.350890" lat="13.625315">
                <ele>175.800000</ele>
                <time>2016-07-30T08:42:52Z</time>
            </trkpt>
            <trkpt lon="101.350811" lat="13.625338">
                <ele>175.400000</ele>
                <time>2016-07-30T08:43:02Z</time>
            </trkpt>
            <trkpt lon="101.350816" lat="13.625421">
                <ele>174.800000</ele>
                <time>2016-07-30T08:43:11Z</time>
            </trkpt>
            <trkpt lon="101.351056" lat="13.625540">
                <ele>173.800000</ele>
                <time>2016-07-30T08:43:29Z</time>
            </trkpt>
            <trkpt lon="101.350207" lat="13.625990">
                <ele>172.600000</ele>
                <time>2016-07-30T08:44:37Z</time>
            </trkpt>
            <trkpt lon="101.350220" lat="13.626266">
                <ele>169.000000</ele>
                <time>2016-07-30T08:44:59Z</time>
            </trkpt>
            <trkpt lon="101.350015" lat="13.626202">
                <ele>172.200000</ele>
                <time>2016-07-30T08:45:20Z</time>
            </trkpt>
            <trkpt lon="101.349891" lat="13.626688">
                <ele>167.200000</ele>
                <time>2016-07-30T08:46:09Z</time>
            </trkpt>
            <trkpt lon="101.349682" lat="13.626976">
                <ele>163.200000</ele>
                <time>2016-07-30T08:46:31Z</time>
            </trkpt>
            <trkpt lon="101.349572" lat="13.627013">
                <ele>164.600000</ele>
                <time>2016-07-30T08:46:37Z</time>
            </trkpt>
            <trkpt lon="101.349537" lat="13.627043">
                <ele>165.000000</ele>
                <time>2016-07-30T08:46:41Z</time>
            </trkpt>
            <trkpt lon="101.349533" lat="13.627062">
                <ele>164.600000</ele>
                <time>2016-07-30T08:46:43Z</time>
            </trkpt>
            <trkpt lon="101.349255" lat="13.627488">
                <ele>161.200000</ele>
                <time>2016-07-30T08:47:24Z</time>
            </trkpt>
            <trkpt lon="101.349023" lat="13.627597">
                <ele>162.200000</ele>
                <time>2016-07-30T08:47:42Z</time>
            </trkpt>
            <trkpt lon="101.349192" lat="13.628034">
                <ele>152.600000</ele>
                <time>2016-07-30T08:48:21Z</time>
            </trkpt>
            <trkpt lon="101.348858" lat="13.628108">
                <ele>154.600000</ele>
                <time>2016-07-30T08:48:44Z</time>
            </trkpt>
            <trkpt lon="101.348646" lat="13.628276">
                <ele>150.400000</ele>
                <time>2016-07-30T08:49:01Z</time>
            </trkpt>
            <trkpt lon="101.348458" lat="13.628343">
                <ele>149.800000</ele>
                <time>2016-07-30T08:49:14Z</time>
            </trkpt>
            <trkpt lon="101.348206" lat="13.628269">
                <ele>152.800000</ele>
                <time>2016-07-30T08:49:45Z</time>
            </trkpt>
            <trkpt lon="101.348084" lat="13.628259">
                <ele>151.400000</ele>
                <time>2016-07-30T08:49:58Z</time>
            </trkpt>
            <trkpt lon="101.347839" lat="13.628571">
                <ele>151.200000</ele>
                <time>2016-07-30T08:50:45Z</time>
            </trkpt>
            <trkpt lon="101.347934" lat="13.628726">
                <ele>148.600000</ele>
                <time>2016-07-30T08:51:06Z</time>
            </trkpt>
            <trkpt lon="101.347772" lat="13.628850">
                <ele>149.800000</ele>
                <time>2016-07-30T08:51:32Z</time>
            </trkpt>
            <trkpt lon="101.347569" lat="13.628878">
                <ele>147.000000</ele>
                <time>2016-07-30T08:51:46Z</time>
            </trkpt>
            <trkpt lon="101.347434" lat="13.629148">
                <ele>145.600000</ele>
                <time>2016-07-30T08:52:09Z</time>
            </trkpt>
            <trkpt lon="101.347414" lat="13.629222">
                <ele>144.800000</ele>
                <time>2016-07-30T08:52:13Z</time>
            </trkpt>
            <trkpt lon="101.347546" lat="13.629349">
                <ele>141.400000</ele>
                <time>2016-07-30T08:52:30Z</time>
            </trkpt>
            <trkpt lon="101.347197" lat="13.629414">
                <ele>141.400000</ele>
                <time>2016-07-30T08:52:57Z</time>
            </trkpt>
            <trkpt lon="101.347122" lat="13.629423">
                <ele>140.800000</ele>
                <time>2016-07-30T08:53:00Z</time>
            </trkpt>
            <trkpt lon="101.346919" lat="13.629522">
                <ele>138.800000</ele>
                <time>2016-07-30T08:53:09Z</time>
            </trkpt>
            <trkpt lon="101.346824" lat="13.629599">
                <ele>137.200000</ele>
                <time>2016-07-30T08:53:18Z</time>
            </trkpt>
            <trkpt lon="101.346934" lat="13.629556">
                <ele>138.600000</ele>
                <time>2016-07-30T08:53:43Z</time>
            </trkpt>
            <trkpt lon="101.346978" lat="13.629658">
                <ele>135.200000</ele>
                <time>2016-07-30T08:54:18Z</time>
            </trkpt>
            <trkpt lon="101.346914" lat="13.629840">
                <ele>131.400000</ele>
                <time>2016-07-30T08:54:32Z</time>
            </trkpt>
            <trkpt lon="101.346883" lat="13.629982">
                <ele>129.400000</ele>
                <time>2016-07-30T08:54:43Z</time>
            </trkpt>
            <trkpt lon="101.346829" lat="13.630063">
                <ele>129.000000</ele>
                <time>2016-07-30T08:54:55Z</time>
            </trkpt>
            <trkpt lon="101.346695" lat="13.629978">
                <ele>133.000000</ele>
                <time>2016-07-30T08:55:19Z</time>
            </trkpt>
            <trkpt lon="101.346551" lat="13.629899">
                <ele>133.600000</ele>
                <time>2016-07-30T08:55:31Z</time>
            </trkpt>
            <trkpt lon="101.346377" lat="13.630077">
                <ele>131.000000</ele>
                <time>2016-07-30T08:55:48Z</time>
            </trkpt>
            <trkpt lon="101.345889" lat="13.630454">
                <ele>123.600000</ele>
                <time>2016-07-30T08:56:28Z</time>
            </trkpt>
            <trkpt lon="101.345814" lat="13.630560">
                <ele>122.200000</ele>
                <time>2016-07-30T08:56:45Z</time>
            </trkpt>
            <trkpt lon="101.345611" lat="13.630520">
                <ele>132.800000</ele>
                <time>2016-07-30T08:37:45Z</time>
            </trkpt>
            <trkpt lon="101.345144" lat="13.630269">
                <ele>129.920000</ele>
                <time>2016-07-30T08:38:20Z</time>
            </trkpt>
            <trkpt lon="101.344820" lat="13.630265">
                <ele>138.090000</ele>
                <time>2016-07-30T08:38:42Z</time>
            </trkpt>
            <trkpt lon="101.343277" lat="13.630697">
                <ele>112.610000</ele>
                <time>2016-07-30T08:40:42Z</time>
            </trkpt>
            <trkpt lon="101.342818" lat="13.630925">
                <ele>103.000000</ele>
                <time>2016-07-30T08:41:20Z</time>
            </trkpt>
            <trkpt lon="101.342385" lat="13.631312">
                <ele>86.180000</ele>
                <time>2016-07-30T08:42:02Z</time>
            </trkpt>
            <trkpt lon="101.342305" lat="13.631484">
                <ele>85.690000</ele>
                <time>2016-07-30T08:42:20Z</time>
            </trkpt>
            <trkpt lon="101.342257" lat="13.631542">
                <ele>82.810000</ele>
                <time>2016-07-30T08:42:30Z</time>
            </trkpt>
            <trkpt lon="101.342043" lat="13.631574">
                <ele>73.680000</ele>
                <time>2016-07-30T08:43:00Z</time>
            </trkpt>
            <trkpt lon="101.342036" lat="13.631878">
                <ele>74.640000</ele>
                <time>2016-07-30T08:43:22Z</time>
            </trkpt>
            <trkpt lon="101.341858" lat="13.632182">
                <ele>68.390000</ele>
                <time>2016-07-30T08:44:16Z</time>
            </trkpt>
            <trkpt lon="101.341567" lat="13.632215">
                <ele>65.510000</ele>
                <time>2016-07-30T08:44:43Z</time>
            </trkpt>
            <trkpt lon="101.340520" lat="13.632727">
                <ele>62.620000</ele>
                <time>2016-07-30T08:46:03Z</time>
            </trkpt>
            <trkpt lon="101.339822" lat="13.633021">
                <ele>67.430000</ele>
                <time>2016-07-30T08:47:27Z</time>
            </trkpt>
            <trkpt lon="101.339744" lat="13.633036">
                <ele>65.990000</ele>
                <time>2016-07-30T08:47:40Z</time>
            </trkpt>
            <trkpt lon="101.339525" lat="13.633212">
                <ele>67.430000</ele>
                <time>2016-07-30T08:47:56Z</time>
            </trkpt>
            <trkpt lon="101.338861" lat="13.633877">
                <ele>68.870000</ele>
                <time>2016-07-30T08:49:25Z</time>
            </trkpt>
            <trkpt lon="101.338624" lat="13.633908">
                <ele>64.550000</ele>
                <time>2016-07-30T08:49:58Z</time>
            </trkpt>
            <trkpt lon="101.338461" lat="13.634102">
                <ele>66.470000</ele>
                <time>2016-07-30T08:50:15Z</time>
            </trkpt>
            <trkpt lon="101.338359" lat="13.634308">
                <ele>65.510000</ele>
                <time>2016-07-30T08:50:48Z</time>
            </trkpt>
            <trkpt lon="101.337119" lat="13.635408">
                <ele>63.100000</ele>
                <time>2016-07-30T08:54:08Z</time>
            </trkpt>
            <trkpt lon="101.336900" lat="13.635764">
                <ele>60.220000</ele>
                <time>2016-07-30T08:55:02Z</time>
            </trkpt>
            <trkpt lon="101.336681" lat="13.636349">
                <ele>60.700000</ele>
                <time>2016-07-30T08:55:54Z</time>
            </trkpt>
            <trkpt lon="101.336462" lat="13.636594">
                <ele>57.340000</ele>
                <time>2016-07-30T08:56:21Z</time>
            </trkpt>
            <trkpt lon="101.336183" lat="13.637129">
                <ele>55.410000</ele>
                <time>2016-07-30T08:57:06Z</time>
            </trkpt>
            <trkpt lon="101.336170" lat="13.637932">
                <ele>58.780000</ele>
                <time>2016-07-30T08:58:29Z</time>
            </trkpt>
            <trkpt lon="101.336076" lat="13.638150">
                <ele>55.410000</ele>
                <time>2016-07-30T08:58:49Z</time>
            </trkpt>
            <trkpt lon="101.336331" lat="13.638853">
                <ele>57.820000</ele>
                <time>2016-07-30T08:59:17Z</time>
            </trkpt>
            <trkpt lon="101.336438" lat="13.639317">
                <ele>56.860000</ele>
                <time>2016-07-30T08:59:32Z</time>
            </trkpt>
            <trkpt lon="101.336567" lat="13.639934">
                <ele>55.890000</ele>
                <time>2016-07-30T08:59:52Z</time>
            </trkpt>
            <trkpt lon="101.336702" lat="13.639967">
                <ele>56.370000</ele>
                <time>2016-07-30T08:59:57Z</time>
            </trkpt>
            <trkpt lon="101.337001" lat="13.640006">
                <ele>58.780000</ele>
                <time>2016-07-30T09:00:10Z</time>
            </trkpt>
            <trkpt lon="101.336993" lat="13.641197">
                <ele>34.740000</ele>
                <time>2017-07-29T07:42:25Z</time>
            </trkpt>
            <trkpt lon="101.336960" lat="13.641167">
                <ele>38.590000</ele>
                <time>2017-07-29T07:43:14Z</time>
            </trkpt>
            <trkpt lon="101.336979" lat="13.641182">
                <ele>42.440000</ele>
                <time>2017-07-29T07:43:33Z</time>
            </trkpt>
            <trkpt lon="101.337228" lat="13.641273">
                <ele>41.470000</ele>
                <time>2017-07-29T07:43:46Z</time>
            </trkpt>
            <trkpt lon="101.337562" lat="13.641441">
                <ele>43.400000</ele>
                <time>2017-07-29T07:44:01Z</time>
            </trkpt>
            <trkpt lon="101.337542" lat="13.641445">
                <ele>46.280000</ele>
                <time>2017-07-29T07:44:09Z</time>
            </trkpt>
            <trkpt lon="101.337271" lat="13.641327">
                <ele>46.760000</ele>
                <time>2017-07-29T07:44:25Z</time>
            </trkpt>
            <trkpt lon="101.337262" lat="13.641309">
                <ele>45.320000</ele>
                <time>2017-07-29T07:44:48Z</time>
            </trkpt>
            <trkpt lon="101.337243" lat="13.641293">
                <ele>42.920000</ele>
                <time>2017-07-29T07:45:08Z</time>
            </trkpt>
            <trkpt lon="101.337206" lat="13.641286">
                <ele>41.470000</ele>
                <time>2017-07-29T07:45:25Z</time>
            </trkpt>
            <trkpt lon="101.337202" lat="13.641277">
                <ele>36.670000</ele>
                <time>2017-07-29T07:45:51Z</time>
            </trkpt>
            <trkpt lon="101.337188" lat="13.641269">
                <ele>35.710000</ele>
                <time>2017-07-29T07:46:19Z</time>
            </trkpt>
            <trkpt lon="101.337179" lat="13.641256">
                <ele>34.260000</ele>
                <time>2017-07-29T07:46:45Z</time>
            </trkpt>
            <trkpt lon="101.337161" lat="13.641231">
                <ele>33.780000</ele>
                <time>2017-07-29T07:46:50Z</time>
            </trkpt>
            <trkpt lon="101.336815" lat="13.641143">
                <ele>34.740000</ele>
                <time>2017-07-29T07:47:04Z</time>
            </trkpt>
            <trkpt lon="101.336801" lat="13.641135">
                <ele>34.740000</ele>
                <time>2017-07-29T07:47:05Z</time>
            </trkpt>
            <trkpt lon="101.336776" lat="13.641125">
                <ele>35.710000</ele>
                <time>2017-07-29T07:47:17Z</time>
            </trkpt>
            <trkpt lon="101.336766" lat="13.641124">
                <ele>33.780000</ele>
                <time>2017-07-29T07:47:57Z</time>
            </trkpt>
            <trkpt lon="101.336765" lat="13.641145">
                <ele>42.920000</ele>
                <time>2017-07-29T07:48:45Z</time>
            </trkpt>
            <trkpt lon="101.336786" lat="13.641127">
                <ele>48.200000</ele>
                <time>2017-07-29T07:49:23Z</time>
            </trkpt>
            <trkpt lon="101.336766" lat="13.641165">
                <ele>41.950000</ele>
                <time>2017-07-29T07:50:15Z</time>
            </trkpt>
            <trkpt lon="101.336779" lat="13.641141">
                <ele>45.320000</ele>
                <time>2017-07-29T07:50:42Z</time>
            </trkpt>
            <trkpt lon="101.336815" lat="13.641127">
                <ele>44.360000</ele>
                <time>2017-07-29T07:50:48Z</time>
            </trkpt>
            <trkpt lon="101.336875" lat="13.641140">
                <ele>43.880000</ele>
                <time>2017-07-29T07:50:52Z</time>
            </trkpt>
            <trkpt lon="101.336943" lat="13.641171">
                <ele>42.920000</ele>
                <time>2017-07-29T07:51:01Z</time>
            </trkpt>
            <trkpt lon="101.337219" lat="13.641286">
                <ele>40.990000</ele>
                <time>2017-07-29T07:51:15Z</time>
            </trkpt>
            <trkpt lon="101.337829" lat="13.641576">
                <ele>41.950000</ele>
                <time>2017-07-29T07:51:31Z</time>
            </trkpt>
            <trkpt lon="101.338607" lat="13.641977">
                <ele>41.470000</ele>
                <time>2017-07-29T07:51:48Z</time>
            </trkpt>
            <trkpt lon="101.339012" lat="13.642163">
                <ele>41.470000</ele>
                <time>2017-07-29T07:51:59Z</time>
            </trkpt>
            <trkpt lon="101.339140" lat="13.642110">
                <ele>40.510000</ele>
                <time>2017-07-29T07:52:04Z</time>
            </trkpt>
            <trkpt lon="101.339501" lat="13.641814">
                <ele>40.510000</ele>
                <time>2017-07-29T07:52:17Z</time>
            </trkpt>
            <trkpt lon="101.339906" lat="13.641821">
                <ele>40.990000</ele>
                <time>2017-07-29T07:52:29Z</time>
            </trkpt>
            <trkpt lon="101.340378" lat="13.641733">
                <ele>41.950000</ele>
                <time>2017-07-29T07:52:43Z</time>
            </trkpt>
            <trkpt lon="101.340704" lat="13.641381">
                <ele>42.920000</ele>
                <time>2017-07-29T07:52:57Z</time>
            </trkpt>
            <trkpt lon="101.341102" lat="13.641024">
                <ele>43.400000</ele>
                <time>2017-07-29T07:53:13Z</time>
            </trkpt>
            <trkpt lon="101.341488" lat="13.640802">
                <ele>42.920000</ele>
                <time>2017-07-29T07:53:27Z</time>
            </trkpt>
            <trkpt lon="101.341910" lat="13.640521">
                <ele>42.440000</ele>
                <time>2017-07-29T07:53:43Z</time>
            </trkpt>
            <trkpt lon="101.342316" lat="13.640237">
                <ele>46.280000</ele>
                <time>2017-07-29T07:54:00Z</time>
            </trkpt>
            <trkpt lon="101.342754" lat="13.640021">
                <ele>44.360000</ele>
                <time>2017-07-29T07:54:15Z</time>
            </trkpt>
            <trkpt lon="101.343238" lat="13.639786">
                <ele>44.840000</ele>
                <time>2017-07-29T07:54:29Z</time>
            </trkpt>
            <trkpt lon="101.343759" lat="13.639472">
                <ele>45.320000</ele>
                <time>2017-07-29T07:54:46Z</time>
            </trkpt>
            <trkpt lon="101.344188" lat="13.639285">
                <ele>44.360000</ele>
                <time>2017-07-29T07:55:00Z</time>
            </trkpt>
            <trkpt lon="101.344470" lat="13.639113">
                <ele>44.360000</ele>
                <time>2017-07-29T07:55:10Z</time>
            </trkpt>
            <trkpt lon="101.344885" lat="13.638591">
                <ele>47.240000</ele>
                <time>2017-07-29T07:55:29Z</time>
            </trkpt>
            <trkpt lon="101.345325" lat="13.638090">
                <ele>46.760000</ele>
                <time>2017-07-29T07:55:46Z</time>
            </trkpt>
            <trkpt lon="101.345378" lat="13.637975">
                <ele>47.240000</ele>
                <time>2017-07-29T07:55:51Z</time>
            </trkpt>
            <trkpt lon="101.345626" lat="13.637951">
                <ele>46.280000</ele>
                <time>2017-07-29T07:56:01Z</time>
            </trkpt>
            <trkpt lon="101.345694" lat="13.637991">
                <ele>45.800000</ele>
                <time>2017-07-29T07:56:04Z</time>
            </trkpt>
            <trkpt lon="101.345822" lat="13.638306">
                <ele>44.360000</ele>
                <time>2017-07-29T07:56:15Z</time>
            </trkpt>
            <trkpt lon="101.345992" lat="13.638621">
                <ele>42.920000</ele>
                <time>2017-07-29T07:56:26Z</time>
            </trkpt>
            <trkpt lon="101.346193" lat="13.639023">
                <ele>41.470000</ele>
                <time>2017-07-29T07:56:40Z</time>
            </trkpt>
            <trkpt lon="101.346284" lat="13.639176">
                <ele>41.470000</ele>
                <time>2017-07-29T07:56:51Z</time>
            </trkpt>
            <trkpt lon="101.346412" lat="13.639380">
                <ele>40.510000</ele>
                <time>2017-07-29T07:57:03Z</time>
            </trkpt>
            <trkpt lon="101.346584" lat="13.639628">
                <ele>39.070000</ele>
                <time>2017-07-29T07:57:15Z</time>
            </trkpt>
            <trkpt lon="101.346687" lat="13.639772">
                <ele>40.030000</ele>
                <time>2017-07-29T07:57:23Z</time>
            </trkpt>
            <trkpt lon="101.346720" lat="13.639794">
                <ele>40.990000</ele>
                <time>2017-07-29T07:57:35Z</time>
            </trkpt>
            <trkpt lon="101.346935" lat="13.640067">
                <ele>40.990000</ele>
                <time>2017-07-29T07:57:49Z</time>
            </trkpt>
            <trkpt lon="101.347180" lat="13.640195">
                <ele>40.030000</ele>
                <time>2017-07-29T07:58:02Z</time>
            </trkpt>
            <trkpt lon="101.347394" lat="13.640397">
                <ele>39.550000</ele>
                <time>2017-07-29T07:58:15Z</time>
            </trkpt>
            <trkpt lon="101.347806" lat="13.640678">
                <ele>38.110000</ele>
                <time>2017-07-29T07:58:30Z</time>
            </trkpt>
            <trkpt lon="101.348036" lat="13.640812">
                <ele>37.150000</ele>
                <time>2017-07-29T07:58:38Z</time>
            </trkpt>
            <trkpt lon="101.348074" lat="13.640828">
                <ele>37.150000</ele>
                <time>2017-07-29T07:58:39Z</time>
            </trkpt>
            <trkpt lon="101.348282" lat="13.640904">
                <ele>37.150000</ele>
                <time>2017-07-29T07:58:44Z</time>
            </trkpt>
            <trkpt lon="101.348319" lat="13.640922">
                <ele>37.150000</ele>
                <time>2017-07-29T07:58:45Z</time>
            </trkpt>
            <trkpt lon="101.348363" lat="13.640940">
                <ele>37.150000</ele>
                <time>2017-07-29T07:58:46Z</time>
            </trkpt>
            <trkpt lon="101.349044" lat="13.641188">
                <ele>38.110000</ele>
                <time>2017-07-29T07:59:02Z</time>
            </trkpt>
            <trkpt lon="101.349440" lat="13.641296">
                <ele>39.070000</ele>
                <time>2017-07-29T07:59:13Z</time>
            </trkpt>
            <trkpt lon="101.349473" lat="13.641277">
                <ele>39.070000</ele>
                <time>2017-07-29T07:59:14Z</time>
            </trkpt>
            <trkpt lon="101.349503" lat="13.641248">
                <ele>39.550000</ele>
                <time>2017-07-29T07:59:15Z</time>
            </trkpt>
            <trkpt lon="101.349522" lat="13.641219">
                <ele>39.550000</ele>
                <time>2017-07-29T07:59:16Z</time>
            </trkpt>
            <trkpt lon="101.349541" lat="13.641185">
                <ele>39.550000</ele>
                <time>2017-07-29T07:59:17Z</time>
            </trkpt>
            <trkpt lon="101.349552" lat="13.641156">
                <ele>39.070000</ele>
                <time>2017-07-29T07:59:18Z</time>
            </trkpt>
            <trkpt lon="101.349563" lat="13.641122">
                <ele>39.070000</ele>
                <time>2017-07-29T07:59:19Z</time>
            </trkpt>
            <trkpt lon="101.349695" lat="13.640594">
                <ele>38.110000</ele>
                <time>2017-07-29T07:59:35Z</time>
            </trkpt>
            <trkpt lon="101.349998" lat="13.640089">
                <ele>39.550000</ele>
                <time>2017-07-29T07:59:51Z</time>
            </trkpt>
            <trkpt lon="101.350327" lat="13.639880">
                <ele>40.030000</ele>
                <time>2017-07-29T08:00:01Z</time>
            </trkpt>
            <trkpt lon="101.350647" lat="13.639843">
                <ele>40.510000</ele>
                <time>2017-07-29T08:00:11Z</time>
            </trkpt>
            <trkpt lon="101.351253" lat="13.640085">
                <ele>40.510000</ele>
                <time>2017-07-29T08:00:27Z</time>
            </trkpt>
            <trkpt lon="101.351911" lat="13.640343">
                <ele>40.510000</ele>
                <time>2017-07-29T08:00:44Z</time>
            </trkpt>
            <trkpt lon="101.352675" lat="13.640674">
                <ele>39.550000</ele>
                <time>2017-07-29T08:01:00Z</time>
            </trkpt>
            <trkpt lon="101.352721" lat="13.640702">
                <ele>39.550000</ele>
                <time>2017-07-29T08:01:01Z</time>
            </trkpt>
            <trkpt lon="101.353425" lat="13.640829">
                <ele>37.630000</ele>
                <time>2017-07-29T08:01:14Z</time>
            </trkpt>
            <trkpt lon="101.353534" lat="13.640832">
                <ele>37.630000</ele>
                <time>2017-07-29T08:01:16Z</time>
            </trkpt>
            <trkpt lon="101.354123" lat="13.640760">
                <ele>39.550000</ele>
                <time>2017-07-29T08:01:31Z</time>
            </trkpt>
            <trkpt lon="101.354440" lat="13.640603">
                <ele>40.990000</ele>
                <time>2017-07-29T08:01:43Z</time>
            </trkpt>
            <trkpt lon="101.354965" lat="13.640644">
                <ele>41.950000</ele>
                <time>2017-07-29T08:01:57Z</time>
            </trkpt>
            <trkpt lon="101.355656" lat="13.640844">
                <ele>41.950000</ele>
                <time>2017-07-29T08:02:15Z</time>
            </trkpt>
            <trkpt lon="101.356244" lat="13.640972">
                <ele>42.440000</ele>
                <time>2017-07-29T08:02:31Z</time>
            </trkpt>
            <trkpt lon="101.356551" lat="13.641095">
                <ele>42.440000</ele>
                <time>2017-07-29T08:02:39Z</time>
            </trkpt>
            <trkpt lon="101.356582" lat="13.641117">
                <ele>41.950000</ele>
                <time>2017-07-29T08:02:40Z</time>
            </trkpt>
            <trkpt lon="101.356613" lat="13.641141">
                <ele>41.950000</ele>
                <time>2017-07-29T08:02:41Z</time>
            </trkpt>
            <trkpt lon="101.357038" lat="13.641534">
                <ele>40.990000</ele>
                <time>2017-07-29T08:02:55Z</time>
            </trkpt>
            <trkpt lon="101.357070" lat="13.641565">
                <ele>40.510000</ele>
                <time>2017-07-29T08:02:56Z</time>
            </trkpt>
            <trkpt lon="101.357101" lat="13.641596">
                <ele>40.510000</ele>
                <time>2017-07-29T08:02:57Z</time>
            </trkpt>
            <trkpt lon="101.357133" lat="13.641626">
                <ele>40.510000</ele>
                <time>2017-07-29T08:02:58Z</time>
            </trkpt>
            <trkpt lon="101.357164" lat="13.641654">
                <ele>40.510000</ele>
                <time>2017-07-29T08:02:59Z</time>
            </trkpt>
            <trkpt lon="101.357598" lat="13.642022">
                <ele>40.030000</ele>
                <time>2017-07-29T08:03:14Z</time>
            </trkpt>
            <trkpt lon="101.357989" lat="13.642355">
                <ele>40.030000</ele>
                <time>2017-07-29T08:03:29Z</time>
            </trkpt>
            <trkpt lon="101.358333" lat="13.642591">
                <ele>40.030000</ele>
                <time>2017-07-29T08:03:42Z</time>
            </trkpt>
            <trkpt lon="101.358341" lat="13.642610">
                <ele>40.030000</ele>
                <time>2017-07-29T08:03:43Z</time>
            </trkpt>
            <trkpt lon="101.358340" lat="13.642628">
                <ele>40.030000</ele>
                <time>2017-07-29T08:03:44Z</time>
            </trkpt>
            <trkpt lon="101.358333" lat="13.642646">
                <ele>40.030000</ele>
                <time>2017-07-29T08:03:45Z</time>
            </trkpt>
            <trkpt lon="101.358322" lat="13.642662">
                <ele>40.030000</ele>
                <time>2017-07-29T08:03:46Z</time>
            </trkpt>
            <trkpt lon="101.358307" lat="13.642678">
                <ele>39.550000</ele>
                <time>2017-07-29T08:03:47Z</time>
            </trkpt>
            <trkpt lon="101.358290" lat="13.642692">
                <ele>39.550000</ele>
                <time>2017-07-29T08:03:48Z</time>
            </trkpt>
            <trkpt lon="101.358270" lat="13.642704">
                <ele>39.550000</ele>
                <time>2017-07-29T08:03:49Z</time>
            </trkpt>
            <trkpt lon="101.357840" lat="13.642917">
                <ele>39.070000</ele>
                <time>2017-07-29T08:04:03Z</time>
            </trkpt>
            <trkpt lon="101.357819" lat="13.642950">
                <ele>39.070000</ele>
                <time>2017-07-29T08:04:04Z</time>
            </trkpt>
            <trkpt lon="101.357793" lat="13.643146">
                <ele>37.630000</ele>
                <time>2017-07-29T08:04:09Z</time>
            </trkpt>
            <trkpt lon="101.357840" lat="13.643559">
                <ele>38.590000</ele>
                <time>2017-07-29T08:04:20Z</time>
            </trkpt>
            <trkpt lon="101.357875" lat="13.643776">
                <ele>39.550000</ele>
                <time>2017-07-29T08:04:25Z</time>
            </trkpt>
            <trkpt lon="101.357962" lat="13.644306">
                <ele>41.950000</ele>
                <time>2017-07-29T08:04:36Z</time>
            </trkpt>
            <trkpt lon="101.357955" lat="13.644366">
                <ele>41.950000</ele>
                <time>2017-07-29T08:04:37Z</time>
            </trkpt>
            <trkpt lon="101.357940" lat="13.644426">
                <ele>41.950000</ele>
                <time>2017-07-29T08:04:38Z</time>
            </trkpt>
            <trkpt lon="101.357814" lat="13.644787">
                <ele>40.990000</ele>
                <time>2017-07-29T08:04:45Z</time>
            </trkpt>
            <trkpt lon="101.357805" lat="13.644840">
                <ele>40.510000</ele>
                <time>2017-07-29T08:04:46Z</time>
            </trkpt>
            <trkpt lon="101.357801" lat="13.644886">
                <ele>40.510000</ele>
                <time>2017-07-29T08:04:47Z</time>
            </trkpt>
            <trkpt lon="101.357789" lat="13.644983">
                <ele>39.550000</ele>
                <time>2017-07-29T08:04:49Z</time>
            </trkpt>
            <trkpt lon="101.357750" lat="13.645185">
                <ele>38.590000</ele>
                <time>2017-07-29T08:04:53Z</time>
            </trkpt>
            <trkpt lon="101.357733" lat="13.645232">
                <ele>38.590000</ele>
                <time>2017-07-29T08:04:54Z</time>
            </trkpt>
            <trkpt lon="101.357707" lat="13.645276">
                <ele>38.590000</ele>
                <time>2017-07-29T08:04:55Z</time>
            </trkpt>
            <trkpt lon="101.357602" lat="13.645457">
                <ele>38.110000</ele>
                <time>2017-07-29T08:04:59Z</time>
            </trkpt>
            <trkpt lon="101.357582" lat="13.645509">
                <ele>37.630000</ele>
                <time>2017-07-29T08:05:00Z</time>
            </trkpt>
            <trkpt lon="101.357554" lat="13.645615">
                <ele>37.630000</ele>
                <time>2017-07-29T08:05:02Z</time>
            </trkpt>
            <trkpt lon="101.357548" lat="13.645670">
                <ele>37.150000</ele>
                <time>2017-07-29T08:05:03Z</time>
            </trkpt>
            <trkpt lon="101.357550" lat="13.645727">
                <ele>37.150000</ele>
                <time>2017-07-29T08:05:04Z</time>
            </trkpt>
            <trkpt lon="101.357556" lat="13.645784">
                <ele>37.150000</ele>
                <time>2017-07-29T08:05:05Z</time>
            </trkpt>
            <trkpt lon="101.357564" lat="13.645840">
                <ele>37.150000</ele>
                <time>2017-07-29T08:05:06Z</time>
            </trkpt>
            <trkpt lon="101.357576" lat="13.645946">
                <ele>36.670000</ele>
                <time>2017-07-29T08:05:08Z</time>
            </trkpt>
            <trkpt lon="101.357621" lat="13.646498">
                <ele>35.230000</ele>
                <time>2017-07-29T08:05:19Z</time>
            </trkpt>
            <trkpt lon="101.357624" lat="13.646601">
                <ele>34.740000</ele>
                <time>2017-07-29T08:05:21Z</time>
            </trkpt>
            <trkpt lon="101.357629" lat="13.646653">
                <ele>34.740000</ele>
                <time>2017-07-29T08:05:22Z</time>
            </trkpt>
            <trkpt lon="101.357640" lat="13.646749">
                <ele>34.260000</ele>
                <time>2017-07-29T08:05:24Z</time>
            </trkpt>
            <trkpt lon="101.357648" lat="13.646795">
                <ele>33.780000</ele>
                <time>2017-07-29T08:05:25Z</time>
            </trkpt>
            <trkpt lon="101.357684" lat="13.646967">
                <ele>32.820000</ele>
                <time>2017-07-29T08:05:29Z</time>
            </trkpt>
            <trkpt lon="101.357698" lat="13.647012">
                <ele>32.820000</ele>
                <time>2017-07-29T08:05:30Z</time>
            </trkpt>
            <trkpt lon="101.357708" lat="13.647058">
                <ele>32.820000</ele>
                <time>2017-07-29T08:05:31Z</time>
            </trkpt>
            <trkpt lon="101.357716" lat="13.647154">
                <ele>32.340000</ele>
                <time>2017-07-29T08:05:33Z</time>
            </trkpt>
            <trkpt lon="101.357534" lat="13.647870">
                <ele>30.900000</ele>
                <time>2017-07-29T08:05:48Z</time>
            </trkpt>
            <trkpt lon="101.357261" lat="13.648446">
                <ele>30.420000</ele>
                <time>2017-07-29T08:06:02Z</time>
            </trkpt>
            <trkpt lon="101.357240" lat="13.648485">
                <ele>29.940000</ele>
                <time>2017-07-29T08:06:03Z</time>
            </trkpt>
            <trkpt lon="101.357221" lat="13.648525">
                <ele>29.940000</ele>
                <time>2017-07-29T08:06:04Z</time>
            </trkpt>
            <trkpt lon="101.357126" lat="13.648713">
                <ele>29.940000</ele>
                <time>2017-07-29T08:06:09Z</time>
            </trkpt>
            <trkpt lon="101.357109" lat="13.648754">
                <ele>29.460000</ele>
                <time>2017-07-29T08:06:10Z</time>
            </trkpt>
            <trkpt lon="101.357091" lat="13.648796">
                <ele>29.460000</ele>
                <time>2017-07-29T08:06:11Z</time>
            </trkpt>
            <trkpt lon="101.357022" lat="13.648919">
                <ele>29.460000</ele>
                <time>2017-07-29T08:06:14Z</time>
            </trkpt>
            <trkpt lon="101.357000" lat="13.648956">
                <ele>29.460000</ele>
                <time>2017-07-29T08:06:15Z</time>
            </trkpt>
            <trkpt lon="101.356985" lat="13.648998">
                <ele>29.460000</ele>
                <time>2017-07-29T08:06:16Z</time>
            </trkpt>
            <trkpt lon="101.356971" lat="13.649036">
                <ele>29.460000</ele>
                <time>2017-07-29T08:06:17Z</time>
            </trkpt>
            <trkpt lon="101.356953" lat="13.649075">
                <ele>29.460000</ele>
                <time>2017-07-29T08:06:18Z</time>
            </trkpt>
            <trkpt lon="101.356728" lat="13.649615">
                <ele>28.980000</ele>
                <time>2017-07-29T08:06:30Z</time>
            </trkpt>
            <trkpt lon="101.356726" lat="13.649663">
                <ele>28.980000</ele>
                <time>2017-07-29T08:06:31Z</time>
            </trkpt>
            <trkpt lon="101.356728" lat="13.649711">
                <ele>28.500000</ele>
                <time>2017-07-29T08:06:32Z</time>
            </trkpt>
            <trkpt lon="101.356730" lat="13.649758">
                <ele>28.500000</ele>
                <time>2017-07-29T08:06:33Z</time>
            </trkpt>
            <trkpt lon="101.356736" lat="13.649807">
                <ele>28.020000</ele>
                <time>2017-07-29T08:06:34Z</time>
            </trkpt>
            <trkpt lon="101.356745" lat="13.649854">
                <ele>28.020000</ele>
                <time>2017-07-29T08:06:35Z</time>
            </trkpt>
            <trkpt lon="101.356947" lat="13.650522">
                <ele>28.500000</ele>
                <time>2017-07-29T08:06:49Z</time>
            </trkpt>
            <trkpt lon="101.356803" lat="13.650791">
                <ele>28.500000</ele>
                <time>2017-07-29T08:06:58Z</time>
            </trkpt>
            <trkpt lon="101.356499" lat="13.650943">
                <ele>28.020000</ele>
                <time>2017-07-29T08:07:10Z</time>
            </trkpt>
            <trkpt lon="101.356417" lat="13.651005">
                <ele>28.500000</ele>
                <time>2017-07-29T08:07:16Z</time>
            </trkpt>
            <trkpt lon="101.356405" lat="13.651031">
                <ele>28.500000</ele>
                <time>2017-07-29T08:07:17Z</time>
            </trkpt>
            <trkpt lon="101.356395" lat="13.651054">
                <ele>28.500000</ele>
                <time>2017-07-29T08:07:18Z</time>
            </trkpt>
            <trkpt lon="101.356375" lat="13.651073">
                <ele>28.500000</ele>
                <time>2017-07-29T08:07:19Z</time>
            </trkpt>
            <trkpt lon="101.356352" lat="13.651088">
                <ele>28.500000</ele>
                <time>2017-07-29T08:07:20Z</time>
            </trkpt>
            <trkpt lon="101.356331" lat="13.651095">
                <ele>28.500000</ele>
                <time>2017-07-29T08:07:21Z</time>
            </trkpt>
            <trkpt lon="101.356311" lat="13.651091">
                <ele>28.020000</ele>
                <time>2017-07-29T08:07:22Z</time>
            </trkpt>
            <trkpt lon="101.356295" lat="13.651082">
                <ele>28.020000</ele>
                <time>2017-07-29T08:07:23Z</time>
            </trkpt>
            <trkpt lon="101.356277" lat="13.651075">
                <ele>28.020000</ele>
                <time>2017-07-29T08:07:24Z</time>
            </trkpt>
            <trkpt lon="101.356253" lat="13.651074">
                <ele>28.500000</ele>
                <time>2017-07-29T08:07:25Z</time>
            </trkpt>
            <trkpt lon="101.356222" lat="13.651084">
                <ele>28.500000</ele>
                <time>2017-07-29T08:07:26Z</time>
            </trkpt>
            <trkpt lon="101.356197" lat="13.651096">
                <ele>28.500000</ele>
                <time>2017-07-29T08:07:27Z</time>
            </trkpt>
            <trkpt lon="101.356095" lat="13.651110">
                <ele>28.980000</ele>
                <time>2017-07-29T08:07:30Z</time>
            </trkpt>
            <trkpt lon="101.356022" lat="13.651161">
                <ele>28.980000</ele>
                <time>2017-07-29T08:07:40Z</time>
            </trkpt>
            <trkpt lon="101.356021" lat="13.651162">
                <ele>28.980000</ele>
                <time>2017-07-29T08:07:42Z</time>
            </trkpt>
            <trkpt lon="101.356013" lat="13.651190">
                <ele>28.980000</ele>
                <time>2017-07-29T08:07:44Z</time>
            </trkpt>
            <trkpt lon="101.356004" lat="13.651218">
                <ele>28.980000</ele>
                <time>2017-07-29T08:07:45Z</time>
            </trkpt>
            <trkpt lon="101.355995" lat="13.651242">
                <ele>28.980000</ele>
                <time>2017-07-29T08:07:46Z</time>
            </trkpt>
            <trkpt lon="101.355980" lat="13.651274">
                <ele>29.460000</ele>
                <time>2017-07-29T08:07:47Z</time>
            </trkpt>
            <trkpt lon="101.355961" lat="13.651309">
                <ele>29.460000</ele>
                <time>2017-07-29T08:07:48Z</time>
            </trkpt>
            <trkpt lon="101.355942" lat="13.651345">
                <ele>29.460000</ele>
                <time>2017-07-29T08:07:49Z</time>
            </trkpt>
            <trkpt lon="101.355925" lat="13.651383">
                <ele>29.460000</ele>
                <time>2017-07-29T08:07:50Z</time>
            </trkpt>
            <trkpt lon="101.355744" lat="13.651980">
                <ele>28.980000</ele>
                <time>2017-07-29T08:08:04Z</time>
            </trkpt>
            <trkpt lon="101.355714" lat="13.652022">
                <ele>29.460000</ele>
                <time>2017-07-29T08:08:05Z</time>
            </trkpt>
            <trkpt lon="101.355684" lat="13.652060">
                <ele>28.980000</ele>
                <time>2017-07-29T08:08:06Z</time>
            </trkpt>
            <trkpt lon="101.355650" lat="13.652095">
                <ele>28.980000</ele>
                <time>2017-07-29T08:08:07Z</time>
            </trkpt>
            <trkpt lon="101.355297" lat="13.652389">
                <ele>28.020000</ele>
                <time>2017-07-29T08:08:16Z</time>
            </trkpt>
            <trkpt lon="101.355064" lat="13.652538">
                <ele>28.020000</ele>
                <time>2017-07-29T08:08:25Z</time>
            </trkpt>
            <trkpt lon="101.355066" lat="13.652549">
                <ele>28.500000</ele>
                <time>2017-07-29T08:08:26Z</time>
            </trkpt>
            <trkpt lon="101.355075" lat="13.652556">
                <ele>28.020000</ele>
                <time>2017-07-29T08:08:27Z</time>
            </trkpt>
            <trkpt lon="101.355090" lat="13.652550">
                <ele>28.500000</ele>
                <time>2017-07-29T08:08:28Z</time>
            </trkpt>
            <trkpt lon="101.355104" lat="13.652535">
                <ele>28.500000</ele>
                <time>2017-07-29T08:08:29Z</time>
            </trkpt>
            <trkpt lon="101.355118" lat="13.652522">
                <ele>28.500000</ele>
                <time>2017-07-29T08:08:30Z</time>
            </trkpt>
            <trkpt lon="101.355136" lat="13.652504">
                <ele>28.500000</ele>
                <time>2017-07-29T08:08:31Z</time>
            </trkpt>
            <trkpt lon="101.355172" lat="13.652478">
                <ele>28.500000</ele>
                <time>2017-07-29T08:08:33Z</time>
            </trkpt>
            <trkpt lon="101.355188" lat="13.652478">
                <ele>28.500000</ele>
                <time>2017-07-29T08:08:34Z</time>
            </trkpt>
            <trkpt lon="101.355225" lat="13.652525">
                <ele>27.530000</ele>
                <time>2017-07-29T08:08:44Z</time>
            </trkpt>
            <trkpt lon="101.355244" lat="13.652548">
                <ele>28.020000</ele>
                <time>2017-07-29T08:08:46Z</time>
            </trkpt>
            <trkpt lon="101.355547" lat="13.652781">
                <ele>28.500000</ele>
                <time>2017-07-29T08:09:01Z</time>
            </trkpt>
            <trkpt lon="101.355657" lat="13.653054">
                <ele>28.500000</ele>
                <time>2017-07-29T08:09:13Z</time>
            </trkpt>
            <trkpt lon="101.355750" lat="13.653326">
                <ele>28.020000</ele>
                <time>2017-07-29T08:09:28Z</time>
            </trkpt>
            <trkpt lon="101.355816" lat="13.653444">
                <ele>28.500000</ele>
                <time>2017-07-29T08:09:42Z</time>
            </trkpt>
            <trkpt lon="101.355863" lat="13.653537">
                <ele>29.460000</ele>
                <time>2017-07-29T08:10:00Z</time>
            </trkpt>
            <trkpt lon="101.355967" lat="13.653780">
                <ele>28.980000</ele>
                <time>2017-07-29T08:10:13Z</time>
            </trkpt>
            <trkpt lon="101.356028" lat="13.653968">
                <ele>28.500000</ele>
                <time>2017-07-29T08:10:27Z</time>
            </trkpt>
            <trkpt lon="101.356125" lat="13.654238">
                <ele>27.050000</ele>
                <time>2017-07-29T08:10:42Z</time>
            </trkpt>
            <trkpt lon="101.356175" lat="13.654475">
                <ele>27.050000</ele>
                <time>2017-07-29T08:10:54Z</time>
            </trkpt>
            <trkpt lon="101.356192" lat="13.654486">
                <ele>27.050000</ele>
                <time>2017-07-29T08:10:55Z</time>
            </trkpt>
            <trkpt lon="101.356209" lat="13.654499">
                <ele>27.050000</ele>
                <time>2017-07-29T08:10:56Z</time>
            </trkpt>
            <trkpt lon="101.356226" lat="13.654516">
                <ele>27.050000</ele>
                <time>2017-07-29T08:10:57Z</time>
            </trkpt>
            <trkpt lon="101.356238" lat="13.654543">
                <ele>27.050000</ele>
                <time>2017-07-29T08:10:58Z</time>
            </trkpt>
            <trkpt lon="101.356298" lat="13.654721">
                <ele>26.570000</ele>
                <time>2017-07-29T08:11:03Z</time>
            </trkpt>
            <trkpt lon="101.356369" lat="13.654963">
                <ele>26.570000</ele>
                <time>2017-07-29T08:11:10Z</time>
            </trkpt>
            <trkpt lon="101.356432" lat="13.655193">
                <ele>27.050000</ele>
                <time>2017-07-29T08:11:22Z</time>
            </trkpt>
            <trkpt lon="101.356579" lat="13.655753">
                <ele>28.980000</ele>
                <time>2017-07-29T08:11:37Z</time>
            </trkpt>
            <trkpt lon="101.356609" lat="13.655872">
                <ele>29.460000</ele>
                <time>2017-07-29T08:11:40Z</time>
            </trkpt>
            <trkpt lon="101.356570" lat="13.656046">
                <ele>29.940000</ele>
                <time>2017-07-29T08:11:46Z</time>
            </trkpt>
            <trkpt lon="101.356264" lat="13.656138">
                <ele>28.980000</ele>
                <time>2017-07-29T08:11:54Z</time>
            </trkpt>
            <trkpt lon="101.356234" lat="13.656213">
                <ele>28.020000</ele>
                <time>2017-07-29T08:11:58Z</time>
            </trkpt>
            <trkpt lon="101.356315" lat="13.656693">
                <ele>27.530000</ele>
                <time>2017-07-29T08:12:12Z</time>
            </trkpt>
            <trkpt lon="101.356345" lat="13.657123">
                <ele>26.570000</ele>
                <time>2017-07-29T08:12:24Z</time>
            </trkpt>
            <trkpt lon="101.356370" lat="13.657521">
                <ele>24.650000</ele>
                <time>2017-07-29T08:12:37Z</time>
            </trkpt>
            <trkpt lon="101.356408" lat="13.657919">
                <ele>24.170000</ele>
                <time>2017-07-29T08:12:49Z</time>
            </trkpt>
            <trkpt lon="101.356246" lat="13.658204">
                <ele>23.210000</ele>
                <time>2017-07-29T08:13:00Z</time>
            </trkpt>
            <trkpt lon="101.356075" lat="13.658457">
                <ele>19.840000</ele>
                <time>2017-07-29T08:13:12Z</time>
            </trkpt>
            <trkpt lon="101.356028" lat="13.658845">
                <ele>20.320000</ele>
                <time>2017-07-29T08:13:25Z</time>
            </trkpt>
            <trkpt lon="101.355860" lat="13.659335">
                <ele>23.210000</ele>
                <time>2017-07-29T08:13:38Z</time>
            </trkpt>
            <trkpt lon="101.355746" lat="13.659884">
                <ele>24.170000</ele>
                <time>2017-07-29T08:13:52Z</time>
            </trkpt>
            <trkpt lon="101.355653" lat="13.660295">
                <ele>25.130000</ele>
                <time>2017-07-29T08:14:03Z</time>
            </trkpt>
            <trkpt lon="101.355630" lat="13.660612">
                <ele>25.610000</ele>
                <time>2017-07-29T08:14:11Z</time>
            </trkpt>
            <trkpt lon="101.355410" lat="13.660788">
                <ele>25.130000</ele>
                <time>2017-07-29T08:14:18Z</time>
            </trkpt>
            <trkpt lon="101.355090" lat="13.660839">
                <ele>24.650000</ele>
                <time>2017-07-29T08:14:25Z</time>
            </trkpt>
            <trkpt lon="101.355068" lat="13.660990">
                <ele>24.170000</ele>
                <time>2017-07-29T08:14:30Z</time>
            </trkpt>
            <trkpt lon="101.355209" lat="13.661259">
                <ele>23.690000</ele>
                <time>2017-07-29T08:14:39Z</time>
            </trkpt>
            <trkpt lon="101.355383" lat="13.661675">
                <ele>23.210000</ele>
                <time>2017-07-29T08:14:50Z</time>
            </trkpt>
            <trkpt lon="101.355373" lat="13.661713">
                <ele>23.210000</ele>
                <time>2017-07-29T08:14:51Z</time>
            </trkpt>
            <trkpt lon="101.355321" lat="13.661877">
                <ele>23.210000</ele>
                <time>2017-07-29T08:14:55Z</time>
            </trkpt>
            <trkpt lon="101.355282" lat="13.661968">
                <ele>23.210000</ele>
                <time>2017-07-29T08:14:57Z</time>
            </trkpt>
            <trkpt lon="101.354944" lat="13.662755">
                <ele>22.730000</ele>
                <time>2017-07-29T08:15:13Z</time>
            </trkpt>
            <trkpt lon="101.354560" lat="13.663454">
                <ele>21.770000</ele>
                <time>2017-07-29T08:15:27Z</time>
            </trkpt>
            <trkpt lon="101.354532" lat="13.663504">
                <ele>21.770000</ele>
                <time>2017-07-29T08:15:28Z</time>
            </trkpt>
            <trkpt lon="101.354512" lat="13.663558">
                <ele>21.290000</ele>
                <time>2017-07-29T08:15:29Z</time>
            </trkpt>
            <trkpt lon="101.354500" lat="13.663617">
                <ele>21.290000</ele>
                <time>2017-07-29T08:15:30Z</time>
            </trkpt>
            <trkpt lon="101.354498" lat="13.663678">
                <ele>21.290000</ele>
                <time>2017-07-29T08:15:31Z</time>
            </trkpt>
            <trkpt lon="101.354504" lat="13.663738">
                <ele>20.810000</ele>
                <time>2017-07-29T08:15:32Z</time>
            </trkpt>
            <trkpt lon="101.354516" lat="13.663799">
                <ele>20.810000</ele>
                <time>2017-07-29T08:15:33Z</time>
            </trkpt>
            <trkpt lon="101.354533" lat="13.663856">
                <ele>20.320000</ele>
                <time>2017-07-29T08:15:34Z</time>
            </trkpt>
            <trkpt lon="101.354554" lat="13.663915">
                <ele>20.320000</ele>
                <time>2017-07-29T08:15:35Z</time>
            </trkpt>
            <trkpt lon="101.354763" lat="13.664561">
                <ele>19.840000</ele>
                <time>2017-07-29T08:15:48Z</time>
            </trkpt>
            <trkpt lon="101.354798" lat="13.664752">
                <ele>20.810000</ele>
                <time>2017-07-29T08:15:52Z</time>
            </trkpt>
            <trkpt lon="101.354848" lat="13.665042">
                <ele>21.290000</ele>
                <time>2017-07-29T08:15:59Z</time>
            </trkpt>
            <trkpt lon="101.354857" lat="13.665046">
                <ele>21.290000</ele>
                <time>2017-07-29T08:16:00Z</time>
            </trkpt>
            <trkpt lon="101.355120" lat="13.665029">
                <ele>23.210000</ele>
                <time>2017-07-29T08:16:13Z</time>
            </trkpt>
            <trkpt lon="101.355554" lat="13.665040">
                <ele>31.380000</ele>
                <time>2017-07-29T08:16:27Z</time>
            </trkpt>
            <trkpt lon="101.355954" lat="13.665062">
                <ele>37.150000</ele>
                <time>2017-07-29T08:16:39Z</time>
            </trkpt>
            <trkpt lon="101.356338" lat="13.665076">
                <ele>38.110000</ele>
                <time>2017-07-29T08:16:50Z</time>
            </trkpt>
            <trkpt lon="101.356504" lat="13.665099">
                <ele>38.590000</ele>
                <time>2017-07-29T08:16:56Z</time>
            </trkpt>
            <trkpt lon="101.356934" lat="13.665107">
                <ele>38.110000</ele>
                <time>2017-07-29T08:17:09Z</time>
            </trkpt>
            <trkpt lon="101.357090" lat="13.665114">
                <ele>37.150000</ele>
                <time>2017-07-29T08:17:14Z</time>
            </trkpt>
            <trkpt lon="101.357144" lat="13.665230">
                <ele>35.230000</ele>
                <time>2017-07-29T08:17:20Z</time>
            </trkpt>
            <trkpt lon="101.357105" lat="13.665411">
                <ele>28.980000</ele>
                <time>2017-07-29T08:17:33Z</time>
            </trkpt>
            <trkpt lon="101.357119" lat="13.665561">
                <ele>27.530000</ele>
                <time>2017-07-29T08:17:43Z</time>
            </trkpt>
            <trkpt lon="101.357153" lat="13.665709">
                <ele>28.980000</ele>
                <time>2017-07-29T08:17:51Z</time>
            </trkpt>
            <trkpt lon="101.357196" lat="13.665821">
                <ele>30.420000</ele>
                <time>2017-07-29T08:18:05Z</time>
            </trkpt>
            <trkpt lon="101.357303" lat="13.665885">
                <ele>30.420000</ele>
                <time>2017-07-29T08:18:21Z</time>
            </trkpt>
            <trkpt lon="101.357442" lat="13.665908">
                <ele>31.380000</ele>
                <time>2017-07-29T08:18:35Z</time>
            </trkpt>
            <trkpt lon="101.357559" lat="13.665980">
                <ele>31.380000</ele>
                <time>2017-07-29T08:18:49Z</time>
            </trkpt>
            <trkpt lon="101.357621" lat="13.665933">
                <ele>31.380000</ele>
                <time>2017-07-29T08:19:03Z</time>
            </trkpt>
            <trkpt lon="101.357661" lat="13.665932">
                <ele>31.860000</ele>
                <time>2017-07-29T08:19:16Z</time>
            </trkpt>
            <trkpt lon="101.357748" lat="13.665908">
                <ele>31.380000</ele>
                <time>2017-07-29T08:19:31Z</time>
            </trkpt>
            <trkpt lon="101.357888" lat="13.665915">
                <ele>28.020000</ele>
                <time>2017-07-29T08:19:46Z</time>
            </trkpt>
            <trkpt lon="101.357917" lat="13.665911">
                <ele>27.530000</ele>
                <time>2017-07-29T08:19:52Z</time>
            </trkpt>
            <trkpt lon="101.358149" lat="13.665935">
                <ele>30.900000</ele>
                <time>2017-07-29T08:20:07Z</time>
            </trkpt>
            <trkpt lon="101.358270" lat="13.665953">
                <ele>30.900000</ele>
                <time>2017-07-29T08:20:20Z</time>
            </trkpt>
            <trkpt lon="101.358356" lat="13.665953">
                <ele>27.050000</ele>
                <time>2017-07-29T08:20:39Z</time>
            </trkpt>
            <trkpt lon="101.358510" lat="13.665961">
                <ele>26.570000</ele>
                <time>2017-07-29T08:20:55Z</time>
            </trkpt>
            <trkpt lon="101.358579" lat="13.666004">
                <ele>25.610000</ele>
                <time>2017-07-29T08:21:10Z</time>
            </trkpt>
            <trkpt lon="101.358680" lat="13.666065">
                <ele>25.130000</ele>
                <time>2017-07-29T08:21:28Z</time>
            </trkpt>
            <trkpt lon="101.358708" lat="13.666101">
                <ele>25.610000</ele>
                <time>2017-07-29T08:21:32Z</time>
            </trkpt>
            <trkpt lon="101.358741" lat="13.666153">
                <ele>26.090000</ele>
                <time>2017-07-29T08:21:37Z</time>
            </trkpt>
            <trkpt lon="101.358801" lat="13.666291">
                <ele>28.020000</ele>
                <time>2017-07-29T08:21:51Z</time>
            </trkpt>
            <trkpt lon="101.358869" lat="13.666421">
                <ele>28.980000</ele>
                <time>2017-07-29T08:22:03Z</time>
            </trkpt>
            <trkpt lon="101.358929" lat="13.666556">
                <ele>28.500000</ele>
                <time>2017-07-29T08:22:14Z</time>
            </trkpt>
            <trkpt lon="101.358996" lat="13.666655">
                <ele>28.020000</ele>
                <time>2017-07-29T08:22:24Z</time>
            </trkpt>
            <trkpt lon="101.359114" lat="13.666655">
                <ele>27.530000</ele>
                <time>2017-07-29T08:22:35Z</time>
            </trkpt>
            <trkpt lon="101.359177" lat="13.666687">
                <ele>27.530000</ele>
                <time>2017-07-29T08:22:39Z</time>
            </trkpt>
            <trkpt lon="101.359276" lat="13.666722">
                <ele>25.610000</ele>
                <time>2017-07-29T08:22:52Z</time>
            </trkpt>
            <trkpt lon="101.359296" lat="13.666717">
                <ele>22.730000</ele>
                <time>2017-07-29T08:23:19Z</time>
            </trkpt>
            <trkpt lon="101.359375" lat="13.666690">
                <ele>22.250000</ele>
                <time>2017-07-29T08:23:44Z</time>
            </trkpt>
            <trkpt lon="101.359784" lat="13.666574">
                <ele>21.770000</ele>
                <time>2017-07-29T08:23:59Z</time>
            </trkpt>
            <trkpt lon="101.360132" lat="13.666652">
                <ele>20.810000</ele>
                <time>2017-07-29T08:24:11Z</time>
            </trkpt>
            <trkpt lon="101.360488" lat="13.666738">
                <ele>19.840000</ele>
                <time>2017-07-29T08:24:24Z</time>
            </trkpt>
            <trkpt lon="101.360936" lat="13.666771">
                <ele>19.840000</ele>
                <time>2017-07-29T08:24:38Z</time>
            </trkpt>
            <trkpt lon="101.361158" lat="13.666842">
                <ele>18.880000</ele>
                <time>2017-07-29T08:24:49Z</time>
            </trkpt>
            <trkpt lon="101.361175" lat="13.666924">
                <ele>18.400000</ele>
                <time>2017-07-29T08:24:53Z</time>
            </trkpt>
            <trkpt lon="101.361195" lat="13.666945">
                <ele>18.400000</ele>
                <time>2017-07-29T08:24:55Z</time>
            </trkpt>
            <trkpt lon="101.361201" lat="13.666963">
                <ele>18.400000</ele>
                <time>2017-07-29T08:24:56Z</time>
            </trkpt>
            <trkpt lon="101.361201" lat="13.666988">
                <ele>17.920000</ele>
                <time>2017-07-29T08:24:57Z</time>
            </trkpt>
            <trkpt lon="101.361200" lat="13.667018">
                <ele>17.920000</ele>
                <time>2017-07-29T08:24:58Z</time>
            </trkpt>
            <trkpt lon="101.361203" lat="13.667052">
                <ele>17.920000</ele>
                <time>2017-07-29T08:24:59Z</time>
            </trkpt>
            <trkpt lon="101.361209" lat="13.667087">
                <ele>17.920000</ele>
                <time>2017-07-29T08:25:00Z</time>
            </trkpt>
            <trkpt lon="101.361397" lat="13.667664">
                <ele>16.960000</ele>
                <time>2017-07-29T08:25:13Z</time>
            </trkpt>
            <trkpt lon="101.361664" lat="13.667575">
                <ele>17.440000</ele>
                <time>2017-07-29T08:25:21Z</time>
            </trkpt>
            <trkpt lon="101.361707" lat="13.667605">
                <ele>17.440000</ele>
                <time>2017-07-29T08:25:30Z</time>
            </trkpt>
            <trkpt lon="101.361835" lat="13.667712">
                <ele>16.960000</ele>
                <time>2017-07-29T08:25:37Z</time>
            </trkpt>
            <trkpt lon="101.362264" lat="13.668161">
                <ele>15.520000</ele>
                <time>2017-07-29T08:25:52Z</time>
            </trkpt>
            <trkpt lon="101.362320" lat="13.668232">
                <ele>15.520000</ele>
                <time>2017-07-29T08:25:54Z</time>
            </trkpt>
            <trkpt lon="101.362437" lat="13.668583">
                <ele>13.600000</ele>
                <time>2017-07-29T08:26:02Z</time>
            </trkpt>
            <trkpt lon="101.362531" lat="13.668729">
                <ele>13.600000</ele>
                <time>2017-07-29T08:26:06Z</time>
            </trkpt>
            <trkpt lon="101.362639" lat="13.668833">
                <ele>13.600000</ele>
                <time>2017-07-29T08:26:10Z</time>
            </trkpt>
            <trkpt lon="101.362671" lat="13.668942">
                <ele>13.600000</ele>
                <time>2017-07-29T08:26:13Z</time>
            </trkpt>
            <trkpt lon="101.362694" lat="13.669391">
                <ele>13.600000</ele>
                <time>2017-07-29T08:26:25Z</time>
            </trkpt>
            <trkpt lon="101.362701" lat="13.669769">
                <ele>13.600000</ele>
                <time>2017-07-29T08:26:36Z</time>
            </trkpt>
            <trkpt lon="101.362758" lat="13.669772">
                <ele>12.630000</ele>
                <time>2017-07-29T08:26:47Z</time>
            </trkpt>
            <trkpt lon="101.362774" lat="13.669770">
                <ele>12.150000</ele>
                <time>2017-07-29T08:26:49Z</time>
            </trkpt>
            <trkpt lon="101.362880" lat="13.669715">
                <ele>11.190000</ele>
                <time>2017-07-29T08:27:02Z</time>
            </trkpt>
            <trkpt lon="101.362946" lat="13.669722">
                <ele>12.630000</ele>
                <time>2017-07-29T08:27:15Z</time>
            </trkpt>
            <trkpt lon="101.362953" lat="13.669725">
                <ele>12.630000</ele>
                <time>2017-07-29T08:27:16Z</time>
            </trkpt>
            <trkpt lon="101.363148" lat="13.669811">
                <ele>13.120000</ele>
                <time>2017-07-29T08:27:27Z</time>
            </trkpt>
            <trkpt lon="101.363162" lat="13.669859">
                <ele>12.630000</ele>
                <time>2017-07-29T08:27:29Z</time>
            </trkpt>
            <trkpt lon="101.363215" lat="13.669950">
                <ele>12.630000</ele>
                <time>2017-07-29T08:27:33Z</time>
            </trkpt>
            <trkpt lon="101.363372" lat="13.670305">
                <ele>11.190000</ele>
                <time>2017-07-29T08:27:44Z</time>
            </trkpt>
            <trkpt lon="101.363417" lat="13.670373">
                <ele>11.670000</ele>
                <time>2017-07-29T08:27:48Z</time>
            </trkpt>
            <trkpt lon="101.363514" lat="13.670689">
                <ele>11.670000</ele>
                <time>2017-07-29T08:27:59Z</time>
            </trkpt>
            <trkpt lon="101.363803" lat="13.671145">
                <ele>13.120000</ele>
                <time>2017-07-29T08:28:14Z</time>
            </trkpt>
            <trkpt lon="101.363969" lat="13.671587">
                <ele>14.080000</ele>
                <time>2017-07-29T08:28:27Z</time>
            </trkpt>
            <trkpt lon="101.364213" lat="13.672024">
                <ele>14.560000</ele>
                <time>2017-07-29T08:28:41Z</time>
            </trkpt>
            <trkpt lon="101.364244" lat="13.672140">
                <ele>14.080000</ele>
                <time>2017-07-29T08:28:44Z</time>
            </trkpt>
            <trkpt lon="101.364260" lat="13.672396">
                <ele>15.040000</ele>
                <time>2017-07-29T08:28:52Z</time>
            </trkpt>
            <trkpt lon="101.364225" lat="13.672479">
                <ele>15.520000</ele>
                <time>2017-07-29T08:28:57Z</time>
            </trkpt>
            <trkpt lon="101.364223" lat="13.672567">
                <ele>14.560000</ele>
                <time>2017-07-29T08:29:00Z</time>
            </trkpt>
            <trkpt lon="101.364199" lat="13.672645">
                <ele>14.080000</ele>
                <time>2017-07-29T08:29:02Z</time>
            </trkpt>
            <trkpt lon="101.364206" lat="13.672810">
                <ele>13.600000</ele>
                <time>2017-07-29T08:29:06Z</time>
            </trkpt>
            <trkpt lon="101.364221" lat="13.672918">
                <ele>13.600000</ele>
                <time>2017-07-29T08:29:09Z</time>
            </trkpt>
            <trkpt lon="101.364221" lat="13.673300">
                <ele>13.600000</ele>
                <time>2017-07-29T08:29:19Z</time>
            </trkpt>
            <trkpt lon="101.364258" lat="13.673692">
                <ele>13.600000</ele>
                <time>2017-07-29T08:29:31Z</time>
            </trkpt>
            <trkpt lon="101.364248" lat="13.673968">
                <ele>13.600000</ele>
                <time>2017-07-29T08:29:40Z</time>
            </trkpt>
            <trkpt lon="101.364230" lat="13.673993">
                <ele>13.600000</ele>
                <time>2017-07-29T08:29:41Z</time>
            </trkpt>
            <trkpt lon="101.364169" lat="13.674017">
                <ele>13.600000</ele>
                <time>2017-07-29T08:29:43Z</time>
            </trkpt>
            <trkpt lon="101.363921" lat="13.674195">
                <ele>12.150000</ele>
                <time>2017-07-29T08:29:54Z</time>
            </trkpt>
            <trkpt lon="101.363796" lat="13.674343">
                <ele>10.710000</ele>
                <time>2017-07-29T08:29:59Z</time>
            </trkpt>
            <trkpt lon="101.363505" lat="13.674587">
                <ele>10.710000</ele>
                <time>2017-07-29T08:30:11Z</time>
            </trkpt>
            <trkpt lon="101.363237" lat="13.674833">
                <ele>11.670000</ele>
                <time>2017-07-29T08:30:27Z</time>
            </trkpt>
            <trkpt lon="101.363283" lat="13.675129">
                <ele>11.670000</ele>
                <time>2017-07-29T08:30:38Z</time>
            </trkpt>
            <trkpt lon="101.363309" lat="13.675319">
                <ele>11.190000</ele>
                <time>2017-07-29T08:30:48Z</time>
            </trkpt>
            <trkpt lon="101.363302" lat="13.675340">
                <ele>11.190000</ele>
                <time>2017-07-29T08:31:06Z</time>
            </trkpt>
            <trkpt lon="101.363302" lat="13.675333">
                <ele>12.150000</ele>
                <time>2017-07-29T08:31:28Z</time>
            </trkpt>
            <trkpt lon="101.363295" lat="13.675338">
                <ele>15.040000</ele>
                <time>2017-07-29T08:32:01Z</time>
            </trkpt>
            <trkpt lon="101.363299" lat="13.675340">
                <ele>14.080000</ele>
                <time>2017-07-29T08:32:32Z</time>
            </trkpt>
            <trkpt lon="101.363302" lat="13.675334">
                <ele>12.630000</ele>
                <time>2017-07-29T08:32:59Z</time>
            </trkpt>
            <trkpt lon="101.363237" lat="13.675550">
                <ele>11.670000</ele>
                <time>2017-07-29T08:33:09Z</time>
            </trkpt>
            <trkpt lon="101.363052" lat="13.676108">
                <ele>9.750000</ele>
                <time>2017-07-29T08:33:25Z</time>
            </trkpt>
            <trkpt lon="101.363008" lat="13.676338">
                <ele>9.270000</ele>
                <time>2017-07-29T08:33:31Z</time>
            </trkpt>
            <trkpt lon="101.363015" lat="13.676422">
                <ele>10.230000</ele>
                <time>2017-07-29T08:33:35Z</time>
            </trkpt>
            <trkpt lon="101.363026" lat="13.676428">
                <ele>10.230000</ele>
                <time>2017-07-29T08:33:36Z</time>
            </trkpt>
            <trkpt lon="101.363053" lat="13.676436">
                <ele>10.230000</ele>
                <time>2017-07-29T08:33:37Z</time>
            </trkpt>
            <trkpt lon="101.363084" lat="13.676444">
                <ele>10.230000</ele>
                <time>2017-07-29T08:33:38Z</time>
            </trkpt>
            <trkpt lon="101.363120" lat="13.676453">
                <ele>10.230000</ele>
                <time>2017-07-29T08:33:39Z</time>
            </trkpt>
            <trkpt lon="101.363155" lat="13.676460">
                <ele>10.230000</ele>
                <time>2017-07-29T08:33:40Z</time>
            </trkpt>
            <trkpt lon="101.363544" lat="13.676437">
                <ele>11.670000</ele>
                <time>2017-07-29T08:33:51Z</time>
            </trkpt>
            <trkpt lon="101.364252" lat="13.676376">
                <ele>13.120000</ele>
                <time>2017-07-29T08:34:09Z</time>
            </trkpt>
            <trkpt lon="101.364908" lat="13.676319">
                <ele>13.600000</ele>
                <time>2017-07-29T08:34:26Z</time>
            </trkpt>
            <trkpt lon="101.365249" lat="13.676298">
                <ele>14.080000</ele>
                <time>2017-07-29T08:34:34Z</time>
            </trkpt>
            <trkpt lon="101.366041" lat="13.676275">
                <ele>15.520000</ele>
                <time>2017-07-29T08:34:53Z</time>
            </trkpt>
            <trkpt lon="101.366686" lat="13.676297">
                <ele>15.040000</ele>
                <time>2017-07-29T08:35:09Z</time>
            </trkpt>
            <trkpt lon="101.367114" lat="13.676253">
                <ele>16.000000</ele>
                <time>2017-07-29T08:35:22Z</time>
            </trkpt>
            <trkpt lon="101.367175" lat="13.676244">
                <ele>16.000000</ele>
                <time>2017-07-29T08:35:24Z</time>
            </trkpt>
            <trkpt lon="101.367280" lat="13.676356">
                <ele>15.520000</ele>
                <time>2017-07-29T08:35:30Z</time>
            </trkpt>
            <trkpt lon="101.367357" lat="13.676672">
                <ele>15.520000</ele>
                <time>2017-07-29T08:35:44Z</time>
            </trkpt>
            <trkpt lon="101.367368" lat="13.676797">
                <ele>15.040000</ele>
                <time>2017-07-29T08:35:50Z</time>
            </trkpt>
            <trkpt lon="101.367415" lat="13.676890">
                <ele>15.040000</ele>
                <time>2017-07-29T08:36:00Z</time>
            </trkpt>
            <trkpt lon="101.367422" lat="13.676988">
                <ele>15.040000</ele>
                <time>2017-07-29T08:36:13Z</time>
            </trkpt>
            <trkpt lon="101.367426" lat="13.676998">
                <ele>15.040000</ele>
                <time>2017-07-29T08:36:14Z</time>
            </trkpt>
            <trkpt lon="101.367465" lat="13.677191">
                <ele>15.520000</ele>
                <time>2017-07-29T08:36:23Z</time>
            </trkpt>
            <trkpt lon="101.367548" lat="13.677213">
                <ele>15.040000</ele>
                <time>2017-07-29T08:36:27Z</time>
            </trkpt>
            <trkpt lon="101.368008" lat="13.677189">
                <ele>15.040000</ele>
                <time>2017-07-29T08:36:44Z</time>
            </trkpt>
            <trkpt lon="101.368246" lat="13.677345">
                <ele>15.040000</ele>
                <time>2017-07-29T08:36:54Z</time>
            </trkpt>
            <trkpt lon="101.368366" lat="13.677791">
                <ele>15.040000</ele>
                <time>2017-07-29T08:37:07Z</time>
            </trkpt>
            <trkpt lon="101.368494" lat="13.678379">
                <ele>15.040000</ele>
                <time>2017-07-29T08:37:23Z</time>
            </trkpt>
            <trkpt lon="101.368537" lat="13.678957">
                <ele>15.040000</ele>
                <time>2017-07-29T08:37:38Z</time>
            </trkpt>
            <trkpt lon="101.368546" lat="13.679400">
                <ele>14.560000</ele>
                <time>2017-07-29T08:37:49Z</time>
            </trkpt>
            <trkpt lon="101.368546" lat="13.679440">
                <ele>14.560000</ele>
                <time>2017-07-29T08:37:50Z</time>
            </trkpt>
            <trkpt lon="101.368595" lat="13.680024">
                <ele>14.080000</ele>
                <time>2017-07-29T08:38:06Z</time>
            </trkpt>
            <trkpt lon="101.368683" lat="13.680604">
                <ele>12.630000</ele>
                <time>2017-07-29T08:38:20Z</time>
            </trkpt>
            <trkpt lon="101.368649" lat="13.681070">
                <ele>12.150000</ele>
                <time>2017-07-29T08:38:31Z</time>
            </trkpt>
            <trkpt lon="101.368665" lat="13.681339">
                <ele>12.630000</ele>
                <time>2017-07-29T08:38:37Z</time>
            </trkpt>
            <trkpt lon="101.368730" lat="13.681796">
                <ele>12.150000</ele>
                <time>2017-07-29T08:38:49Z</time>
            </trkpt>
            <trkpt lon="101.368808" lat="13.682202">
                <ele>12.150000</ele>
                <time>2017-07-29T08:39:01Z</time>
            </trkpt>
            <trkpt lon="101.368798" lat="13.682289">
                <ele>12.150000</ele>
                <time>2017-07-29T08:39:05Z</time>
            </trkpt>
            <trkpt lon="101.368780" lat="13.682307">
                <ele>12.150000</ele>
                <time>2017-07-29T08:39:06Z</time>
            </trkpt>
            <trkpt lon="101.368760" lat="13.682323">
                <ele>12.150000</ele>
                <time>2017-07-29T08:39:07Z</time>
            </trkpt>
            <trkpt lon="101.368735" lat="13.682335">
                <ele>11.670000</ele>
                <time>2017-07-29T08:39:08Z</time>
            </trkpt>
            <trkpt lon="101.368704" lat="13.682342">
                <ele>11.670000</ele>
                <time>2017-07-29T08:39:09Z</time>
            </trkpt>
            <trkpt lon="101.368673" lat="13.682351">
                <ele>11.670000</ele>
                <time>2017-07-29T08:39:10Z</time>
            </trkpt>
            <trkpt lon="101.368640" lat="13.682368">
                <ele>11.670000</ele>
                <time>2017-07-29T08:39:11Z</time>
            </trkpt>
            <trkpt lon="101.368612" lat="13.682390">
                <ele>11.670000</ele>
                <time>2017-07-29T08:39:12Z</time>
            </trkpt>
            <trkpt lon="101.368590" lat="13.682424">
                <ele>11.670000</ele>
                <time>2017-07-29T08:39:13Z</time>
            </trkpt>
            <trkpt lon="101.368580" lat="13.682460">
                <ele>11.190000</ele>
                <time>2017-07-29T08:39:14Z</time>
            </trkpt>
            <trkpt lon="101.368581" lat="13.682501">
                <ele>11.190000</ele>
                <time>2017-07-29T08:39:15Z</time>
            </trkpt>
            <trkpt lon="101.368589" lat="13.682542">
                <ele>11.190000</ele>
                <time>2017-07-29T08:39:16Z</time>
            </trkpt>
            <trkpt lon="101.368597" lat="13.682582">
                <ele>11.190000</ele>
                <time>2017-07-29T08:39:17Z</time>
            </trkpt>
            <trkpt lon="101.368602" lat="13.682616">
                <ele>10.710000</ele>
                <time>2017-07-29T08:39:18Z</time>
            </trkpt>
            <trkpt lon="101.368607" lat="13.682646">
                <ele>10.710000</ele>
                <time>2017-07-29T08:39:19Z</time>
            </trkpt>
            <trkpt lon="101.368614" lat="13.682675">
                <ele>10.710000</ele>
                <time>2017-07-29T08:39:20Z</time>
            </trkpt>
            <trkpt lon="101.368625" lat="13.682700">
                <ele>10.710000</ele>
                <time>2017-07-29T08:39:21Z</time>
            </trkpt>
            <trkpt lon="101.368638" lat="13.682725">
                <ele>10.710000</ele>
                <time>2017-07-29T08:39:22Z</time>
            </trkpt>
            <trkpt lon="101.368667" lat="13.683105">
                <ele>10.230000</ele>
                <time>2017-07-29T08:39:34Z</time>
            </trkpt>
            <trkpt lon="101.368371" lat="13.683374">
                <ele>9.270000</ele>
                <time>2017-07-29T08:39:44Z</time>
            </trkpt>
            <trkpt lon="101.368358" lat="13.683413">
                <ele>9.270000</ele>
                <time>2017-07-29T08:39:45Z</time>
            </trkpt>
            <trkpt lon="101.368349" lat="13.683453">
                <ele>8.790000</ele>
                <time>2017-07-29T08:39:46Z</time>
            </trkpt>
            <trkpt lon="101.368321" lat="13.683665">
                <ele>8.790000</ele>
                <time>2017-07-29T08:39:51Z</time>
            </trkpt>
            <trkpt lon="101.368314" lat="13.683706">
                <ele>8.790000</ele>
                <time>2017-07-29T08:39:52Z</time>
            </trkpt>
            <trkpt lon="101.368231" lat="13.684122">
                <ele>9.270000</ele>
                <time>2017-07-29T08:40:03Z</time>
            </trkpt>
            <trkpt lon="101.368126" lat="13.684758">
                <ele>7.830000</ele>
                <time>2017-07-29T08:40:18Z</time>
            </trkpt>
            <trkpt lon="101.368133" lat="13.684802">
                <ele>7.830000</ele>
                <time>2017-07-29T08:40:19Z</time>
            </trkpt>
            <trkpt lon="101.368142" lat="13.684845">
                <ele>7.830000</ele>
                <time>2017-07-29T08:40:20Z</time>
            </trkpt>
            <trkpt lon="101.368150" lat="13.684887">
                <ele>7.830000</ele>
                <time>2017-07-29T08:40:21Z</time>
            </trkpt>
            <trkpt lon="101.368155" lat="13.684928">
                <ele>7.830000</ele>
                <time>2017-07-29T08:40:22Z</time>
            </trkpt>
            <trkpt lon="101.368284" lat="13.685379">
                <ele>8.310000</ele>
                <time>2017-07-29T08:40:34Z</time>
            </trkpt>
            <trkpt lon="101.368504" lat="13.685944">
                <ele>8.310000</ele>
                <time>2017-07-29T08:40:49Z</time>
            </trkpt>
            <trkpt lon="101.368723" lat="13.686603">
                <ele>8.310000</ele>
                <time>2017-07-29T08:41:06Z</time>
            </trkpt>
            <trkpt lon="101.368907" lat="13.687096">
                <ele>8.310000</ele>
                <time>2017-07-29T08:41:20Z</time>
            </trkpt>
            <trkpt lon="101.369080" lat="13.687578">
                <ele>8.310000</ele>
                <time>2017-07-29T08:41:33Z</time>
            </trkpt>
            <trkpt lon="101.369130" lat="13.688214">
                <ele>8.790000</ele>
                <time>2017-07-29T08:41:49Z</time>
            </trkpt>
            <trkpt lon="101.369115" lat="13.688236">
                <ele>8.790000</ele>
                <time>2017-07-29T08:41:50Z</time>
            </trkpt>
            <trkpt lon="101.369097" lat="13.688247">
                <ele>8.790000</ele>
                <time>2017-07-29T08:41:51Z</time>
            </trkpt>
            <trkpt lon="101.369075" lat="13.688254">
                <ele>8.790000</ele>
                <time>2017-07-29T08:41:52Z</time>
            </trkpt>
            <trkpt lon="101.369051" lat="13.688256">
                <ele>9.270000</ele>
                <time>2017-07-29T08:41:53Z</time>
            </trkpt>
            <trkpt lon="101.369023" lat="13.688254">
                <ele>9.270000</ele>
                <time>2017-07-29T08:41:54Z</time>
            </trkpt>
            <trkpt lon="101.368414" lat="13.688232">
                <ele>8.790000</ele>
                <time>2017-07-29T08:42:09Z</time>
            </trkpt>
            <trkpt lon="101.368179" lat="13.688229">
                <ele>8.310000</ele>
                <time>2017-07-29T08:42:14Z</time>
            </trkpt>
            <trkpt lon="101.368129" lat="13.688238">
                <ele>7.830000</ele>
                <time>2017-07-29T08:42:15Z</time>
            </trkpt>
            <trkpt lon="101.367425" lat="13.688468">
                <ele>6.390000</ele>
                <time>2017-07-29T08:42:30Z</time>
            </trkpt>
            <trkpt lon="101.366386" lat="13.688893">
                <ele>5.910000</ele>
                <time>2017-07-29T08:42:53Z</time>
            </trkpt>
            <trkpt lon="101.365609" lat="13.688999">
                <ele>5.910000</ele>
                <time>2017-07-29T08:43:09Z</time>
            </trkpt>
            <trkpt lon="101.365109" lat="13.689085">
                <ele>5.420000</ele>
                <time>2017-07-29T08:43:21Z</time>
            </trkpt>
            <trkpt lon="101.364528" lat="13.689138">
                <ele>5.420000</ele>
                <time>2017-07-29T08:43:36Z</time>
            </trkpt>
            <trkpt lon="101.364515" lat="13.689155">
                <ele>5.420000</ele>
                <time>2017-07-29T08:43:37Z</time>
            </trkpt>
            <trkpt lon="101.364510" lat="13.689179">
                <ele>5.420000</ele>
                <time>2017-07-29T08:43:38Z</time>
            </trkpt>
            <trkpt lon="101.364508" lat="13.689204">
                <ele>5.420000</ele>
                <time>2017-07-29T08:43:39Z</time>
            </trkpt>
            <trkpt lon="101.364508" lat="13.689233">
                <ele>5.420000</ele>
                <time>2017-07-29T08:43:40Z</time>
            </trkpt>
            <trkpt lon="101.364508" lat="13.689261">
                <ele>5.420000</ele>
                <time>2017-07-29T08:43:41Z</time>
            </trkpt>
            <trkpt lon="101.364507" lat="13.689289">
                <ele>5.420000</ele>
                <time>2017-07-29T08:43:42Z</time>
            </trkpt>
            <trkpt lon="101.364540" lat="13.689898">
                <ele>5.910000</ele>
                <time>2017-07-29T08:43:58Z</time>
            </trkpt>
            <trkpt lon="101.364581" lat="13.690411">
                <ele>6.390000</ele>
                <time>2017-07-29T08:44:11Z</time>
            </trkpt>
            <trkpt lon="101.364586" lat="13.690454">
                <ele>6.390000</ele>
                <time>2017-07-29T08:44:12Z</time>
            </trkpt>
            <trkpt lon="101.364626" lat="13.690990">
                <ele>7.350000</ele>
                <time>2017-07-29T08:44:27Z</time>
            </trkpt>
            <trkpt lon="101.364685" lat="13.691391">
                <ele>6.870000</ele>
                <time>2017-07-29T08:44:38Z</time>
            </trkpt>
            <trkpt lon="101.364719" lat="13.691612">
                <ele>9.270000</ele>
                <time>2017-07-29T08:44:50Z</time>
            </trkpt>
            <trkpt lon="101.364758" lat="13.691825">
                <ele>8.310000</ele>
                <time>2017-07-29T08:45:01Z</time>
            </trkpt>
            <trkpt lon="101.364791" lat="13.692018">
                <ele>8.790000</ele>
                <time>2017-07-29T08:45:12Z</time>
            </trkpt>
            <trkpt lon="101.364838" lat="13.692377">
                <ele>7.350000</ele>
                <time>2017-07-29T08:45:24Z</time>
            </trkpt>
            <trkpt lon="101.364903" lat="13.692819">
                <ele>7.830000</ele>
                <time>2017-07-29T08:45:37Z</time>
            </trkpt>
            <trkpt lon="101.364962" lat="13.693202">
                <ele>12.150000</ele>
                <time>2017-07-29T08:45:48Z</time>
            </trkpt>
            <trkpt lon="101.364997" lat="13.693451">
                <ele>16.480000</ele>
                <time>2017-07-29T08:45:59Z</time>
            </trkpt>
            <trkpt lon="101.365050" lat="13.693827">
                <ele>19.840000</ele>
                <time>2017-07-29T08:46:13Z</time>
            </trkpt>
            <trkpt lon="101.365090" lat="13.694210">
                <ele>18.880000</ele>
                <time>2017-07-29T08:46:25Z</time>
            </trkpt>
            <trkpt lon="101.365087" lat="13.694231">
                <ele>18.400000</ele>
                <time>2017-07-29T08:46:26Z</time>
            </trkpt>
            <trkpt lon="101.365077" lat="13.694259">
                <ele>17.440000</ele>
                <time>2017-07-29T08:46:27Z</time>
            </trkpt>
            <trkpt lon="101.365074" lat="13.694284">
                <ele>17.440000</ele>
                <time>2017-07-29T08:46:28Z</time>
            </trkpt>
            <trkpt lon="101.365074" lat="13.694306">
                <ele>17.440000</ele>
                <time>2017-07-29T08:46:29Z</time>
            </trkpt>
            <trkpt lon="101.365077" lat="13.694330">
                <ele>16.960000</ele>
                <time>2017-07-29T08:46:30Z</time>
            </trkpt>
            <trkpt lon="101.365080" lat="13.694352">
                <ele>16.960000</ele>
                <time>2017-07-29T08:46:31Z</time>
            </trkpt>
            <trkpt lon="101.365084" lat="13.694377">
                <ele>16.960000</ele>
                <time>2017-07-29T08:46:32Z</time>
            </trkpt>
            <trkpt lon="101.365091" lat="13.694453">
                <ele>16.000000</ele>
                <time>2017-07-29T08:46:44Z</time>
            </trkpt>
            <trkpt lon="101.365100" lat="13.694674">
                <ele>14.080000</ele>
                <time>2017-07-29T08:46:56Z</time>
            </trkpt>
            <trkpt lon="101.365088" lat="13.694980">
                <ele>12.630000</ele>
                <time>2017-07-29T08:47:10Z</time>
            </trkpt>
            <trkpt lon="101.365090" lat="13.694978">
                <ele>12.630000</ele>
                <time>2017-07-29T08:47:12Z</time>
            </trkpt>
            <trkpt lon="101.365104" lat="13.694948">
                <ele>12.150000</ele>
                <time>2017-07-29T08:47:15Z</time>
            </trkpt>
            <trkpt lon="101.365117" lat="13.694525">
                <ele>10.230000</ele>
                <time>2017-07-29T08:47:29Z</time>
            </trkpt>
            <trkpt lon="101.365062" lat="13.694384">
                <ele>10.710000</ele>
                <time>2017-07-29T08:47:36Z</time>
            </trkpt>
            <trkpt lon="101.365047" lat="13.694387">
                <ele>10.710000</ele>
                <time>2017-07-29T08:47:37Z</time>
            </trkpt>
            <trkpt lon="101.365032" lat="13.694389">
                <ele>10.710000</ele>
                <time>2017-07-29T08:47:38Z</time>
            </trkpt>
            <trkpt lon="101.365016" lat="13.694392">
                <ele>10.230000</ele>
                <time>2017-07-29T08:47:39Z</time>
            </trkpt>
            <trkpt lon="101.365002" lat="13.694394">
                <ele>10.230000</ele>
                <time>2017-07-29T08:47:40Z</time>
            </trkpt>
            <trkpt lon="101.364988" lat="13.694394">
                <ele>9.750000</ele>
                <time>2017-07-29T08:47:41Z</time>
            </trkpt>
            <trkpt lon="101.364999" lat="13.694369">
                <ele>9.270000</ele>
                <time>2017-07-29T08:47:45Z</time>
            </trkpt>
            <trkpt lon="101.365013" lat="13.694368">
                <ele>8.790000</ele>
                <time>2017-07-29T08:47:46Z</time>
            </trkpt>
            <trkpt lon="101.365078" lat="13.694367">
                <ele>9.270000</ele>
                <time>2017-07-29T08:47:50Z</time>
            </trkpt>
            <trkpt lon="101.365085" lat="13.694357">
                <ele>9.270000</ele>
                <time>2017-07-29T08:47:51Z</time>
            </trkpt>
            <trkpt lon="101.365090" lat="13.694352">
                <ele>9.270000</ele>
                <time>2017-07-29T08:48:03Z</time>
            </trkpt>
            <trkpt lon="101.365097" lat="13.694325">
                <ele>8.310000</ele>
                <time>2017-07-29T08:48:15Z</time>
            </trkpt>
            <trkpt lon="101.365062" lat="13.694001">
                <ele>8.310000</ele>
                <time>2017-07-29T08:48:29Z</time>
            </trkpt>
            <trkpt lon="101.364996" lat="13.693636">
                <ele>8.310000</ele>
                <time>2017-07-29T08:48:40Z</time>
            </trkpt>
            <trkpt lon="101.364971" lat="13.693327">
                <ele>8.310000</ele>
                <time>2017-07-29T08:48:53Z</time>
            </trkpt>
            <trkpt lon="101.364925" lat="13.692983">
                <ele>9.750000</ele>
                <time>2017-07-29T08:49:03Z</time>
            </trkpt>
            <trkpt lon="101.364833" lat="13.692497">
                <ele>11.670000</ele>
                <time>2017-07-29T08:49:16Z</time>
            </trkpt>
            <trkpt lon="101.364751" lat="13.692043">
                <ele>13.600000</ele>
                <time>2017-07-29T08:49:29Z</time>
            </trkpt>
            <trkpt lon="101.364756" lat="13.691933">
                <ele>13.600000</ele>
                <time>2017-07-29T08:49:33Z</time>
            </trkpt>
            <trkpt lon="101.364763" lat="13.691826">
                <ele>13.120000</ele>
                <time>2017-07-29T08:49:49Z</time>
            </trkpt>
            <trkpt lon="101.364774" lat="13.691817">
                <ele>12.630000</ele>
                <time>2017-07-29T08:49:52Z</time>
            </trkpt>
            <trkpt lon="101.365032" lat="13.691795">
                <ele>12.630000</ele>
                <time>2017-07-29T08:50:04Z</time>
            </trkpt>
            <trkpt lon="101.365294" lat="13.691831">
                <ele>11.190000</ele>
                <time>2017-07-29T08:50:16Z</time>
            </trkpt>
            <trkpt lon="101.365368" lat="13.691858">
                <ele>11.190000</ele>
                <time>2017-07-29T08:50:19Z</time>
            </trkpt>
            <trkpt lon="101.365486" lat="13.691844">
                <ele>10.710000</ele>
                <time>2017-07-29T08:50:24Z</time>
            </trkpt>
            <trkpt lon="101.365653" lat="13.691852">
                <ele>11.190000</ele>
                <time>2017-07-29T08:50:29Z</time>
            </trkpt>
            <trkpt lon="101.365729" lat="13.691916">
                <ele>11.190000</ele>
                <time>2017-07-29T08:50:33Z</time>
            </trkpt>
            <trkpt lon="101.365825" lat="13.692231">
                <ele>12.630000</ele>
                <time>2017-07-29T08:50:47Z</time>
            </trkpt>
            <trkpt lon="101.365851" lat="13.692735">
                <ele>15.040000</ele>
                <time>2017-07-29T08:51:04Z</time>
            </trkpt>
            <trkpt lon="101.365865" lat="13.693091">
                <ele>19.360000</ele>
                <time>2017-07-29T08:51:17Z</time>
            </trkpt>
            <trkpt lon="101.365891" lat="13.693464">
                <ele>24.170000</ele>
                <time>2017-07-29T08:51:29Z</time>
            </trkpt>
            <trkpt lon="101.365921" lat="13.693767">
                <ele>24.170000</ele>
                <time>2017-07-29T08:51:41Z</time>
            </trkpt>
            <trkpt lon="101.365938" lat="13.693928">
                <ele>23.690000</ele>
                <time>2017-07-29T08:51:57Z</time>
            </trkpt>
            <trkpt lon="101.365978" lat="13.694273">
                <ele>22.250000</ele>
                <time>2017-07-29T08:52:09Z</time>
            </trkpt>
            <trkpt lon="101.365992" lat="13.694615">
                <ele>21.290000</ele>
                <time>2017-07-29T08:52:20Z</time>
            </trkpt>
            <trkpt lon="101.365967" lat="13.695054">
                <ele>19.840000</ele>
                <time>2017-07-29T08:52:34Z</time>
            </trkpt>
            <trkpt lon="101.365941" lat="13.695304">
                <ele>19.840000</ele>
                <time>2017-07-29T08:52:43Z</time>
            </trkpt>
            <trkpt lon="101.365824" lat="13.695367">
                <ele>20.810000</ele>
                <time>2017-07-29T08:52:50Z</time>
            </trkpt>
            <trkpt lon="101.365575" lat="13.695390">
                <ele>22.730000</ele>
                <time>2017-07-29T08:53:02Z</time>
            </trkpt>
            <trkpt lon="101.365193" lat="13.695408">
                <ele>21.770000</ele>
                <time>2017-07-29T08:53:13Z</time>
            </trkpt>
            <trkpt lon="101.364834" lat="13.695525">
                <ele>18.880000</ele>
                <time>2017-07-29T08:53:23Z</time>
            </trkpt>
            <trkpt lon="101.364716" lat="13.696065">
                <ele>13.600000</ele>
                <time>2017-07-29T08:53:37Z</time>
            </trkpt>
            <trkpt lon="101.364666" lat="13.696700">
                <ele>11.670000</ele>
                <time>2017-07-29T08:53:52Z</time>
            </trkpt>
            <trkpt lon="101.364912" lat="13.696872">
                <ele>10.710000</ele>
                <time>2017-07-29T08:54:00Z</time>
            </trkpt>
            <trkpt lon="101.364940" lat="13.696893">
                <ele>10.230000</ele>
                <time>2017-07-29T08:54:01Z</time>
            </trkpt>
            <trkpt lon="101.364960" lat="13.696929">
                <ele>10.230000</ele>
                <time>2017-07-29T08:54:02Z</time>
            </trkpt>
            <trkpt lon="101.364965" lat="13.696967">
                <ele>9.750000</ele>
                <time>2017-07-29T08:54:03Z</time>
            </trkpt>
            <trkpt lon="101.364960" lat="13.697011">
                <ele>9.750000</ele>
                <time>2017-07-29T08:54:04Z</time>
            </trkpt>
            <trkpt lon="101.364951" lat="13.697058">
                <ele>9.270000</ele>
                <time>2017-07-29T08:54:05Z</time>
            </trkpt>
            <trkpt lon="101.364926" lat="13.697211">
                <ele>8.310000</ele>
                <time>2017-07-29T08:54:08Z</time>
            </trkpt>
            <trkpt lon="101.364898" lat="13.697355">
                <ele>7.350000</ele>
                <time>2017-07-29T08:54:11Z</time>
            </trkpt>
            <trkpt lon="101.364889" lat="13.697402">
                <ele>7.350000</ele>
                <time>2017-07-29T08:54:12Z</time>
            </trkpt>
            <trkpt lon="101.364882" lat="13.697450">
                <ele>6.870000</ele>
                <time>2017-07-29T08:54:13Z</time>
            </trkpt>
            <trkpt lon="101.364831" lat="13.698145">
                <ele>5.420000</ele>
                <time>2017-07-29T08:54:29Z</time>
            </trkpt>
            <trkpt lon="101.364814" lat="13.698303">
                <ele>4.940000</ele>
                <time>2017-07-29T08:54:33Z</time>
            </trkpt>
            <trkpt lon="101.364812" lat="13.698342">
                <ele>4.940000</ele>
                <time>2017-07-29T08:54:34Z</time>
            </trkpt>
            <trkpt lon="101.364810" lat="13.698389">
                <ele>4.940000</ele>
                <time>2017-07-29T08:54:35Z</time>
            </trkpt>
            <trkpt lon="101.364787" lat="13.698725">
                <ele>4.940000</ele>
                <time>2017-07-29T08:54:43Z</time>
            </trkpt>
            <trkpt lon="101.364727" lat="13.699484">
                <ele>4.460000</ele>
                <time>2017-07-29T08:55:00Z</time>
            </trkpt>
            <trkpt lon="101.364669" lat="13.700214">
                <ele>3.980000</ele>
                <time>2017-07-29T08:55:16Z</time>
            </trkpt>
            <trkpt lon="101.364609" lat="13.701004">
                <ele>4.460000</ele>
                <time>2017-07-29T08:55:33Z</time>
            </trkpt>
            <trkpt lon="101.364371" lat="13.701673">
                <ele>3.500000</ele>
                <time>2017-07-29T08:55:48Z</time>
            </trkpt>
            <trkpt lon="101.364222" lat="13.701986">
                <ele>3.500000</ele>
                <time>2017-07-29T08:55:55Z</time>
            </trkpt>
            <trkpt lon="101.364113" lat="13.702735">
                <ele>3.980000</ele>
                <time>2017-07-29T08:56:10Z</time>
            </trkpt>
            <trkpt lon="101.364036" lat="13.703564">
                <ele>3.980000</ele>
                <time>2017-07-29T08:56:27Z</time>
            </trkpt>
            <trkpt lon="101.364009" lat="13.704481">
                <ele>4.460000</ele>
                <time>2017-07-29T08:56:47Z</time>
            </trkpt>
            <trkpt lon="101.363929" lat="13.705012">
                <ele>5.420000</ele>
                <time>2017-07-29T08:57:00Z</time>
            </trkpt>
            <trkpt lon="101.363946" lat="13.705032">
                <ele>5.420000</ele>
                <time>2017-07-29T08:57:01Z</time>
            </trkpt>
            <trkpt lon="101.363969" lat="13.705046">
                <ele>5.420000</ele>
                <time>2017-07-29T08:57:02Z</time>
            </trkpt>
            <trkpt lon="101.363997" lat="13.705057">
                <ele>5.910000</ele>
                <time>2017-07-29T08:57:03Z</time>
            </trkpt>
            <trkpt lon="101.364031" lat="13.705063">
                <ele>5.910000</ele>
                <time>2017-07-29T08:57:04Z</time>
            </trkpt>
            <trkpt lon="101.364069" lat="13.705063">
                <ele>5.910000</ele>
                <time>2017-07-29T08:57:05Z</time>
            </trkpt>
            <trkpt lon="101.364110" lat="13.705061">
                <ele>6.390000</ele>
                <time>2017-07-29T08:57:06Z</time>
            </trkpt>
            <trkpt lon="101.364826" lat="13.705059">
                <ele>7.830000</ele>
                <time>2017-07-29T08:57:23Z</time>
            </trkpt>
            <trkpt lon="101.364968" lat="13.705077">
                <ele>8.310000</ele>
                <time>2017-07-29T08:57:27Z</time>
            </trkpt>
            <trkpt lon="101.364987" lat="13.705103">
                <ele>8.310000</ele>
                <time>2017-07-29T08:57:28Z</time>
            </trkpt>
            <trkpt lon="101.364993" lat="13.705126">
                <ele>8.310000</ele>
                <time>2017-07-29T08:57:29Z</time>
            </trkpt>
            <trkpt lon="101.364993" lat="13.705157">
                <ele>8.310000</ele>
                <time>2017-07-29T08:57:30Z</time>
            </trkpt>
            <trkpt lon="101.364994" lat="13.705183">
                <ele>8.310000</ele>
                <time>2017-07-29T08:57:31Z</time>
            </trkpt>
            <trkpt lon="101.364995" lat="13.705217">
                <ele>7.830000</ele>
                <time>2017-07-29T08:57:32Z</time>
            </trkpt>
            <trkpt lon="101.365002" lat="13.705434">
                <ele>6.870000</ele>
                <time>2017-07-29T08:57:40Z</time>
            </trkpt>
            <trkpt lon="101.365013" lat="13.705446">
                <ele>6.870000</ele>
                <time>2017-07-29T08:57:41Z</time>
            </trkpt>
            <trkpt lon="101.365333" lat="13.705482">
                <ele>6.870000</ele>
                <time>2017-07-29T08:57:52Z</time>
            </trkpt>
            <trkpt lon="101.365799" lat="13.705485">
                <ele>7.830000</ele>
                <time>2017-07-29T08:58:05Z</time>
            </trkpt>
            <trkpt lon="101.366725" lat="13.705494">
                <ele>8.790000</ele>
                <time>2017-07-29T08:58:25Z</time>
            </trkpt>
            <trkpt lon="101.367352" lat="13.705516">
                <ele>9.270000</ele>
                <time>2017-07-29T08:58:39Z</time>
            </trkpt>
            <trkpt lon="101.367377" lat="13.705540">
                <ele>8.790000</ele>
                <time>2017-07-29T08:58:40Z</time>
            </trkpt>
            <trkpt lon="101.367389" lat="13.705574">
                <ele>8.310000</ele>
                <time>2017-07-29T08:58:41Z</time>
            </trkpt>
            <trkpt lon="101.367393" lat="13.705618">
                <ele>7.830000</ele>
                <time>2017-07-29T08:58:42Z</time>
            </trkpt>
            <trkpt lon="101.367393" lat="13.705666">
                <ele>7.350000</ele>
                <time>2017-07-29T08:58:43Z</time>
            </trkpt>
            <trkpt lon="101.367414" lat="13.705889">
                <ele>5.910000</ele>
                <time>2017-07-29T08:58:47Z</time>
            </trkpt>
            <trkpt lon="101.367520" lat="13.706374">
                <ele>5.420000</ele>
                <time>2017-07-29T08:58:57Z</time>
            </trkpt>
            <trkpt lon="101.367743" lat="13.706993">
                <ele>6.390000</ele>
                <time>2017-07-29T08:59:12Z</time>
            </trkpt>
            <trkpt lon="101.368093" lat="13.707260">
                <ele>5.910000</ele>
                <time>2017-07-29T08:59:24Z</time>
            </trkpt>
            <trkpt lon="101.368584" lat="13.707275">
                <ele>6.390000</ele>
                <time>2017-07-29T08:59:40Z</time>
            </trkpt>
            <trkpt lon="101.368561" lat="13.707266">
                <ele>7.350000</ele>
                <time>2017-07-29T08:59:52Z</time>
            </trkpt>
            <trkpt lon="101.368308" lat="13.707277">
                <ele>7.830000</ele>
                <time>2017-07-29T09:00:06Z</time>
            </trkpt>
            <trkpt lon="101.367934" lat="13.707249">
                <ele>6.390000</ele>
                <time>2017-07-29T09:00:22Z</time>
            </trkpt>
            <trkpt lon="101.367872" lat="13.707195">
                <ele>6.390000</ele>
                <time>2017-07-29T09:00:27Z</time>
            </trkpt>
            <trkpt lon="101.367849" lat="13.707206">
                <ele>6.870000</ele>
                <time>2017-07-29T09:00:38Z</time>
            </trkpt>
            <trkpt lon="101.367877" lat="13.707239">
                <ele>6.870000</ele>
                <time>2017-07-29T09:00:53Z</time>
            </trkpt>
            <trkpt lon="101.367906" lat="13.707253">
                <ele>6.390000</ele>
                <time>2017-07-29T09:01:10Z</time>
            </trkpt>
            <trkpt lon="101.367917" lat="13.707264">
                <ele>6.870000</ele>
                <time>2017-07-29T09:01:16Z</time>
            </trkpt>
            <trkpt lon="101.367924" lat="13.707272">
                <ele>6.870000</ele>
                <time>2017-07-29T09:01:17Z</time>
            </trkpt>
            <trkpt lon="101.367933" lat="13.707336">
                <ele>7.350000</ele>
                <time>2017-07-29T09:01:21Z</time>
            </trkpt>
            <trkpt lon="101.367922" lat="13.707354">
                <ele>7.350000</ele>
                <time>2017-07-29T09:01:22Z</time>
            </trkpt>
            <trkpt lon="101.367803" lat="13.707590">
                <ele>6.390000</ele>
                <time>2017-07-29T09:01:33Z</time>
            </trkpt>
            <trkpt lon="101.367887" lat="13.707772">
                <ele>7.350000</ele>
                <time>2017-07-29T09:01:42Z</time>
            </trkpt>
            <trkpt lon="101.367997" lat="13.707941">
                <ele>6.870000</ele>
                <time>2017-07-29T09:01:53Z</time>
            </trkpt>
            <trkpt lon="101.367971" lat="13.708034">
                <ele>6.870000</ele>
                <time>2017-07-29T09:02:00Z</time>
            </trkpt>
            <trkpt lon="101.367976" lat="13.708080">
                <ele>6.870000</ele>
                <time>2017-07-29T09:02:12Z</time>
            </trkpt>
            <trkpt lon="101.367944" lat="13.708124">
                <ele>6.390000</ele>
                <time>2017-07-29T09:02:21Z</time>
            </trkpt>
            <trkpt lon="101.368104" lat="13.708347">
                <ele>5.910000</ele>
                <time>2017-07-29T09:02:35Z</time>
            </trkpt>
            <trkpt lon="101.368309" lat="13.708498">
                <ele>6.870000</ele>
                <time>2017-07-29T09:02:49Z</time>
            </trkpt>
            <trkpt lon="101.368562" lat="13.708264">
                <ele>6.870000</ele>
                <time>2017-07-29T09:03:02Z</time>
            </trkpt>
            <trkpt lon="101.368583" lat="13.708253">
                <ele>6.390000</ele>
                <time>2017-07-29T09:03:03Z</time>
            </trkpt>
            <trkpt lon="101.368828" lat="13.708435">
                <ele>4.940000</ele>
                <time>2017-07-29T09:03:16Z</time>
            </trkpt>
            <trkpt lon="101.368992" lat="13.708627">
                <ele>5.910000</ele>
                <time>2017-07-29T09:03:26Z</time>
            </trkpt>
            <trkpt lon="101.369067" lat="13.708703">
                <ele>5.420000</ele>
                <time>2017-07-29T09:03:31Z</time>
            </trkpt>
            <trkpt lon="101.369334" lat="13.709010">
                <ele>5.910000</ele>
                <time>2017-07-29T09:03:47Z</time>
            </trkpt>
            <trkpt lon="101.369617" lat="13.709324">
                <ele>5.420000</ele>
                <time>2017-07-29T09:04:01Z</time>
            </trkpt>
            <trkpt lon="101.369632" lat="13.709338">
                <ele>5.910000</ele>
                <time>2017-07-29T09:04:02Z</time>
            </trkpt>
            <trkpt lon="101.369582" lat="13.709457">
                <ele>6.390000</ele>
                <time>2017-07-29T09:04:08Z</time>
            </trkpt>
            <trkpt lon="101.369000" lat="13.709786">
                <ele>5.420000</ele>
                <time>2017-07-29T09:04:25Z</time>
            </trkpt>
            <trkpt lon="101.368926" lat="13.709837">
                <ele>5.420000</ele>
                <time>2017-07-29T09:04:27Z</time>
            </trkpt>
            <trkpt lon="101.368409" lat="13.710127">
                <ele>4.940000</ele>
                <time>2017-07-29T09:04:41Z</time>
            </trkpt>
            <trkpt lon="101.367795" lat="13.710486">
                <ele>4.940000</ele>
                <time>2017-07-29T09:04:58Z</time>
            </trkpt>
            <trkpt lon="101.367434" lat="13.710678">
                <ele>4.460000</ele>
                <time>2017-07-29T09:05:09Z</time>
            </trkpt>
            <trkpt lon="101.367153" lat="13.710824">
                <ele>3.980000</ele>
                <time>2017-07-29T09:05:21Z</time>
            </trkpt>
            <trkpt lon="101.366961" lat="13.710947">
                <ele>3.980000</ele>
                <time>2017-07-29T09:05:32Z</time>
            </trkpt>
            <trkpt lon="101.366432" lat="13.711254">
                <ele>4.940000</ele>
                <time>2017-07-29T09:05:48Z</time>
            </trkpt>
            <trkpt lon="101.365820" lat="13.711614">
                <ele>4.940000</ele>
                <time>2017-07-29T09:06:06Z</time>
            </trkpt>
            <trkpt lon="101.365486" lat="13.711803">
                <ele>5.910000</ele>
                <time>2017-07-29T09:06:19Z</time>
            </trkpt>
            <trkpt lon="101.365162" lat="13.711987">
                <ele>4.940000</ele>
                <time>2017-07-29T09:06:31Z</time>
            </trkpt>
            <trkpt lon="101.364717" lat="13.712226">
                <ele>4.940000</ele>
                <time>2017-07-29T09:06:46Z</time>
            </trkpt>
            <trkpt lon="101.364581" lat="13.712312">
                <ele>5.420000</ele>
                <time>2017-07-29T09:06:57Z</time>
            </trkpt>
            <trkpt lon="101.364588" lat="13.712311">
                <ele>5.420000</ele>
                <time>2017-07-29T09:07:08Z</time>
            </trkpt>
            <trkpt lon="101.364850" lat="13.712159">
                <ele>5.910000</ele>
                <time>2017-07-29T09:07:18Z</time>
            </trkpt>
            <trkpt lon="101.365464" lat="13.711815">
                <ele>6.870000</ele>
                <time>2017-07-29T09:07:36Z</time>
            </trkpt>
            <trkpt lon="101.365605" lat="13.711728">
                <ele>7.830000</ele>
                <time>2017-07-29T09:07:49Z</time>
            </trkpt>
            <trkpt lon="101.365590" lat="13.711716">
                <ele>7.350000</ele>
                <time>2017-07-29T09:07:58Z</time>
            </trkpt>
            <trkpt lon="101.365479" lat="13.711579">
                <ele>7.830000</ele>
                <time>2017-07-29T09:08:14Z</time>
            </trkpt>
            <trkpt lon="101.365392" lat="13.711493">
                <ele>8.310000</ele>
                <time>2017-07-29T09:08:28Z</time>
            </trkpt>
            <trkpt lon="101.365391" lat="13.711488">
                <ele>8.310000</ele>
                <time>2017-07-29T09:08:29Z</time>
            </trkpt>
            <trkpt lon="101.365057" lat="13.711443">
                <ele>7.830000</ele>
                <time>2017-07-29T09:08:42Z</time>
            </trkpt>
            <trkpt lon="101.364539" lat="13.711564">
                <ele>6.870000</ele>
                <time>2017-07-29T09:08:59Z</time>
            </trkpt>
            <trkpt lon="101.364021" lat="13.711701">
                <ele>5.910000</ele>
                <time>2017-07-29T09:09:16Z</time>
            </trkpt>
            <trkpt lon="101.363711" lat="13.711787">
                <ele>5.910000</ele>
                <time>2017-07-29T09:09:29Z</time>
            </trkpt>
            <trkpt lon="101.363453" lat="13.711852">
                <ele>5.910000</ele>
                <time>2017-07-29T09:09:44Z</time>
            </trkpt>
            <trkpt lon="101.363179" lat="13.711924">
                <ele>6.390000</ele>
                <time>2017-07-29T09:09:59Z</time>
            </trkpt>
            <trkpt lon="101.362841" lat="13.712010">
                <ele>6.390000</ele>
                <time>2017-07-29T09:10:15Z</time>
            </trkpt>
            <trkpt lon="101.362413" lat="13.712116">
                <ele>6.870000</ele>
                <time>2017-07-29T09:10:34Z</time>
            </trkpt>
            <trkpt lon="101.362303" lat="13.712153">
                <ele>6.390000</ele>
                <time>2017-07-29T09:10:39Z</time>
            </trkpt>
            <trkpt lon="101.362295" lat="13.712163">
                <ele>6.390000</ele>
                <time>2017-07-29T09:10:40Z</time>
            </trkpt>
            <trkpt lon="101.362290" lat="13.712174">
                <ele>6.390000</ele>
                <time>2017-07-29T09:10:41Z</time>
            </trkpt>
            <trkpt lon="101.362288" lat="13.712187">
                <ele>5.910000</ele>
                <time>2017-07-29T09:10:42Z</time>
            </trkpt>
            <trkpt lon="101.362292" lat="13.712205">
                <ele>5.910000</ele>
                <time>2017-07-29T09:10:43Z</time>
            </trkpt>
            <trkpt lon="101.362300" lat="13.712219">
                <ele>6.390000</ele>
                <time>2017-07-29T09:10:55Z</time>
            </trkpt>
            <trkpt lon="101.362302" lat="13.712229">
                <ele>7.350000</ele>
                <time>2017-07-29T09:11:22Z</time>
            </trkpt>
            <trkpt lon="101.362305" lat="13.712217">
                <ele>5.420000</ele>
                <time>2017-07-29T09:11:47Z</time>
            </trkpt>
            <trkpt lon="101.362309" lat="13.712239">
                <ele>6.870000</ele>
                <time>2017-07-29T09:12:03Z</time>
            </trkpt>
            <trkpt lon="101.362312" lat="13.712250">
                <ele>6.870000</ele>
                <time>2017-07-29T09:12:04Z</time>
            </trkpt>
            <trkpt lon="101.362306" lat="13.712261">
                <ele>6.870000</ele>
                <time>2017-07-29T09:12:05Z</time>
            </trkpt>
            <trkpt lon="101.362287" lat="13.712273">
                <ele>6.870000</ele>
                <time>2017-07-29T09:12:06Z</time>
            </trkpt>
            <trkpt lon="101.362273" lat="13.712275">
                <ele>6.870000</ele>
                <time>2017-07-29T09:12:07Z</time>
            </trkpt>
            <trkpt lon="101.362250" lat="13.712276">
                <ele>6.870000</ele>
                <time>2017-07-29T09:12:08Z</time>
            </trkpt>
            <trkpt lon="101.362224" lat="13.712272">
                <ele>6.870000</ele>
                <time>2017-07-29T09:12:09Z</time>
            </trkpt>
            <trkpt lon="101.362196" lat="13.712261">
                <ele>6.870000</ele>
                <time>2017-07-29T09:12:10Z</time>
            </trkpt>
            <trkpt lon="101.361921" lat="13.712313">
                <ele>6.390000</ele>
                <time>2017-07-29T09:12:20Z</time>
            </trkpt>
            <trkpt lon="101.361504" lat="13.712419">
                <ele>5.420000</ele>
                <time>2017-07-29T09:12:34Z</time>
            </trkpt>
            <trkpt lon="101.361194" lat="13.712504">
                <ele>5.420000</ele>
                <time>2017-07-29T09:12:47Z</time>
            </trkpt>
            <trkpt lon="101.360757" lat="13.712620">
                <ele>5.910000</ele>
                <time>2017-07-29T09:13:01Z</time>
            </trkpt>
            <trkpt lon="101.360240" lat="13.712761">
                <ele>6.870000</ele>
                <time>2017-07-29T09:13:17Z</time>
            </trkpt>
            <trkpt lon="101.359956" lat="13.712824">
                <ele>6.870000</ele>
                <time>2017-07-29T09:13:29Z</time>
            </trkpt>
            <trkpt lon="101.359892" lat="13.712849">
                <ele>7.830000</ele>
                <time>2017-07-29T09:13:43Z</time>
            </trkpt>
            <trkpt lon="101.359867" lat="13.712858">
                <ele>7.830000</ele>
                <time>2017-07-29T09:13:49Z</time>
            </trkpt>
            <trkpt lon="101.359853" lat="13.712861">
                <ele>7.350000</ele>
                <time>2017-07-29T09:13:50Z</time>
            </trkpt>
            <trkpt lon="101.359837" lat="13.712866">
                <ele>7.350000</ele>
                <time>2017-07-29T09:13:51Z</time>
            </trkpt>
            <trkpt lon="101.359788" lat="13.712881">
                <ele>7.830000</ele>
                <time>2017-07-29T09:14:01Z</time>
            </trkpt>
            <trkpt lon="101.359381" lat="13.712990">
                <ele>6.870000</ele>
                <time>2017-07-29T09:14:14Z</time>
            </trkpt>
            <trkpt lon="101.358780" lat="13.713161">
                <ele>5.910000</ele>
                <time>2017-07-29T09:14:31Z</time>
            </trkpt>
            <trkpt lon="101.358272" lat="13.713312">
                <ele>5.910000</ele>
                <time>2017-07-29T09:14:46Z</time>
            </trkpt>
            <trkpt lon="101.357801" lat="13.713462">
                <ele>5.910000</ele>
                <time>2017-07-29T09:15:00Z</time>
            </trkpt>
            <trkpt lon="101.357386" lat="13.713581">
                <ele>5.420000</ele>
                <time>2017-07-29T09:15:13Z</time>
            </trkpt>
            <trkpt lon="101.356800" lat="13.713750">
                <ele>4.940000</ele>
                <time>2017-07-29T09:15:30Z</time>
            </trkpt>
            <trkpt lon="101.356291" lat="13.713900">
                <ele>4.940000</ele>
                <time>2017-07-29T09:15:46Z</time>
            </trkpt>
            <trkpt lon="101.355644" lat="13.714096">
                <ele>4.940000</ele>
                <time>2017-07-29T09:16:03Z</time>
            </trkpt>
            <trkpt lon="101.355016" lat="13.714292">
                <ele>4.940000</ele>
                <time>2017-07-29T09:16:19Z</time>
            </trkpt>
            <trkpt lon="101.354688" lat="13.714385">
                <ele>5.910000</ele>
                <time>2017-07-29T09:16:31Z</time>
            </trkpt>
            <trkpt lon="101.354231" lat="13.714519">
                <ele>4.940000</ele>
                <time>2017-07-29T09:16:45Z</time>
            </trkpt>
            <trkpt lon="101.353787" lat="13.714660">
                <ele>4.940000</ele>
                <time>2017-07-29T09:16:59Z</time>
            </trkpt>
            <trkpt lon="101.353452" lat="13.714719">
                <ele>5.420000</ele>
                <time>2017-07-29T09:17:10Z</time>
            </trkpt>
            <trkpt lon="101.353443" lat="13.714711">
                <ele>5.420000</ele>
                <time>2017-07-29T09:17:11Z</time>
            </trkpt>
            <trkpt lon="101.353433" lat="13.714705">
                <ele>5.420000</ele>
                <time>2017-07-29T09:17:12Z</time>
            </trkpt>
            <trkpt lon="101.353419" lat="13.714705">
                <ele>5.420000</ele>
                <time>2017-07-29T09:17:13Z</time>
            </trkpt>
            <trkpt lon="101.353406" lat="13.714713">
                <ele>5.420000</ele>
                <time>2017-07-29T09:17:14Z</time>
            </trkpt>
            <trkpt lon="101.353403" lat="13.714730">
                <ele>5.420000</ele>
                <time>2017-07-29T09:17:15Z</time>
            </trkpt>
            <trkpt lon="101.353408" lat="13.714751">
                <ele>5.420000</ele>
                <time>2017-07-29T09:17:16Z</time>
            </trkpt>
            <trkpt lon="101.353413" lat="13.714771">
                <ele>5.420000</ele>
                <time>2017-07-29T09:17:17Z</time>
            </trkpt>
            <trkpt lon="101.353415" lat="13.714792">
                <ele>5.910000</ele>
                <time>2017-07-29T09:17:18Z</time>
            </trkpt>
            <trkpt lon="101.353417" lat="13.714812">
                <ele>5.910000</ele>
                <time>2017-07-29T09:17:19Z</time>
            </trkpt>
            <trkpt lon="101.353423" lat="13.714850">
                <ele>5.910000</ele>
                <time>2017-07-29T09:17:21Z</time>
            </trkpt>
            <trkpt lon="101.353422" lat="13.714870">
                <ele>5.910000</ele>
                <time>2017-07-29T09:17:22Z</time>
            </trkpt>
            <trkpt lon="101.353423" lat="13.714893">
                <ele>5.910000</ele>
                <time>2017-07-29T09:17:23Z</time>
            </trkpt>
            <trkpt lon="101.353423" lat="13.714918">
                <ele>5.910000</ele>
                <time>2017-07-29T09:17:24Z</time>
            </trkpt>
            <trkpt lon="101.353422" lat="13.714947">
                <ele>5.910000</ele>
                <time>2017-07-29T09:17:25Z</time>
            </trkpt>
            <trkpt lon="101.353419" lat="13.715413">
                <ele>5.420000</ele>
                <time>2017-07-29T09:17:41Z</time>
            </trkpt>
            <trkpt lon="101.353415" lat="13.715852">
                <ele>5.910000</ele>
                <time>2017-07-29T09:17:57Z</time>
            </trkpt>
            <trkpt lon="101.353408" lat="13.716225">
                <ele>4.940000</ele>
                <time>2017-07-29T09:18:12Z</time>
            </trkpt>
            <trkpt lon="101.353421" lat="13.716202">
                <ele>5.420000</ele>
                <time>2017-07-29T09:18:29Z</time>
            </trkpt>
            <trkpt lon="101.353417" lat="13.716183">
                <ele>5.910000</ele>
                <time>2017-07-29T09:18:30Z</time>
            </trkpt>
            <trkpt lon="101.353413" lat="13.716167">
                <ele>5.420000</ele>
                <time>2017-07-29T09:18:31Z</time>
            </trkpt>
            <trkpt lon="101.353411" lat="13.716144">
                <ele>5.420000</ele>
                <time>2017-07-29T09:18:32Z</time>
            </trkpt>
            <trkpt lon="101.353411" lat="13.716108">
                <ele>5.910000</ele>
                <time>2017-07-29T09:18:33Z</time>
            </trkpt>
            <trkpt lon="101.353420" lat="13.715406">
                <ele>6.870000</ele>
                <time>2017-07-29T09:18:50Z</time>
            </trkpt>
            <trkpt lon="101.353414" lat="13.714817">
                <ele>6.390000</ele>
                <time>2017-07-29T09:19:05Z</time>
            </trkpt>
            <trkpt lon="101.353394" lat="13.714796">
                <ele>5.910000</ele>
                <time>2017-07-29T09:19:06Z</time>
            </trkpt>
            <trkpt lon="101.353376" lat="13.714790">
                <ele>5.910000</ele>
                <time>2017-07-29T09:19:07Z</time>
            </trkpt>
            <trkpt lon="101.353348" lat="13.714795">
                <ele>5.910000</ele>
                <time>2017-07-29T09:19:08Z</time>
            </trkpt>
            <trkpt lon="101.353332" lat="13.714802">
                <ele>5.910000</ele>
                <time>2017-07-29T09:19:09Z</time>
            </trkpt>
            <trkpt lon="101.353310" lat="13.714813">
                <ele>5.420000</ele>
                <time>2017-07-29T09:19:10Z</time>
            </trkpt>
            <trkpt lon="101.353285" lat="13.714822">
                <ele>5.420000</ele>
                <time>2017-07-29T09:19:11Z</time>
            </trkpt>
            <trkpt lon="101.352928" lat="13.714918">
                <ele>5.420000</ele>
                <time>2017-07-29T09:19:22Z</time>
            </trkpt>
            <trkpt lon="101.352421" lat="13.715069">
                <ele>5.910000</ele>
                <time>2017-07-29T09:19:37Z</time>
            </trkpt>
            <trkpt lon="101.352115" lat="13.715161">
                <ele>7.350000</ele>
                <time>2017-07-29T09:19:51Z</time>
            </trkpt>
            <trkpt lon="101.351974" lat="13.715191">
                <ele>7.830000</ele>
                <time>2017-07-29T09:19:56Z</time>
            </trkpt>
            <trkpt lon="101.351955" lat="13.715206">
                <ele>7.830000</ele>
                <time>2017-07-29T09:19:57Z</time>
            </trkpt>
            <trkpt lon="101.351943" lat="13.715226">
                <ele>7.350000</ele>
                <time>2017-07-29T09:19:58Z</time>
            </trkpt>
            <trkpt lon="101.351938" lat="13.715254">
                <ele>7.350000</ele>
                <time>2017-07-29T09:19:59Z</time>
            </trkpt>
            <trkpt lon="101.351936" lat="13.715282">
                <ele>7.350000</ele>
                <time>2017-07-29T09:20:00Z</time>
            </trkpt>
            <trkpt lon="101.351931" lat="13.715312">
                <ele>7.350000</ele>
                <time>2017-07-29T09:20:01Z</time>
            </trkpt>
            <trkpt lon="101.351925" lat="13.715345">
                <ele>7.830000</ele>
                <time>2017-07-29T09:20:02Z</time>
            </trkpt>
            <trkpt lon="101.351926" lat="13.715382">
                <ele>7.350000</ele>
                <time>2017-07-29T09:20:03Z</time>
            </trkpt>
            <trkpt lon="101.351929" lat="13.715420">
                <ele>7.350000</ele>
                <time>2017-07-29T09:20:04Z</time>
            </trkpt>
            <trkpt lon="101.351874" lat="13.715996">
                <ele>7.350000</ele>
                <time>2017-07-29T09:20:18Z</time>
            </trkpt>
            <trkpt lon="101.351849" lat="13.716416">
                <ele>7.830000</ele>
                <time>2017-07-29T09:20:29Z</time>
            </trkpt>
            <trkpt lon="101.351846" lat="13.716682">
                <ele>7.830000</ele>
                <time>2017-07-29T09:20:38Z</time>
            </trkpt>
            <trkpt lon="101.351853" lat="13.716704">
                <ele>7.830000</ele>
                <time>2017-07-29T09:20:39Z</time>
            </trkpt>
            <trkpt lon="101.351860" lat="13.716731">
                <ele>7.830000</ele>
                <time>2017-07-29T09:20:40Z</time>
            </trkpt>
            <trkpt lon="101.351863" lat="13.716758">
                <ele>7.350000</ele>
                <time>2017-07-29T09:20:41Z</time>
            </trkpt>
            <trkpt lon="101.351861" lat="13.716789">
                <ele>7.350000</ele>
                <time>2017-07-29T09:20:42Z</time>
            </trkpt>
            <trkpt lon="101.351860" lat="13.716816">
                <ele>7.350000</ele>
                <time>2017-07-29T09:20:43Z</time>
            </trkpt>
            <trkpt lon="101.351863" lat="13.716852">
                <ele>7.350000</ele>
                <time>2017-07-29T09:20:44Z</time>
            </trkpt>
            <trkpt lon="101.351869" lat="13.716881">
                <ele>7.350000</ele>
                <time>2017-07-29T09:20:45Z</time>
            </trkpt>
            <trkpt lon="101.351885" lat="13.717012">
                <ele>7.830000</ele>
                <time>2017-07-29T09:20:49Z</time>
            </trkpt>
            <trkpt lon="101.351873" lat="13.717062">
                <ele>7.830000</ele>
                <time>2017-07-29T09:20:53Z</time>
            </trkpt>
            <trkpt lon="101.351858" lat="13.717256">
                <ele>7.350000</ele>
                <time>2017-07-29T09:21:04Z</time>
            </trkpt>
            <trkpt lon="101.351827" lat="13.717591">
                <ele>7.350000</ele>
                <time>2017-07-29T09:21:17Z</time>
            </trkpt>
            <trkpt lon="101.351780" lat="13.717909">
                <ele>7.350000</ele>
                <time>2017-07-29T09:21:30Z</time>
            </trkpt>
            <trkpt lon="101.351785" lat="13.717951">
                <ele>7.350000</ele>
                <time>2017-07-29T09:21:33Z</time>
            </trkpt>
            <trkpt lon="101.351840" lat="13.718026">
                <ele>7.350000</ele>
                <time>2017-07-29T09:21:40Z</time>
            </trkpt>
            <trkpt lon="101.352133" lat="13.718008">
                <ele>7.350000</ele>
                <time>2017-07-29T09:21:52Z</time>
            </trkpt>
            <trkpt lon="101.352589" lat="13.718047">
                <ele>6.870000</ele>
                <time>2017-07-29T09:22:06Z</time>
            </trkpt>
            <trkpt lon="101.353157" lat="13.718025">
                <ele>6.870000</ele>
                <time>2017-07-29T09:22:21Z</time>
            </trkpt>
            <trkpt lon="101.353369" lat="13.718010">
                <ele>6.870000</ele>
                <time>2017-07-29T09:22:27Z</time>
            </trkpt>
            <trkpt lon="101.353421" lat="13.718024">
                <ele>7.350000</ele>
                <time>2017-07-29T09:22:29Z</time>
            </trkpt>
            <trkpt lon="101.353430" lat="13.718041">
                <ele>7.350000</ele>
                <time>2017-07-29T09:22:30Z</time>
            </trkpt>
            <trkpt lon="101.353434" lat="13.718060">
                <ele>7.350000</ele>
                <time>2017-07-29T09:22:31Z</time>
            </trkpt>
            <trkpt lon="101.353437" lat="13.718078">
                <ele>7.350000</ele>
                <time>2017-07-29T09:22:32Z</time>
            </trkpt>
            <trkpt lon="101.353440" lat="13.718098">
                <ele>7.350000</ele>
                <time>2017-07-29T09:22:33Z</time>
            </trkpt>
            <trkpt lon="101.353446" lat="13.718118">
                <ele>6.870000</ele>
                <time>2017-07-29T09:22:34Z</time>
            </trkpt>
            <trkpt lon="101.353443" lat="13.718560">
                <ele>6.390000</ele>
                <time>2017-07-29T09:22:48Z</time>
            </trkpt>
            <trkpt lon="101.353478" lat="13.718835">
                <ele>5.910000</ele>
                <time>2017-07-29T09:22:59Z</time>
            </trkpt>
            <trkpt lon="101.353472" lat="13.718841">
                <ele>5.910000</ele>
                <time>2017-07-29T09:23:00Z</time>
            </trkpt>
            <trkpt lon="101.353465" lat="13.718854">
                <ele>5.910000</ele>
                <time>2017-07-29T09:23:01Z</time>
            </trkpt>
            <trkpt lon="101.353448" lat="13.719245">
                <ele>6.390000</ele>
                <time>2017-07-29T09:23:13Z</time>
            </trkpt>
            <trkpt lon="101.353475" lat="13.719928">
                <ele>7.350000</ele>
                <time>2017-07-29T09:23:27Z</time>
            </trkpt>
            <trkpt lon="101.353474" lat="13.719979">
                <ele>7.350000</ele>
                <time>2017-07-29T09:23:28Z</time>
            </trkpt>
            <trkpt lon="101.353449" lat="13.720229">
                <ele>7.830000</ele>
                <time>2017-07-29T09:23:33Z</time>
            </trkpt>
            <trkpt lon="101.353438" lat="13.720805">
                <ele>7.830000</ele>
                <time>2017-07-29T09:23:47Z</time>
            </trkpt>
            <trkpt lon="101.353427" lat="13.721329">
                <ele>6.870000</ele>
                <time>2017-07-29T09:24:02Z</time>
            </trkpt>
            <trkpt lon="101.353410" lat="13.721788">
                <ele>6.390000</ele>
                <time>2017-07-29T09:24:16Z</time>
            </trkpt>
            <trkpt lon="101.353401" lat="13.722053">
                <ele>7.350000</ele>
                <time>2017-07-29T09:24:29Z</time>
            </trkpt>
            <trkpt lon="101.353403" lat="13.722073">
                <ele>6.390000</ele>
                <time>2017-07-29T09:24:56Z</time>
            </trkpt>
            <trkpt lon="101.353403" lat="13.722426">
                <ele>7.350000</ele>
                <time>2017-07-29T09:25:07Z</time>
            </trkpt>
            <trkpt lon="101.353419" lat="13.723313">
                <ele>7.350000</ele>
                <time>2017-07-29T09:25:27Z</time>
            </trkpt>
            <trkpt lon="101.353443" lat="13.723700">
                <ele>8.310000</ele>
                <time>2017-07-29T09:25:36Z</time>
            </trkpt>
            <trkpt lon="101.353534" lat="13.724312">
                <ele>7.830000</ele>
                <time>2017-07-29T09:25:50Z</time>
            </trkpt>
            <trkpt lon="101.353516" lat="13.724443">
                <ele>9.270000</ele>
                <time>2017-07-29T09:25:54Z</time>
            </trkpt>
            <trkpt lon="101.353491" lat="13.724462">
                <ele>9.270000</ele>
                <time>2017-07-29T09:25:55Z</time>
            </trkpt>
            <trkpt lon="101.353462" lat="13.724475">
                <ele>9.270000</ele>
                <time>2017-07-29T09:25:56Z</time>
            </trkpt>
            <trkpt lon="101.352905" lat="13.724519">
                <ele>10.230000</ele>
                <time>2017-07-29T09:26:10Z</time>
            </trkpt>
            <trkpt lon="101.352476" lat="13.724557">
                <ele>10.230000</ele>
                <time>2017-07-29T09:26:21Z</time>
            </trkpt>
            <trkpt lon="101.351508" lat="13.724599">
                <ele>9.750000</ele>
                <time>2017-07-29T09:26:41Z</time>
            </trkpt>
            <trkpt lon="101.350876" lat="13.724620">
                <ele>9.270000</ele>
                <time>2017-07-29T09:26:55Z</time>
            </trkpt>
            <trkpt lon="101.349869" lat="13.724646">
                <ele>10.230000</ele>
                <time>2017-07-29T09:27:16Z</time>
            </trkpt>
            <trkpt lon="101.349531" lat="13.724651">
                <ele>10.230000</ele>
                <time>2017-07-29T09:27:23Z</time>
            </trkpt>
            <trkpt lon="101.349486" lat="13.724658">
                <ele>10.230000</ele>
                <time>2017-07-29T09:27:24Z</time>
            </trkpt>
            <trkpt lon="101.349394" lat="13.724682">
                <ele>10.230000</ele>
                <time>2017-07-29T09:27:26Z</time>
            </trkpt>
            <trkpt lon="101.349348" lat="13.724701">
                <ele>10.230000</ele>
                <time>2017-07-29T09:27:27Z</time>
            </trkpt>
            <trkpt lon="101.349306" lat="13.724723">
                <ele>10.230000</ele>
                <time>2017-07-29T09:27:28Z</time>
            </trkpt>
            <trkpt lon="101.349179" lat="13.724801">
                <ele>10.230000</ele>
                <time>2017-07-29T09:27:31Z</time>
            </trkpt>
            <trkpt lon="101.349140" lat="13.724833">
                <ele>10.230000</ele>
                <time>2017-07-29T09:27:32Z</time>
            </trkpt>
            <trkpt lon="101.348778" lat="13.725194">
                <ele>10.230000</ele>
                <time>2017-07-29T09:27:45Z</time>
            </trkpt>
            <trkpt lon="101.348389" lat="13.725728">
                <ele>8.790000</ele>
                <time>2017-07-29T09:27:59Z</time>
            </trkpt>
            <trkpt lon="101.347960" lat="13.726458">
                <ele>9.750000</ele>
                <time>2017-07-29T09:28:16Z</time>
            </trkpt>
            <trkpt lon="101.347842" lat="13.726665">
                <ele>9.750000</ele>
                <time>2017-07-29T09:28:21Z</time>
            </trkpt>
            <trkpt lon="101.347816" lat="13.726712">
                <ele>9.750000</ele>
                <time>2017-07-29T09:28:22Z</time>
            </trkpt>
            <trkpt lon="101.347797" lat="13.726747">
                <ele>9.750000</ele>
                <time>2017-07-29T09:28:23Z</time>
            </trkpt>
            <trkpt lon="101.347495" lat="13.727314">
                <ele>8.790000</ele>
                <time>2017-07-29T09:28:36Z</time>
            </trkpt>
            <trkpt lon="101.347046" lat="13.728084">
                <ele>7.830000</ele>
                <time>2017-07-29T09:28:54Z</time>
            </trkpt>
            <trkpt lon="101.347029" lat="13.728099">
                <ele>7.830000</ele>
                <time>2017-07-29T09:28:55Z</time>
            </trkpt>
            <trkpt lon="101.347008" lat="13.728104">
                <ele>7.830000</ele>
                <time>2017-07-29T09:28:56Z</time>
            </trkpt>
            <trkpt lon="101.346907" lat="13.728076">
                <ele>7.830000</ele>
                <time>2017-07-29T09:28:59Z</time>
            </trkpt>
            <trkpt lon="101.346711" lat="13.728010">
                <ele>8.790000</ele>
                <time>2017-07-29T09:29:04Z</time>
            </trkpt>
            <trkpt lon="101.346200" lat="13.727870">
                <ele>12.150000</ele>
                <time>2017-07-29T09:29:18Z</time>
            </trkpt>
            <trkpt lon="101.346020" lat="13.727776">
                <ele>12.150000</ele>
                <time>2017-07-29T09:29:24Z</time>
            </trkpt>
            <trkpt lon="101.346016" lat="13.727436">
                <ele>10.710000</ele>
                <time>2017-07-29T09:29:35Z</time>
            </trkpt>
            <trkpt lon="101.346017" lat="13.727321">
                <ele>11.670000</ele>
                <time>2017-07-29T09:29:40Z</time>
            </trkpt>
            <trkpt lon="101.345751" lat="13.727261">
                <ele>12.150000</ele>
                <time>2017-07-29T09:29:51Z</time>
            </trkpt>
            <trkpt lon="101.345497" lat="13.727324">
                <ele>12.150000</ele>
                <time>2017-07-29T09:30:00Z</time>
            </trkpt>
            <trkpt lon="101.345268" lat="13.727396">
                <ele>12.630000</ele>
                <time>2017-07-29T09:30:09Z</time>
            </trkpt>
            <trkpt lon="101.345044" lat="13.727612">
                <ele>10.230000</ele>
                <time>2017-07-29T09:30:22Z</time>
            </trkpt>
            <trkpt lon="101.344697" lat="13.727819">
                <ele>9.270000</ele>
                <time>2017-07-29T09:30:36Z</time>
            </trkpt>
            <trkpt lon="101.344354" lat="13.727999">
                <ele>9.270000</ele>
                <time>2017-07-29T09:30:50Z</time>
            </trkpt>
            <trkpt lon="101.343972" lat="13.728112">
                <ele>9.750000</ele>
                <time>2017-07-29T09:31:04Z</time>
            </trkpt>
            <trkpt lon="101.343658" lat="13.728246">
                <ele>9.750000</ele>
                <time>2017-07-29T09:31:16Z</time>
            </trkpt>
            <trkpt lon="101.343197" lat="13.728312">
                <ele>9.270000</ele>
                <time>2017-07-29T09:31:32Z</time>
            </trkpt>
            <trkpt lon="101.342912" lat="13.728528">
                <ele>8.790000</ele>
                <time>2017-07-29T09:31:44Z</time>
            </trkpt>
            <trkpt lon="101.342830" lat="13.728755">
                <ele>8.310000</ele>
                <time>2017-07-29T09:31:54Z</time>
            </trkpt>
            <trkpt lon="101.342789" lat="13.728869">
                <ele>7.830000</ele>
                <time>2017-07-29T09:32:04Z</time>
            </trkpt>
            <trkpt lon="101.342762" lat="13.728942">
                <ele>7.350000</ele>
                <time>2017-07-29T09:32:26Z</time>
            </trkpt>
            <trkpt lon="101.342625" lat="13.729393">
                <ele>6.870000</ele>
                <time>2017-07-29T09:32:42Z</time>
            </trkpt>
            <trkpt lon="101.342663" lat="13.729738">
                <ele>6.390000</ele>
                <time>2017-07-29T09:32:54Z</time>
            </trkpt>
            <trkpt lon="101.342620" lat="13.730077">
                <ele>6.870000</ele>
                <time>2017-07-29T09:33:07Z</time>
            </trkpt>
            <trkpt lon="101.342411" lat="13.730337">
                <ele>6.870000</ele>
                <time>2017-07-29T09:33:18Z</time>
            </trkpt>
            <trkpt lon="101.342107" lat="13.730527">
                <ele>6.870000</ele>
                <time>2017-07-29T09:33:29Z</time>
            </trkpt>
            <trkpt lon="101.342046" lat="13.730671">
                <ele>6.390000</ele>
                <time>2017-07-29T09:33:33Z</time>
            </trkpt>
            <trkpt lon="101.342039" lat="13.730713">
                <ele>6.390000</ele>
                <time>2017-07-29T09:33:34Z</time>
            </trkpt>
            <trkpt lon="101.342032" lat="13.730800">
                <ele>6.390000</ele>
                <time>2017-07-29T09:33:36Z</time>
            </trkpt>
            <trkpt lon="101.342031" lat="13.730844">
                <ele>6.870000</ele>
                <time>2017-07-29T09:33:37Z</time>
            </trkpt>
            <trkpt lon="101.342024" lat="13.730889">
                <ele>6.870000</ele>
                <time>2017-07-29T09:33:38Z</time>
            </trkpt>
            <trkpt lon="101.342013" lat="13.730936">
                <ele>6.870000</ele>
                <time>2017-07-29T09:33:39Z</time>
            </trkpt>
            <trkpt lon="101.341997" lat="13.730975">
                <ele>6.870000</ele>
                <time>2017-07-29T09:33:40Z</time>
            </trkpt>
            <trkpt lon="101.341973" lat="13.731015">
                <ele>7.350000</ele>
                <time>2017-07-29T09:33:41Z</time>
            </trkpt>
            <trkpt lon="101.341943" lat="13.731053">
                <ele>7.350000</ele>
                <time>2017-07-29T09:33:42Z</time>
            </trkpt>
            <trkpt lon="101.341914" lat="13.731089">
                <ele>7.350000</ele>
                <time>2017-07-29T09:33:43Z</time>
            </trkpt>
            <trkpt lon="101.341885" lat="13.731124">
                <ele>7.350000</ele>
                <time>2017-07-29T09:33:44Z</time>
            </trkpt>
            <trkpt lon="101.341851" lat="13.731155">
                <ele>7.350000</ele>
                <time>2017-07-29T09:33:45Z</time>
            </trkpt>
            <trkpt lon="101.341819" lat="13.731179">
                <ele>7.350000</ele>
                <time>2017-07-29T09:33:46Z</time>
            </trkpt>
            <trkpt lon="101.341424" lat="13.731644">
                <ele>6.390000</ele>
                <time>2017-07-29T09:33:59Z</time>
            </trkpt>
            <trkpt lon="101.341302" lat="13.731842">
                <ele>6.390000</ele>
                <time>2017-07-29T09:34:04Z</time>
            </trkpt>
            <trkpt lon="101.341291" lat="13.731878">
                <ele>6.870000</ele>
                <time>2017-07-29T09:34:05Z</time>
            </trkpt>
            <trkpt lon="101.341376" lat="13.731961">
                <ele>7.830000</ele>
                <time>2017-07-29T09:34:09Z</time>
            </trkpt>
            <trkpt lon="101.341750" lat="13.731992">
                <ele>7.350000</ele>
                <time>2017-07-29T09:34:18Z</time>
            </trkpt>
            <trkpt lon="101.341854" lat="13.732183">
                <ele>8.310000</ele>
                <time>2017-07-29T09:34:25Z</time>
            </trkpt>
            <trkpt lon="101.341827" lat="13.732232">
                <ele>8.310000</ele>
                <time>2017-07-29T09:34:27Z</time>
            </trkpt>
            <trkpt lon="101.341577" lat="13.732757">
                <ele>8.790000</ele>
                <time>2017-07-29T09:34:41Z</time>
            </trkpt>
            <trkpt lon="101.341308" lat="13.733295">
                <ele>11.190000</ele>
                <time>2017-07-29T09:34:56Z</time>
            </trkpt>
            <trkpt lon="101.341017" lat="13.733394">
                <ele>14.080000</ele>
                <time>2017-07-29T09:35:05Z</time>
            </trkpt>
            <trkpt lon="101.340474" lat="13.733469">
                <ele>14.560000</ele>
                <time>2017-07-29T09:35:18Z</time>
            </trkpt>
            <trkpt lon="101.339927" lat="13.733545">
                <ele>17.920000</ele>
                <time>2017-07-29T09:35:32Z</time>
            </trkpt>
            <trkpt lon="101.339850" lat="13.733550">
                <ele>16.000000</ele>
                <time>2017-07-29T09:35:38Z</time>
            </trkpt>
            <trkpt lon="101.339823" lat="13.733577">
                <ele>15.040000</ele>
                <time>2017-07-29T09:35:40Z</time>
            </trkpt>
            <trkpt lon="101.339814" lat="13.733600">
                <ele>14.560000</ele>
                <time>2017-07-29T09:35:41Z</time>
            </trkpt>
            <trkpt lon="101.339812" lat="13.734033">
                <ele>12.150000</ele>
                <time>2017-07-29T09:35:54Z</time>
            </trkpt>
            <trkpt lon="101.339869" lat="13.734531">
                <ele>10.230000</ele>
                <time>2017-07-29T09:36:08Z</time>
            </trkpt>
            <trkpt lon="101.339924" lat="13.734927">
                <ele>8.790000</ele>
                <time>2017-07-29T09:36:22Z</time>
            </trkpt>
            <trkpt lon="101.339972" lat="13.735386">
                <ele>9.270000</ele>
                <time>2017-07-29T09:36:38Z</time>
            </trkpt>
            <trkpt lon="101.340013" lat="13.735924">
                <ele>9.270000</ele>
                <time>2017-07-29T09:36:53Z</time>
            </trkpt>
            <trkpt lon="101.340012" lat="13.735983">
                <ele>9.750000</ele>
                <time>2017-07-29T09:37:01Z</time>
            </trkpt>
            <trkpt lon="101.340000" lat="13.735963">
                <ele>9.750000</ele>
                <time>2017-07-29T09:37:21Z</time>
            </trkpt>
            <trkpt lon="101.339970" lat="13.735857">
                <ele>10.710000</ele>
                <time>2017-07-29T09:37:31Z</time>
            </trkpt>
            <trkpt lon="101.339960" lat="13.735851">
                <ele>10.710000</ele>
                <time>2017-07-29T09:37:32Z</time>
            </trkpt>
            <trkpt lon="101.339950" lat="13.735848">
                <ele>10.710000</ele>
                <time>2017-07-29T09:37:33Z</time>
            </trkpt>
            <trkpt lon="101.339941" lat="13.735844">
                <ele>10.710000</ele>
                <time>2017-07-29T09:37:34Z</time>
            </trkpt>
            <trkpt lon="101.339846" lat="13.735829">
                <ele>11.190000</ele>
                <time>2017-07-29T09:37:47Z</time>
            </trkpt>
            <trkpt lon="101.339774" lat="13.735868">
                <ele>10.230000</ele>
                <time>2017-07-29T09:38:02Z</time>
            </trkpt>
            <trkpt lon="101.339715" lat="13.735899">
                <ele>8.790000</ele>
                <time>2017-07-29T09:38:13Z</time>
            </trkpt>
            <trkpt lon="101.339628" lat="13.735858">
                <ele>10.710000</ele>
                <time>2017-07-29T09:38:25Z</time>
            </trkpt>
            <trkpt lon="101.339505" lat="13.735832">
                <ele>12.630000</ele>
                <time>2017-07-29T09:38:40Z</time>
            </trkpt>
            <trkpt lon="101.339394" lat="13.735826">
                <ele>16.000000</ele>
                <time>2017-07-29T09:38:55Z</time>
            </trkpt>
            <trkpt lon="101.339195" lat="13.735841">
                <ele>16.480000</ele>
                <time>2017-07-29T09:39:06Z</time>
            </trkpt>
            <trkpt lon="101.339146" lat="13.735840">
                <ele>16.480000</ele>
                <time>2017-07-29T09:39:08Z</time>
            </trkpt>
            <trkpt lon="101.339064" lat="13.735804">
                <ele>15.040000</ele>
                <time>2017-07-29T09:39:12Z</time>
            </trkpt>
            <trkpt lon="101.338797" lat="13.735760">
                <ele>13.600000</ele>
                <time>2017-07-29T09:39:23Z</time>
            </trkpt>
            <trkpt lon="101.338667" lat="13.735753">
                <ele>10.710000</ele>
                <time>2017-07-29T09:39:32Z</time>
            </trkpt>
            <trkpt lon="101.338672" lat="13.735753">
                <ele>9.750000</ele>
                <time>2017-07-29T09:39:47Z</time>
            </trkpt>
            <trkpt lon="101.338655" lat="13.735757">
                <ele>8.790000</ele>
                <time>2017-07-29T09:39:56Z</time>
            </trkpt>
            <trkpt lon="101.338616" lat="13.735755">
                <ele>8.310000</ele>
                <time>2017-07-29T09:39:58Z</time>
            </trkpt>
            <trkpt lon="101.338584" lat="13.735737">
                <ele>8.310000</ele>
                <time>2017-07-29T09:39:59Z</time>
            </trkpt>
            <trkpt lon="101.338566" lat="13.735717">
                <ele>7.830000</ele>
                <time>2017-07-29T09:40:00Z</time>
            </trkpt>
            <trkpt lon="101.338553" lat="13.735691">
                <ele>7.830000</ele>
                <time>2017-07-29T09:40:01Z</time>
            </trkpt>
            <trkpt lon="101.338542" lat="13.735661">
                <ele>7.830000</ele>
                <time>2017-07-29T09:40:02Z</time>
            </trkpt>
            <trkpt lon="101.338405" lat="13.735189">
                <ele>7.830000</ele>
                <time>2017-07-29T09:40:17Z</time>
            </trkpt>
            <trkpt lon="101.338422" lat="13.735150">
                <ele>7.830000</ele>
                <time>2017-07-29T09:40:18Z</time>
            </trkpt>
            <trkpt lon="101.338480" lat="13.735120">
                <ele>7.830000</ele>
                <time>2017-07-29T09:40:20Z</time>
            </trkpt>
            <trkpt lon="101.338687" lat="13.735087">
                <ele>7.830000</ele>
                <time>2017-07-29T09:40:32Z</time>
            </trkpt>
            <trkpt lon="101.338792" lat="13.735046">
                <ele>5.910000</ele>
                <time>2017-07-29T09:40:44Z</time>
            </trkpt>
            <trkpt lon="101.338830" lat="13.735049">
                <ele>6.390000</ele>
                <time>2017-07-29T09:41:01Z</time>
            </trkpt>
            <trkpt lon="101.338830" lat="13.735047">
                <ele>6.870000</ele>
                <time>2017-07-29T09:41:07Z</time>
            </trkpt>
        </trkseg>
    </trk>
</gpx>